[[{"header":{"parameterUnit":"m.s-1","parameterCategory":1,"la1":31.0,"la2":29.5877,"lo1":-88.7671,"lo2":-86.6584,"dy":0.0162,"dx":0.0185,"nx":115,"ny":88,"refTime":"2024-09-18T06:00:00:Z","depth":0,"parameterNumber":2,"parameterNumberName":"U-component_of_WINDS"},"data":[0.0,0.0,0.0,0.0,0.0,0.0,0.0,0.0,0.0,0.0,0.0,0.0,0.0,0.0,0.0,0.0,0.0,0.0,0.0,0.0,0.0,0.0,0.0,0.0,0.0,0.0,0.0,0.0,0.0,0.0,0.0,0.0,0.0,0.0,0.0,0.0,0.0,0.0,0.0,0.0,0.0,0.0,0.0,0.0,0.0,0.0,0.0,0.0,0.0,0.0,0.0,0.0,0.0,0.0,0.0,0.0,0.0,0.0,0.0,0.0,0.0,0.0,0.0,0.0,0.0,0.0,0.0,0.0,0.0,0.0,0.0,0.0,0.0,0.0,0.0,0.0,0.0,0.0,0.0,0.0,0.0,0.0,0.0,0.0,0.0,0.0,0.0,0.0,0.0,0.0,0.0,0.0,0.0,0.0,0.0,0.0,0.0,0.0,0.0,0.0,0.0,0.0,0.0,0.0,0.0,0.0,0.0,0.0,0.0,0.0,0.0,0.0,0.0,0.0,0.0,0.0,0.0,0.0,0.0,0.0,0.0,0.0,0.0,0.0,0.0,0.0,0.0,0.0,0.0,0.0,0.0,0.0,0.0,0.0,0.0,0.0,0.0,0.0,0.0,0.0,0.0,0.0,0.0,0.0,0.0,0.0,0.0,0.0,0.0,0.0,0.0,0.0,0.0,0.0,0.0,0.0,0.0,0.0,0.0,0.0,0.0,0.0,0.0,0.0,0.0,0.0,0.0,0.0,0.0,0.0,0.0,0.0,0.0,0.0,0.0,0.0,0.0,0.0,0.0,0.0,0.0,0.0,0.0,0.0,0.0,0.0,0.0,0.0,0.0,0.0,0.0,0.0,0.0,0.0,0.0,0.0,0.0,0.0,0.0,0.0,0.0,0.0,0.0,0.0,0.0,0.0,0.0,0.0,0.0,0.0,0.0,0.0,0.0,0.0,0.0,0.0,0.0,0.0,0.0,0.0,0.0,0.0,0.0,0.0,0.0,0.0,0.0,0.0,0.0,0.0,0.0,0.0,0.0,0.0,0.0,0.0,0.0,0.0,0.0,0.0,0.0,0.0,0.0,0.0,0.0,0.0,0.0,0.0,0.0,0.0,0.0,0.0,0.0,0.0,0.0,0.0,0.0,0.0,0.0,0.0,0.0,0.0,0.0,0.0,0.0,0.0,0.0,0.0,0.0,0.0,0.0,0.0,0.0,0.0,0.0,0.0,0.0,0.0,0.0,0.0,0.0,0.0,0.0,0.0,0.0,0.0,0.0,0.0,0.0,0.0,0.0,0.0,0.0,0.0,0.0,0.0,0.0,0.0,0.0,0.0,0.0,0.0,0.0,0.0,0.0,0.0,0.0,0.0,0.0,0.0,0.0,0.0,0.0,0.0,0.0,0.0,0.0,0.0,0.0,0.0,0.0,0.0,0.0,0.0,0.0,0.0,0.0,0.0,0.0,0.0,0.0,0.0,0.0,0.0,0.0,0.0,0.0,0.0,0.0,0.0,0.0,0.0,0.0,0.0,0.0,0.0,0.0,0.0,0.0,0.0,0.0,0.0,0.0,0.0,0.0,0.0,0.0,0.0,0.0,0.0,0.0,0.0,0.0,0.0,0.0,0.0,0.0,0.0,0.0,0.0,0.0,0.0,0.0,0.0,0.0,0.0,0.0,0.0,0.0,0.0,0.0,0.0,0.0,0.0,0.0,0.0,0.0,0.0,0.0,0.0,0.0,0.0,0.0,0.0,0.0,0.0,0.0,0.0,0.0,0.0,0.0,0.0,0.0,0.0,0.0,0.0,0.0,0.0,0.0,0.0,0.0,0.0,0.0,0.0,0.0,0.0,0.0,0.0,0.0,0.0,0.0,0.0,0.0,0.0,0.0,0.0,0.0,0.0,0.0,0.0,0.0,0.0,0.0,0.0,0.0,0.0,0.0,0.0,0.0,0.0,0.0,0.0,0.0,0.0,0.0,0.0,0.0,0.0,0.0,0.0,0.0,0.0,0.0,0.0,0.0,0.0,0.0,0.0,0.0,0.0,0.0,0.0,0.0,0.0,0.0,0.0,0.0,0.0,0.0,0.0,0.0,0.0,0.0,0.0,0.0,0.0,0.0,0.0,0.0,0.0,0.0,0.0,0.0,0.0,0.0,0.0,0.0,0.0,0.0,0.0,0.0,0.0,0.0,0.0,0.0,0.0,0.0,0.0,0.0,0.0,0.0,0.0,0.0,0.0,0.0,0.0,0.0,0.0,0.0,0.0,0.0,0.0,0.0,0.0,0.0,0.0,0.0,0.0,0.0,0.0,0.0,0.0,0.0,0.0,0.0,0.0,0.0,0.0,0.0,0.0,0.0,0.0,0.0,0.0,0.0,0.0,0.0,0.0,0.0,0.0,0.0,0.0,0.0,0.0,0.0,0.0,0.0,0.0,0.0,0.0,0.0,0.0,0.0,0.0,0.0,0.0,0.0,0.0,0.0,0.0,0.0,0.0,0.0,0.0,0.0,0.0,0.0,0.0,0.0,0.0,0.0,0.0,0.0,0.0,0.0,0.0,0.0,0.0,0.0,0.0,0.0,0.0,0.0,0.0,0.0,0.0,0.0,0.0,0.0,0.0,0.0,0.0,0.0,0.0,0.0,0.0,0.0,0.0,0.0,0.0,0.0,0.0,0.0,0.0,0.0,0.0,0.0,0.0,0.0,0.0,0.0,0.0,0.0,0.0,0.0,0.0,0.0,0.0,0.0,0.0,0.0,0.0,0.0,0.0,0.0,0.0,0.0,0.0,0.0,0.0,0.0,0.0,0.0,0.0,0.0,0.0,0.0,0.0,0.0,0.0,0.0,0.0,0.0,0.0,0.0,0.0,0.0,0.0,0.0,0.0,0.0,0.0,0.0,0.0,0.0,0.0,0.0,0.0,0.0,0.0,0.0,0.0,0.0,0.0,0.0,0.0,0.0,0.0,0.0,0.0,0.0,0.0,0.0,0.0,0.0,0.0,0.0,0.0,0.0,0.0,0.0,0.0,0.0,0.0,0.0,0.0,0.0,0.0,0.0,0.0,0.0,0.0,0.0,0.0,0.0,0.0,0.0,0.0,0.0,0.0,0.0,0.0,0.0,0.0,0.0,0.0,0.0,0.0,0.0,0.0,0.0,0.0,0.0,0.0,0.0,0.0,0.0,0.0,0.0,0.0,0.0,0.0,0.0,0.0,0.0,0.0,0.0,0.0,0.0,0.0,0.0,0.0,0.0,0.0,0.0,0.0,0.0,0.0,0.0,0.0,0.0,0.0,0.0,0.0,0.0,0.0,0.0,0.0,0.0,0.0,0.0,0.0,0.0,0.0,0.0,0.0,0.0,0.0,0.0,0.0,0.0,0.0,0.0,0.0,0.0,0.0,0.0,0.0,0.0,0.0,0.0,0.0,0.0,0.0,0.0,0.0,0.0,0.0,0.0,0.0,0.0,0.0,0.0,0.0,0.0,0.0,0.0,0.0,0.0,0.0,0.0,0.0,0.0,0.0,0.0,0.0,0.0,0.0,0.0,0.0,0.0,0.0,0.0,0.0,0.0,0.0,0.0,0.0,0.0,0.0,0.0,0.0,0.0,0.0,0.0,0.0,0.0,0.0,0.0,0.0,0.0,0.0,0.0,0.0,0.0,0.0,0.0,0.0,0.0,0.0,0.0,0.0,0.0,0.0,0.0,0.0,0.0,0.0,0.0,0.0,0.0,0.0,0.0,0.0,0.0,0.0,0.0,0.0,0.0,0.0,0.0,0.0,0.0,0.0,0.0,0.0,0.0,0.0,0.0,0.0,0.0,0.0,0.0,0.0,0.0,0.0,0.0,0.0,0.0,0.0,0.0,0.0,0.0,0.0,0.0,0.0,0.0,0.0,0.0,0.0,0.0,0.0,0.0,0.0,0.0,0.0,0.0,0.0,0.0,0.0,0.0,0.0,0.0,0.0,0.0,0.0,0.0,0.0,0.0,0.0,0.0,0.0,0.0,0.0,0.0,0.0,0.0,0.0,0.0,0.0,0.0,0.0,0.0,0.0,0.0,0.0,0.0,0.0,0.0,0.0,0.0,0.0,0.0,0.0,0.0,0.0,0.0,0.0,0.0,0.0,0.0,0.0,0.0,0.0,0.0,0.0,0.0,0.0,0.0,0.0,0.0,0.0,0.0,0.0,0.0,0.0,0.0,0.0,0.0,0.0,0.0,0.0,0.0,0.0,0.0,0.0,0.0,0.0,0.0,0.0,0.0,0.0,0.0,0.0,0.0,0.0,1.273,0.0,0.0,0.0,0.0,0.0,0.0,0.0,0.0,0.0,0.0,0.0,0.0,0.0,0.0,0.0,0.0,0.0,0.0,0.0,0.0,0.0,0.0,0.0,0.0,0.0,0.0,0.0,0.0,0.0,0.0,0.0,0.0,0.0,0.0,0.0,0.0,0.0,0.0,0.0,0.0,0.0,0.0,0.0,0.0,0.0,0.0,0.0,0.0,0.0,0.0,0.0,0.0,0.0,0.0,0.0,0.0,0.0,0.0,0.0,0.0,0.0,0.0,0.0,0.0,0.0,0.0,0.0,0.0,0.0,0.0,0.0,0.0,0.0,0.0,0.0,0.0,0.0,0.0,0.0,0.0,0.0,0.0,0.0,0.0,0.0,0.0,0.0,0.0,0.0,0.0,0.0,0.0,0.0,0.0,0.0,0.0,0.0,0.0,0.0,0.0,0.0,0.0,0.0,0.0,0.0,0.0,0.0,0.0,0.0,0.0,1.3822,1.4851,1.4249,1.3543,1.2757,0.0,0.0,0.0,0.0,0.0,0.0,0.0,0.0,0.0,0.0,0.0,0.0,0.0,0.0,0.0,0.0,0.0,0.0,0.0,0.0,0.0,0.0,0.0,0.0,0.0,0.0,0.0,0.0,0.0,0.0,0.0,0.0,0.0,0.0,0.0,0.0,0.0,0.0,0.0,0.0,0.0,0.0,0.0,0.0,0.0,0.0,0.0,0.0,0.0,0.0,0.0,0.0,0.0,0.0,0.0,0.0,0.0,0.0,0.0,0.0,0.0,0.0,0.0,0.0,0.0,0.0,0.0,0.0,0.0,0.0,0.0,0.0,0.0,0.0,0.0,0.0,0.0,0.0,0.0,0.0,0.0,0.0,0.0,0.0,0.0,0.0,0.0,0.0,0.0,0.0,0.0,0.0,0.0,0.0,0.0,0.0,0.0,0.0,0.0,0.0,0.0,0.0,0.0,0.0,0.0,0.0,0.0,0.0,0.0,0.0,0.0,0.0,1.3698,1.3004,1.2233,0.0,0.0,0.0,0.0,0.0,0.0,0.0,0.0,0.0,0.0,0.0,0.0,0.0,0.0,0.0,0.0,0.0,0.0,0.0,0.0,0.0,0.0,0.0,0.0,0.0,0.0,0.0,0.0,0.0,0.0,0.0,0.0,0.0,0.0,0.0,0.0,0.0,0.0,0.0,0.0,0.0,0.0,0.0,0.0,0.0,0.0,0.0,0.0,0.0,0.0,0.0,0.0,0.0,0.0,0.0,0.0,0.0,0.0,0.0,0.0,0.0,0.0,0.0,0.0,0.0,0.0,0.0,0.0,0.0,0.0,0.0,0.0,0.0,0.0,0.0,0.0,0.0,0.0,0.0,0.0,0.0,0.0,0.0,0.0,0.0,0.0,0.0,0.0,0.0,0.0,0.0,0.0,0.0,0.0,0.0,0.0,0.0,0.0,0.0,0.0,0.0,0.0,0.0,0.0,0.0,0.0,0.0,0.0,0.0,0.0,1.1784,1.2579,1.205,0.0,1.0591,0.0,0.0,0.0,0.0,0.0,0.0,0.0,0.0,0.0,0.0,0.0,0.0,0.0,0.0,0.0,0.0,0.0,0.0,0.0,0.0,0.0,0.0,0.0,0.0,0.0,0.0,0.0,0.0,0.0,0.0,0.0,0.0,0.0,0.0,0.0,0.0,0.0,0.0,0.0,0.0,0.0,0.0,0.0,0.0,0.0,0.0,0.0,0.0,0.0,0.0,0.0,0.0,0.0,0.0,0.0,0.0,0.0,0.0,0.0,0.0,0.0,0.0,0.0,0.0,0.0,0.0,0.0,0.0,0.0,0.0,0.0,0.0,0.0,0.0,0.0,0.0,0.0,0.0,0.0,0.0,0.0,0.0,0.0,0.0,0.0,0.0,0.0,0.0,0.0,0.0,0.0,0.0,0.0,0.0,0.0,0.0,0.0,0.0,0.0,0.0,0.0,0.0,0.0,0.0,0.0,0.0,0.0,0.0,0.0,0.0,1.167,1.2505,1.1902,1.1156,0.0,0.0,0.0,0.0,0.0,0.0,0.0,0.0,0.0,0.0,0.0,0.0,0.0,0.0,0.0,0.0,0.0,0.0,0.0,0.0,0.0,0.0,0.0,0.0,0.0,0.0,0.0,0.0,0.0,0.0,0.0,0.0,0.0,0.0,0.0,0.0,0.0,0.0,0.0,0.0,0.0,0.0,0.0,0.0,0.0,0.0,0.0,0.0,0.0,0.0,0.0,0.0,0.0,0.0,0.0,0.0,0.0,0.0,0.0,0.0,0.0,0.0,0.0,0.0,0.0,0.0,0.0,0.0,0.0,0.0,0.0,0.0,0.0,0.0,0.0,0.0,0.0,0.0,0.0,0.0,0.0,0.0,0.0,0.0,0.0,0.0,0.0,0.0,0.0,0.0,0.0,0.0,0.0,0.0,0.0,0.0,0.0,0.0,0.0,0.0,0.0,0.0,0.0,0.0,0.0,0.0,0.0,0.0,0.0,0.0,1.0935,1.1285,1.1876,1.1492,1.0936,1.0301,0.0,0.0,0.0,0.0,0.0,0.0,0.0,0.0,0.0,0.0,0.0,0.0,0.0,0.0,0.0,0.0,0.0,0.0,0.0,0.0,0.0,0.0,0.0,0.0,0.0,0.0,0.0,0.0,0.0,0.0,0.0,0.0,0.0,0.0,0.0,0.0,0.0,0.0,0.0,0.0,0.0,0.0,0.0,0.0,0.0,0.0,0.0,0.0,0.0,0.0,0.0,0.0,0.0,0.0,0.0,0.0,0.0,0.0,0.0,0.0,0.0,0.0,0.0,0.0,0.0,0.0,0.0,0.0,0.0,0.0,0.0,0.0,0.0,0.0,0.0,0.0,0.0,0.0,0.0,0.0,0.0,0.0,0.0,0.0,0.0,0.0,0.0,0.0,0.0,0.0,0.0,0.0,0.0,0.0,0.0,0.0,0.0,0.0,0.0,0.0,0.0,0.0,0.0,0.0,0.0,0.0,0.0,0.0,0.0,1.0134,1.023,1.0363,1.0341,1.0318,0.0,0.0,0.0,0.0,0.0,0.0,0.0,0.0,0.0,0.0,0.0,0.0,0.0,0.0,0.0,0.0,0.0,0.0,0.0,0.0,0.0,0.0,0.0,0.0,0.0,0.0,0.0,0.0,0.0,0.0,0.0,0.0,0.0,0.0,0.0,0.0,0.0,0.0,0.0,0.0,0.0,0.0,0.0,0.0,0.0,0.0,0.0,0.0,0.0,0.0,0.0,0.0,0.0,0.0,0.0,0.0,0.0,0.0,0.0,0.0,0.0,0.0,0.0,0.0,0.0,0.0,0.0,0.0,0.0,0.0,0.0,0.0,0.0,0.0,0.0,0.0,0.0,0.0,0.0,0.0,0.0,0.0,0.0,0.0,0.0,0.0,0.0,0.0,0.0,0.0,0.0,0.0,0.0,0.0,0.0,0.0,0.0,0.0,0.0,0.0,0.0,0.0,0.0,0.0,0.0,0.0,0.0,0.0,0.0,1.0093,1.0625,1.0985,1.1095,1.1072,1.0796,0.0,0.0,0.0,0.0,0.0,0.0,0.0,0.0,0.0,0.0,0.0,0.0,0.0,0.0,0.0,0.0,0.0,0.0,0.0,0.0,0.0,0.0,0.0,0.0,0.0,0.0,0.0,0.0,0.0,0.0,0.0,0.0,0.0,0.0,0.0,0.0,0.0,0.0,0.0,0.0,0.0,0.0,0.0,0.0,0.0,0.0,0.0,0.0,0.0,0.0,0.0,0.0,0.0,0.0,0.0,0.0,0.0,0.0,0.0,0.0,0.0,0.0,0.0,0.0,0.0,0.0,0.0,0.0,0.0,0.0,0.0,0.0,0.0,0.0,0.0,0.0,0.0,0.0,0.0,0.0,0.0,0.0,0.0,0.0,0.0,0.0,0.0,0.0,0.0,0.0,0.0,0.0,0.0,0.0,0.0,0.0,0.0,0.0,0.0,0.0,0.0,0.0,0.0,0.0,0.0,0.0,0.0,0.0,0.0,1.0157,0.0,1.1049,0.0,1.1095,1.0812,0.0,0.0,0.0,0.0,0.0,0.0,0.0,0.0,0.0,0.0,0.0,0.0,0.0,0.0,0.0,0.0,0.0,0.0,0.0,0.0,0.0,0.0,0.0,0.0,0.0,0.0,0.0,0.0,0.0,0.0,0.0,0.0,0.0,0.0,0.0,0.0,0.0,0.0,0.0,0.0,0.0,0.0,0.0,0.0,0.0,0.0,0.0,0.0,0.0,0.0,0.0,0.0,0.0,0.0,0.0,0.0,0.0,0.0,0.0,0.0,0.0,0.0,0.0,0.0,0.0,0.0,0.0,0.0,0.0,0.0,0.0,0.0,0.0,0.0,0.0,0.0,0.0,0.0,0.0,0.0,0.0,0.0,0.0,0.0,0.0,0.0,0.0,0.0,0.0,0.0,0.0,0.0,0.0,0.0,0.0,0.0,0.0,0.0,0.0,0.0,0.0,0.0,0.0,0.0,0.0,0.0,0.0,0.0,1.0135,1.0225,1.0233,1.0313,1.0235,1.0279,1.0222,0.0,0.0,0.0,0.0,0.0,0.0,0.0,0.0,0.0,0.0,0.0,0.0,0.0,0.0,0.0,0.0,0.0,0.0,0.0,0.0,0.0,0.0,0.0,0.0,0.0,0.0,0.0,0.0,0.0,0.0,0.0,0.0,0.0,0.0,0.0,0.0,0.0,0.0,0.0,0.0,0.0,0.0,0.0,0.0,0.0,0.0,0.0,0.0,0.0,0.0,0.0,0.0,0.0,0.0,0.0,0.0,0.0,0.0,0.0,0.0,0.0,0.0,0.0,0.0,0.0,0.0,0.0,0.0,0.0,0.0,0.0,0.0,0.0,0.0,0.0,0.0,0.0,0.0,0.0,0.0,0.0,0.0,0.0,0.0,0.0,0.0,0.0,0.0,0.0,0.0,0.0,0.0,0.0,0.0,0.0,0.0,0.0,0.0,0.0,0.0,0.0,0.0,0.0,0.0,0.0,0.0,0.0,0.0,0.0,1.0877,1.0845,1.0867,1.0954,1.0823,1.0551,0.0,0.0,0.0,0.0,0.0,0.0,0.0,0.0,0.0,0.0,0.0,0.0,0.0,0.0,0.0,0.0,0.0,0.0,0.0,0.0,0.0,0.0,0.0,0.0,0.0,0.0,0.0,0.0,0.0,0.0,0.0,0.0,0.0,0.0,0.0,0.0,0.0,0.0,0.0,0.0,0.0,0.0,0.0,0.0,0.0,0.0,0.0,0.0,0.0,0.0,0.0,0.0,0.0,0.0,0.0,0.0,0.0,0.0,0.0,0.0,0.0,0.0,0.0,0.0,0.0,0.0,0.0,0.0,0.0,0.0,0.0,0.0,0.0,0.0,0.0,0.0,0.0,0.0,0.0,0.0,0.0,0.0,0.0,0.0,0.0,0.0,0.0,0.0,0.0,0.0,0.0,0.0,0.0,0.0,0.0,0.0,0.0,0.0,0.0,0.0,0.0,0.0,0.0,0.0,0.0,0.0,0.0,0.0,0.0,1.0596,1.0639,1.0646,1.0624,1.0454,1.0222,0.9894,0.0,0.0,0.0,0.0,0.0,0.0,0.0,0.0,0.0,0.0,0.0,0.0,0.0,0.0,0.0,0.0,0.0,0.0,0.0,0.0,0.0,0.0,0.0,0.0,0.0,0.0,0.0,0.0,0.0,0.0,0.0,0.0,0.0,0.0,0.0,0.0,0.0,0.0,0.0,0.0,0.0,0.0,0.0,0.0,0.0,0.0,0.0,0.0,0.0,0.0,0.0,0.0,0.0,0.0,0.0,0.0,0.0,0.0,0.0,0.0,0.0,0.0,0.0,0.0,0.0,0.0,0.0,0.0,0.0,0.0,0.0,0.0,0.0,0.0,0.0,0.0,0.0,0.0,0.0,0.0,0.0,0.0,0.0,0.0,0.0,0.0,0.0,0.0,0.0,0.0,0.0,0.0,0.0,0.0,0.0,0.0,0.0,0.0,0.0,0.0,0.0,0.0,0.0,0.0,0.0,0.0,0.0,0.0,0.9615,0.979,0.9763,0.952,0.9369,0.9333,0.0,0.0,0.0,0.0,0.0,0.0,0.0,0.0,0.0,0.0,0.0,0.0,0.0,0.0,0.0,0.0,0.0,0.0,0.0,0.0,0.0,0.0,0.0,0.0,0.0,0.0,0.0,0.0,0.0,0.0,0.0,0.0,0.0,0.0,0.0,0.0,0.0,0.0,0.0,0.0,0.0,0.0,0.0,0.0,0.0,0.0,0.0,0.0,0.0,0.0,0.0,0.0,0.0,0.0,0.0,0.0,0.0,0.0,0.0,0.0,0.0,0.0,0.0,0.0,0.0,0.0,0.0,0.0,0.0,0.0,0.0,0.0,0.0,0.0,0.0,0.0,0.0,0.0,0.0,0.0,0.0,0.0,0.0,0.0,0.0,0.0,0.0,0.0,0.0,0.0,0.0,0.0,0.0,0.0,0.0,0.0,0.0,0.0,0.0,0.0,0.0,0.0,0.0,0.0,0.0,0.0,0.0,0.0,0.0,0.9614,0.966,0.9568,0.936,0.9085,0.9026,0.0,0.0,0.0,0.0,0.0,0.0,0.0,0.0,0.0,0.0,0.0,0.0,0.0,0.0,0.0,0.0,0.0,0.0,0.0,0.0,0.0,0.0,0.0,0.0,0.0,0.0,0.0,0.0,0.0,0.0,0.0,0.0,0.0,0.0,0.0,0.0,0.0,0.0,0.0,0.0,0.0,0.0,0.0,0.0,0.0,0.0,0.0,0.0,0.0,0.0,0.0,0.0,0.0,0.0,0.0,0.0,0.0,0.0,0.0,0.0,0.0,0.0,0.0,0.0,0.0,0.0,0.0,0.0,0.0,0.0,0.0,0.0,0.0,0.0,0.0,0.0,0.0,0.0,0.0,0.0,0.0,0.0,0.0,0.0,0.0,0.0,0.0,0.0,0.0,0.0,0.0,0.0,0.0,0.0,0.0,0.0,0.0,0.0,0.0,0.0,0.0,0.0,0.0,0.0,0.0,0.0,0.0,0.0,0.9676,0.9615,0.9619,0.9544,0.9305,0.8924,0.8731,0.0,0.0,0.0,0.0,0.0,0.0,0.0,0.0,0.0,0.0,0.0,0.0,0.0,0.0,0.0,0.0,0.0,0.0,0.0,0.0,0.0,0.0,0.0,0.0,0.0,0.0,0.0,0.0,0.0,0.0,0.0,0.0,0.0,0.0,0.0,0.0,0.0,0.0,0.0,0.0,0.0,0.0,0.0,0.0,0.0,0.0,0.0,0.0,0.0,0.0,0.0,0.0,0.0,0.0,0.0,0.0,0.0,0.0,0.0,0.0,0.0,0.0,0.0,0.0,0.0,0.0,0.0,0.0,0.0,0.0,0.0,0.0,0.0,0.0,0.0,0.0,0.0,0.0,0.0,0.0,0.0,0.0,0.0,0.0,0.0,0.0,0.0,0.0,0.0,0.0,0.0,0.0,0.0,0.0,0.0,0.0,0.0,0.0,0.0,0.0,0.0,0.0,0.0,0.0,0.0,0.0,0.0,0.0,0.9617,0.9609,0.9677,0.9589,0.9292,0.8831,0.8498,0.0,0.0,0.0,0.0,0.0,0.0,0.0,0.0,0.0,0.0,0.0,0.0,0.0,0.0,0.0,0.0,0.0,0.0,0.0,0.0,0.0,0.0,0.0,0.0,0.0,0.0,0.0,0.0,0.0,0.0,0.0,0.0,0.0,0.0,0.0,0.0,0.0,0.0,0.0,0.0,0.0,0.0,0.0,0.0,0.0,0.0,0.0,0.0,0.0,0.0,0.0,0.0,0.0,0.0,0.0,0.0,0.0,0.0,0.0,0.0,0.0,0.0,0.0,0.0,0.0,0.0,0.0,0.0,0.0,0.0,0.0,0.0,0.0,0.0,0.0,0.0,0.0,0.0,0.0,0.0,0.0,0.0,0.0,0.0,0.0,0.0,0.0,0.0,0.0,0.0,0.0,0.0,0.0,0.0,0.0,0.0,0.0,0.0,0.0,0.0,0.0,0.0,0.0,0.0,0.0,0.0,0.0,0.0,0.9368,0.9665,0.9736,0.9626,0.9319,0.884,0.8538,0.0,0.0,0.0,0.0,0.0,0.0,0.0,0.0,0.0,0.0,0.0,0.0,0.0,0.0,0.0,0.0,0.0,0.0,0.0,0.0,0.0,0.0,0.0,0.0,0.0,0.0,0.0,0.0,0.0,0.0,0.0,0.0,0.0,0.0,0.0,0.0,0.0,0.0,0.0,0.0,0.0,0.0,0.0,0.0,0.0,0.0,0.0,0.0,0.738,0.0,0.0,0.0,0.0,0.0,0.0,0.0,0.0,0.0,0.0,0.0,0.0,0.0,0.0,0.0,0.0,0.0,0.0,0.0,0.0,0.0,0.0,0.0,0.0,0.0,0.0,0.0,0.0,0.0,0.0,0.0,0.0,0.0,0.0,0.0,0.0,0.0,0.0,0.0,0.0,0.0,0.0,0.0,0.0,0.0,0.0,0.0,0.0,0.0,0.0,0.0,0.0,0.0,0.0,0.0,0.0,0.0,0.0,0.0,0.9376,0.9726,0.9808,0.9738,0.9533,0.9052,0.8618,0.0,0.0,0.0,0.0,0.0,0.0,0.0,0.0,0.0,0.0,0.0,0.0,0.0,0.0,0.0,0.0,0.0,0.0,0.0,0.0,0.0,0.0,0.0,0.0,0.0,0.0,0.0,0.0,0.0,0.0,0.0,0.0,0.0,0.0,0.0,0.0,0.0,0.0,0.0,0.0,0.0,0.0,0.0,0.0,0.0,0.0,0.0,0.0,0.0,0.0,0.0,0.0,0.0,0.0,0.0,0.0,0.0,0.0,0.0,0.0,0.0,0.0,0.0,0.0,0.0,0.0,0.0,0.0,0.0,0.0,0.0,0.0,0.0,0.0,0.0,0.0,0.0,0.0,0.0,0.0,0.0,0.0,0.0,0.0,0.0,0.0,0.0,0.0,0.0,0.0,0.0,0.0,0.0,0.0,0.0,0.0,0.0,0.0,0.0,0.0,0.0,0.0,0.0,0.0,0.0,0.0,0.0,0.9346,0.9474,0.9817,0.9875,0.9871,0.9793,0.9277,0.8754,0.824,0.0,0.0,0.0,0.0,0.0,0.0,0.0,0.0,0.0,0.0,0.0,0.0,0.0,0.0,0.0,0.0,0.0,0.0,0.0,0.0,0.0,0.0,0.0,0.0,0.0,0.0,0.0,0.0,0.0,0.0,0.0,0.0,0.0,0.0,0.0,0.0,0.0,0.0,0.977,0.9224,0.0,0.0,0.0,0.0,0.0,0.0,0.0,0.0,0.5929,0.0,0.0,0.0,0.0,0.0,0.0,0.0,0.0,0.0,0.0,0.0,0.0,0.0,0.0,0.0,0.0,0.0,0.0,0.0,0.0,0.0,0.0,0.0,0.0,0.0,0.0,0.0,0.0,0.0,0.0,0.0,0.0,0.0,0.0,0.0,0.0,0.0,0.0,0.0,0.0,0.0,0.0,0.0,0.0,0.0,0.0,0.0,0.0,0.0,0.0,0.0,0.0,0.0,0.0,0.0,0.0,0.9491,0.9364,0.9509,0.9947,0.9914,0.9867,0.9775,0.9285,0.8896,0.8683,0.0,0.0,0.0,0.0,0.0,0.0,0.0,0.0,0.0,0.0,0.0,0.0,0.0,0.0,0.0,0.0,0.0,0.0,0.0,0.0,0.0,0.0,0.0,0.0,0.0,0.0,0.0,0.0,0.0,0.0,0.0,0.0,0.0,0.0,0.0,0.0,0.0,0.0,0.0,0.9198,0.8773,0.0,0.0,0.0,0.0,0.0,0.0,0.0,0.0,0.4944,0.0,0.0,0.0,0.0,0.0,0.0,0.0,0.0,0.0,0.0,0.0,0.0,0.0,0.0,0.0,0.0,0.0,0.0,0.0,0.0,0.0,0.0,0.0,0.0,0.0,0.0,0.0,0.0,0.0,0.0,0.0,0.0,0.0,0.0,0.0,0.0,0.0,0.0,0.0,0.0,0.0,0.0,0.0,0.0,0.0,0.0,0.0,0.0,0.0,0.0,0.0,0.0,0.0,0.0,0.0,0.9448,0.9815,1.002,1.0014,0.9977,0.9948,0.9891,0.9448,0.9119,0.0,0.0,0.0,0.0,0.0,0.0,0.0,0.0,0.0,0.0,0.0,0.0,0.0,0.0,0.0,0.0,0.0,0.0,0.0,0.0,0.0,0.0,0.0,0.0,0.0,0.0,0.0,0.0,0.0,0.0,0.0,0.0,0.0,0.0,0.0,0.0,0.0,0.0,0.0,0.0,0.9233,0.8775,0.844,0.0,0.0,0.0,0.0,0.0,0.0,0.4416,0.3748,0.0,0.0,0.0,0.0,0.0,0.0,0.0,0.0,0.0,0.0,0.0,0.0,0.0,0.0,0.0,0.0,0.0,0.0,0.0,0.0,0.0,0.0,0.0,0.0,0.0,0.0,0.0,0.0,0.0,0.0,0.0,0.0,0.0,0.0,0.0,0.0,0.0,0.0,0.0,0.0,0.0,0.0,0.0,0.0,0.0,0.0,0.0,0.0,0.0,0.0,0.0,0.0,0.0,0.0,0.0,0.9356,1.0085,1.0332,1.0024,1.0006,1.0008,1.0003,0.9619,0.9296,0.0,0.0,0.0,0.0,0.0,0.0,0.0,0.0,0.0,0.0,0.0,0.0,0.0,0.0,0.0,0.0,0.0,0.0,0.0,0.0,0.0,0.0,0.0,0.0,0.0,0.0,0.0,0.0,0.0,0.0,0.0,0.0,0.0,0.0,0.0,0.0,0.0,0.0,0.0,0.0,0.0,0.8843,0.8488,0.7717,0.0,0.0,0.0,0.0,0.4659,0.3461,0.0,0.0,0.0,0.0,0.0,0.0,0.0,0.0,0.0,0.0,0.0,0.0,0.0,0.0,0.0,0.0,0.0,0.0,0.0,0.0,0.0,0.0,0.0,0.0,0.0,0.0,0.0,0.0,0.0,0.0,0.0,0.0,0.0,0.0,0.0,0.0,0.0,0.0,0.0,0.0,0.0,0.0,0.0,0.0,0.0,0.0,0.0,0.0,0.0,0.0,0.0,0.0,0.0,0.0,0.0,0.0,0.9321,0.9638,0.9881,0.9997,1.0008,1.0011,1.0,0.9617,0.9359,0.0,0.0,0.0,0.0,0.0,0.0,0.0,0.0,0.0,0.0,0.0,0.0,0.0,0.0,0.0,0.0,0.0,0.0,0.0,0.0,0.0,0.0,0.0,0.0,0.0,0.0,0.0,0.0,0.0,0.0,0.0,0.0,0.0,0.0,0.0,0.0,0.0,0.0,0.0,0.0,0.0,0.9086,0.8639,0.7933,0.7272,0.0,0.0,0.4354,0.3687,0.2644,0.0,0.0,0.0,0.0,0.0,0.0,0.0,0.0,0.0,0.0,0.0,0.0,0.0,0.0,0.0,0.0,0.0,0.0,0.0,0.0,0.0,0.0,0.0,0.0,0.0,0.0,0.0,0.0,0.0,0.0,0.0,0.0,0.0,0.0,0.0,0.0,0.0,0.0,0.0,0.0,0.0,0.0,0.0,0.0,0.0,0.0,0.0,0.0,0.0,0.0,0.0,0.0,0.0,0.0,0.0,1.0195,0.9412,1.0107,1.0335,1.0024,1.0045,1.0041,1.0014,0.9649,0.9348,0.0,0.0,0.0,0.0,0.0,0.0,0.0,0.0,0.0,0.0,0.0,0.0,0.0,0.0,0.0,0.0,0.0,0.0,0.0,0.0,0.0,0.0,0.0,0.0,0.0,0.0,0.0,0.0,0.0,0.0,0.0,0.0,0.0,0.0,0.0,0.0,0.0,0.0,0.0,0.0,0.0,0.0,0.93,0.8405,0.0,0.0,0.0,0.4174,0.3796,0.0,0.0,0.0,0.0,0.0,0.0,0.0,0.0,0.0,0.0,0.0,0.0,0.0,0.0,0.0,0.0,0.0,0.0,0.0,0.0,0.0,0.0,0.0,0.0,0.0,0.0,0.0,0.0,0.0,0.0,0.0,0.0,0.0,0.0,0.0,0.0,0.0,0.0,0.0,0.0,0.0,0.0,0.0,0.0,0.0,0.0,0.0,0.0,0.0,0.0,0.0,0.0,0.0,0.0,0.0,0.0,0.0,0.9464,1.0333,1.0537,1.0033,1.0075,1.0069,1.0001,0.9657,0.0,0.0,0.0,0.0,0.0,0.0,0.0,0.0,0.0,0.0,0.0,0.0,0.0,0.0,0.0,0.0,0.0,0.0,0.0,0.0,0.0,0.0,0.0,0.0,0.0,0.0,0.0,0.8325,0.0,0.0,0.0,0.0,0.0,0.0,0.0,0.0,0.0,0.0,0.0,0.0,0.0,0.0,1.017,0.9755,0.8962,0.8053,0.0,0.0,0.4228,0.3965,0.2655,0.1315,0.0,0.0,0.0,0.0,0.0,0.0,0.0,0.0,0.0,0.0,0.0,0.0,0.0,0.0,0.0,0.0,0.0,0.0,0.0,0.0,0.0,0.0,0.0,0.0,0.0,0.0,0.0,0.0,0.0,0.0,0.0,0.0,0.0,0.0,0.0,0.0,0.0,0.0,0.0,0.0,0.0,0.0,0.0,0.0,0.0,0.0,0.0,0.0,0.0,0.0,0.0,0.0,0.0,0.0,0.0,0.9517,0.9819,1.0006,1.001,1.0075,1.0071,0.9992,0.9685,0.9338,0.0,0.0,0.0,0.0,0.0,0.0,0.0,0.0,0.0,0.0,0.0,0.0,0.0,0.0,0.0,0.0,0.0,0.0,0.0,0.0,0.0,0.0,0.0,0.0,0.0,0.0,0.0,0.0,0.0,0.0,0.0,0.0,0.0,0.0,0.0,0.0,0.0,0.0,0.0,0.0,0.0,1.1177,0.9646,0.9519,0.9127,0.0,0.6138,0.4659,0.3859,0.2393,0.1118,0.0481,0.0,0.0,0.0,0.0,0.0,0.0,0.0,0.0,0.0,0.0,0.0,0.0,0.0,0.0,0.0,0.0,0.0,0.0,0.0,0.0,0.0,0.0,0.0,0.0,0.0,0.0,0.0,0.0,0.0,0.0,0.0,0.0,0.0,0.0,0.0,0.0,0.0,0.0,0.0,0.0,0.0,0.0,0.0,0.0,0.0,0.0,0.0,0.0,0.0,0.0,0.0,0.0,0.0,0.9871,0.9625,0.9818,0.9927,1.0001,1.0075,1.0071,1.0005,0.9666,0.9313,0.0,0.0,0.0,0.0,0.0,0.0,0.0,0.0,0.0,0.0,0.0,0.0,0.0,0.0,0.0,0.0,0.0,0.0,0.0,0.0,0.0,0.0,0.0,0.0,0.0,0.0,0.0,0.0,0.8094,0.8158,0.8008,0.0,0.0,0.0,0.0,0.0,0.0,0.0,0.0,0.0,0.0,1.1135,1.0258,0.9738,0.0,0.0,0.7034,0.5854,0.473,0.3495,0.2405,0.163,0.1101,0.0,0.0,0.0,0.0,0.0,0.0,0.0,0.0,0.0,0.0,0.0,0.0,0.0,0.0,0.0,0.0,0.0,0.0,0.0,0.0,0.0,0.0,0.0,0.0,0.0,0.0,0.0,0.0,0.0,0.0,0.0,0.0,0.0,0.0,0.0,0.0,0.0,0.0,0.0,0.0,0.0,0.0,0.0,0.0,0.0,0.0,0.0,0.0,0.0,0.0,0.0,0.0,0.9885,0.9734,0.9825,0.9946,1.0037,1.0075,1.0071,1.0001,0.9685,0.9269,0.0,0.0,0.0,0.0,0.0,0.0,0.0,0.0,0.0,0.0,0.0,0.0,0.0,0.0,0.0,0.0,0.0,0.0,0.0,0.0,0.0,0.0,0.0,0.0,0.0,0.0,0.0,0.0,0.7874,0.7979,0.8083,0.0,0.0,0.0,0.0,0.0,0.0,0.0,0.0,0.0,0.0,0.984,1.0533,1.0108,0.9508,0.8866,0.7921,0.6954,0.6011,0.4816,0.3699,0.2846,0.0,0.0,0.0,0.0,0.0,0.0,0.0,0.0,0.0,0.0,0.0,0.0,0.0,0.0,0.0,0.0,0.0,0.0,0.0,0.0,0.0,0.0,0.0,0.0,0.0,0.0,0.0,0.9097,0.0,0.0,0.9474,0.0,0.0,0.0,0.0,0.0,0.0,0.0,0.0,0.0,0.0,0.0,0.0,0.0,0.0,0.0,0.0,0.0,0.0,0.0,0.0,0.0,0.0,0.9868,0.98,0.986,0.9955,1.0086,1.0104,1.0069,1.0001,0.9685,0.9269,0.8824,0.0,0.0,0.0,0.0,0.0,0.0,0.0,0.0,0.0,0.0,0.0,0.0,0.0,0.0,0.0,0.0,0.0,0.0,0.0,0.0,0.0,0.0,0.0,0.0,0.0,0.0,0.7599,0.7606,0.7753,0.0,0.0,0.0,0.0,0.0,0.0,0.0,0.0,0.0,0.0,0.8803,0.7043,1.0323,1.0722,1.0481,0.9963,0.875,0.7839,0.7664,0.6182,0.4802,0.0,0.0,0.0,0.0,0.0,0.0,0.0,0.0,0.0,0.0,0.0,0.0,0.0,0.0,0.0,0.0,0.0,0.0,0.0,0.0,0.0,0.0,0.0,0.0,0.0,0.0,0.0,0.9468,0.9317,0.0,0.0,0.0,0.0,0.0,0.0,0.0,0.0,0.0,0.0,0.0,0.867,0.8465,0.0,0.0,0.0,0.0,0.0,0.0,0.0,0.0,0.0,0.0,0.0,0.0,0.9803,0.9612,0.9799,0.9946,1.0033,1.0073,1.0071,1.0005,0.9666,0.9189,0.8543,0.0,0.0,0.0,0.0,0.0,0.0,0.0,0.0,0.0,0.0,0.0,0.0,0.0,0.0,0.0,0.0,0.0,0.0,0.0,0.0,0.0,0.0,0.0,0.0,0.0,0.7538,0.0,0.0,0.0,0.0,0.0,0.0,0.0,0.0,0.0,0.0,0.0,0.1136,0.6337,0.6408,0.7114,1.0239,1.1178,1.1476,0.0,0.0,0.0,0.0,0.0,0.0,0.0,0.0,0.0,0.0,0.0,0.0,0.0,0.0,-0.6293,-0.6211,-0.6721,-0.7556,-0.8767,0.0,0.0,0.0,0.0,0.0,0.0,0.0,0.0,0.0,0.0,0.0,0.0,0.0,0.0,0.9359,0.895,0.9217,0.0,0.0,0.0,0.0,0.0,0.0,0.0,0.0,0.9914,0.9249,0.8576,0.827,0.7665,0.0,0.7344,0.7884,0.0,0.0,0.0,0.0,0.0,0.0,0.0,0.0,1.0233,0.9963,0.991,0.9967,1.0053,1.0104,1.0097,1.0024,0.9601,0.9085,0.8497,0.8123,0.7768,0.0,0.0,0.0,0.0,0.0,0.0,0.0,0.0,0.0,0.0,0.0,0.0,0.0,0.0,0.0,0.0,0.0,0.0,0.0,0.0,0.0,0.0,0.0,0.7216,0.0,0.0,0.0,0.0,0.0,0.0,0.0,0.0,0.0,0.1952,-0.135,-0.1726,0.3497,0.4453,0.6201,1.0452,0.0,0.0,0.0,0.0,0.0,0.0,0.0,0.6862,0.5614,0.3526,0.121,-0.1196,-0.3486,-0.5202,-0.5871,0.0,0.0,-0.7195,-0.7815,-0.8708,-0.9974,-1.0808,-1.1693,-1.2915,-1.3324,-1.3704,0.0,0.0,0.0,0.0,0.0,0.0,0.0,0.0,0.8848,0.867,0.0,0.8386,0.0,0.0,0.0,0.0,1.1748,1.1736,0.0,0.0,1.0362,0.9743,0.8886,0.8161,0.761,0.7243,0.7225,0.7427,0.7834,0.8548,0.0,0.0,0.0,0.0,0.0,0.0,1.1081,1.0782,1.0201,1.0005,1.019,1.0196,1.0158,1.0086,0.9469,0.8958,0.8619,0.8168,0.7695,0.7227,0.6798,0.0,0.0,0.0,0.0,0.0,0.0,0.0,0.0,0.0,0.0,0.0,0.0,0.0,0.0,0.0,0.0,0.0,0.0,0.0,0.0,0.6494,0.0,0.0,0.0,0.0,0.0,0.0,0.0,0.0,0.0,0.0,-0.1215,-0.3545,-0.2746,0.3508,0.0,0.0,0.0,0.0,1.1793,1.2033,1.1356,1.0718,1.039,0.8804,0.7324,0.6534,0.0,0.0,-0.2732,-0.4066,-0.4706,-0.5086,-0.5788,-0.6971,-0.8896,-0.9449,-1.0175,-1.1537,-1.2341,-1.3202,-1.412,-1.4308,-1.4476,0.5695,0.0,0.0,0.0,0.0,0.7632,0.8053,0.8881,0.8075,0.8065,0.8555,0.8303,0.0,0.0,0.0,0.0,0.0,0.0,1.1438,1.1308,1.0787,0.9978,0.8889,0.8489,0.8073,0.7633,0.7481,0.7457,0.7559,0.8547,0.9304,0.9846,0.0,0.0,0.0,0.0,1.1158,1.0915,1.0358,1.0072,1.0133,1.0167,1.009,0.9817,0.9581,0.9242,0.8765,0.8435,0.7993,0.7441,0.6571,0.0,0.0,0.0,0.0,0.0,0.0,0.0,0.0,0.0,0.0,0.0,0.0,0.0,0.0,0.0,0.0,0.0,0.0,0.0,0.7411,0.6854,0.6589,0.0,0.0,0.0,0.0,0.0,0.0,0.0,0.0,0.0,-0.1251,-0.3258,-0.3184,0.0,0.0,0.6954,1.1687,1.3091,1.3552,1.3182,1.2182,0.0,1.1256,0.9243,0.739,0.6538,0.336,0.0218,-0.1934,-0.3318,-0.4207,-0.4307,-0.4712,-0.5641,-0.7673,-0.9149,-1.0386,-1.1637,-1.2654,-1.3484,-1.4127,-1.4506,-1.4775,0.5791,0.6168,0.6686,0.705,0.7209,0.7002,0.7362,0.8089,0.7484,0.7554,0.8034,0.8194,0.8246,0.831,0.9235,0.0,0.0,0.0,1.2067,1.1776,1.1359,1.0438,0.9126,0.8773,0.8453,0.8115,0.7774,0.7772,0.8088,0.8853,0.9659,1.0509,0.0,0.0,1.2749,1.2088,1.1664,1.1443,1.0568,1.0097,1.0133,1.0175,1.0054,0.98,0.9692,0.94,0.8885,0.8693,0.8284,0.7651,0.6703,0.6396,0.0,0.0,0.0,0.0,0.0,0.0,0.0,0.0,0.0,0.0,0.0,0.7911,0.7673,0.0,0.0,0.0,0.7452,0.7523,0.7522,0.6864,0.0,0.0,0.0,0.0,0.0,0.0,0.0,0.0339,-0.147,-0.2045,-0.0745,-0.075,-0.0105,0.207,0.6511,1.0346,1.2454,0.0,1.4096,1.3628,1.2494,1.1599,1.1276,0.9231,0.7203,0.5719,0.342,0.1121,-0.0361,-0.1491,-0.2187,-0.2442,-0.2978,-0.4124,-0.6194,-0.8101,-0.9936,-1.1542,-1.2706,-1.3563,-1.4158,-1.4555,-1.4813,0.6154,0.6407,0.6571,0.6392,0.5994,0.6338,0.653,0.6601,0.7017,0.7099,0.7055,0.7998,0.8482,0.8669,1.037,0.0,1.3009,1.332,1.2935,1.2027,1.1957,1.1005,0.9401,0.8998,0.8754,0.8599,0.8115,0.8327,0.915,0.9368,1.0232,1.1661,1.2536,1.3335,1.402,1.3021,1.2397,1.2219,1.0835,1.0134,1.0189,1.0196,1.0111,0.9912,0.9781,0.9496,0.9049,0.8953,0.8591,0.7867,0.7111,0.6787,0.6908,0.0,0.0,0.0,0.0,0.0,0.0,0.0,0.0,0.0,0.0,0.0,0.0,0.0,0.0,0.0,0.7348,0.0,0.7458,0.6804,0.0,0.0,0.0,0.5682,0.6218,0.3846,0.1449,-0.0426,0.0,0.0,0.0257,0.3034,0.5134,0.574,1.0597,1.3857,1.3277,1.3639,1.3823,1.347,1.247,1.1498,1.0855,0.9015,0.6914,0.4798,0.3861,0.2965,0.1666,0.0987,0.0622,0.0233,-0.0993,-0.2659,-0.4652,-0.6877,-0.8985,-1.1282,-1.2573,-1.3522,-1.4156,-1.4453,-1.4592,0.7014,0.7255,0.765,0.7319,0.6565,0.636,0.6615,0.7115,0.6416,0.6939,0.8309,0.7967,0.8322,0.9225,1.0123,1.1039,1.1993,1.2879,1.2637,1.1554,1.1763,1.0977,0.9338,0.911,0.8928,0.8745,0.8575,0.8939,0.9773,1.0087,1.0929,1.2269,1.3015,1.3669,1.42,1.3465,1.2904,1.2588,1.0992,1.0189,1.0193,1.0194,1.0111,0.9899,0.9875,0.9656,0.9248,0.9216,0.8886,0.8222,0.7809,0.7455,0.7137,0.6638,0.0,0.0,0.0,0.0,0.0,0.0,0.0,0.0,0.0,0.7657,0.7687,0.0,0.7947,0.0,0.7894,0.8063,0.8145,0.7816,0.0,0.0,0.6583,0.5571,0.4479,0.3069,0.1571,-0.0,-0.0445,0.0356,0.3027,0.5234,0.7475,0.997,1.2352,1.3892,1.3935,1.417,1.3998,1.3055,1.2287,1.1624,1.0771,0.8909,0.6847,0.5196,0.4165,0.339,0.3019,0.2536,0.2152,0.1921,-0.0133,-0.2471,-0.4587,-0.6606,-0.8458,-1.0278,-1.2038,-1.3436,-1.3921,-1.4122,-1.4226,0.7717,0.8295,0.8342,0.8292,0.8181,0.7511,0.7466,0.7846,0.7384,0.7778,0.8725,0.8331,0.867,0.9597,1.009,1.0901,1.1984,1.2734,1.2687,1.2049,1.1856,1.1084,0.9835,0.9325,0.9015,0.8855,0.9072,0.9587,1.0343,1.0897,1.1686,1.2734,1.3365,1.3864,1.4179,1.355,1.3204,1.3172,1.16,1.059,1.0204,1.0195,1.0101,0.9899,0.9883,0.9701,0.9312,0.9281,0.9011,0.8489,0.8067,0.7731,0.7472,0.6858,0.648,0.0,0.0,0.0,0.0,0.0,0.0,0.0,0.0,0.0,0.0,0.0,0.7933,0.8037,0.8368,0.8683,0.8914,0.8777,0.8636,0.8598,0.7845,0.6782,0.5521,0.446,0.3655,0.3161,0.27,0.3248,0.5585,0.7517,0.953,1.1941,1.3244,1.4029,1.4157,1.413,1.3763,1.295,1.1944,1.087,0.9834,0.8314,0.6836,0.5705,0.4876,0.4284,0.3881,0.3395,0.3052,0.2805,0.0794,-0.16,-0.3541,-0.5816,-0.7871,-0.9598,-1.1242,-1.2501,-1.3117,-1.334,-1.3434,0.829,0.9257,0.8803,0.9226,1.0116,0.9256,0.8803,0.8706,0.8995,0.9101,0.9021,0.9065,0.9395,0.9945,1.0319,1.1174,1.2366,1.2803,1.2956,1.2881,1.2133,1.1349,1.0616,0.9769,0.9297,0.9228,0.9735,1.033,1.0995,1.1709,1.2398,1.3054,1.3615,1.397,1.4082,1.356,1.351,1.3946,1.2342,1.1126,1.0365,1.025,1.0078,0.9875,0.9863,0.9673,0.9294,0.9221,0.9045,0.8716,0.8166,0.7851,0.7824,0.7254,0.6697,0.0,0.5762,0.0,0.0,0.0,0.0,0.0,0.0,0.0,0.0,0.7286,0.7778,0.8477,0.8796,0.9129,0.957,0.9675,0.9741,0.984,0.9249,0.8576,0.7861,0.6945,0.6568,0.7209,0.6677,0.6723,0.7973,0.9698,1.1296,1.2585,1.3524,1.4087,1.4109,1.3776,1.3312,1.2937,1.1384,0.9778,0.8515,0.7621,0.6812,0.5957,0.544,0.5114,0.424,0.3761,0.3435,0.3141,0.1523,-0.0425,-0.2115,-0.4636,-0.705,-0.8914,-1.0057,-1.102,-1.1979,-1.2335,-1.2397,0.8682,0.9358,0.9281,0.9984,1.1202,1.1016,1.0472,0.9721,0.9844,1.021,1.0719,1.0574,1.0581,1.0712,1.1216,1.1677,1.2199,1.3008,1.3093,1.2576,1.2565,1.2147,1.1391,1.0929,1.077,1.0844,1.0852,1.1242,1.2024,1.2166,1.2666,1.3481,1.376,1.4011,1.4178,0.0,0.0,0.0,1.2662,1.1371,1.1077,1.0458,0.9982,0.9675,0.966,0.0,0.9168,0.9183,0.9083,0.8849,0.8383,0.0,0.0,0.0,0.0,0.0,0.0,0.0,0.0,0.0,0.0,0.0,0.403,0.4423,0.5427,0.6389,0.7296,0.814,0.9155,0.9781,0.9781,1.0394,1.0817,1.0811,1.0129,0.9609,0.9454,0.8984,0.8719,0.8829,0.8995,0.9414,1.024,1.1201,1.2097,1.3013,1.3583,1.3878,1.3955,1.3515,1.2935,1.214,1.0458,0.8943,0.8124,0.7378,0.6589,0.5698,0.5165,0.4685,0.4043,0.3665,0.3466,0.3319,0.1896,0.0132,-0.1665,-0.358,-0.558,-0.7635,-0.8136,-0.878,-1.0868,-1.1344,-1.1292,0.892,0.9495,0.9432,1.0208,0.0,1.1504,1.1415,1.127,1.1054,1.1045,1.1183,1.0975,1.0977,1.1111,1.1387,1.1814,1.2368,1.2839,1.3049,1.3037,1.2704,1.2373,1.2021,1.1404,1.1143,1.1215,1.1522,1.1891,1.2305,1.2652,1.3072,1.3518,1.3777,1.3938,1.406,1.4414,1.4756,1.5046,1.3395,1.2307,1.1811,1.1288,1.077,1.0229,1.0458,0.0,0.0,0.0,0.0,0.0,0.0,0.0,0.0,0.0,0.0,0.6587,0.6112,0.5566,0.4943,0.4648,0.4329,0.3939,0.3577,0.3908,0.5161,0.6267,0.7334,0.8403,0.9569,1.0351,1.0639,1.1368,1.19,1.1956,1.162,1.1411,1.1495,1.1346,1.1201,1.1106,1.1235,1.1512,1.1736,1.2176,1.2679,1.3225,1.3521,1.3751,1.3815,1.3381,1.2563,1.1191,0.997,0.8807,0.8016,0.7316,0.6719,0.613,0.5451,0.4981,0.4812,0.4252,0.3781,0.357,0.2391,0.0791,-0.094,-0.2726,-0.4571,-0.6336,-0.717,-0.7592,-0.8665,-0.9008,-0.9306,0.9222,0.966,0.9555,1.0342,1.1646,1.1646,1.2032,1.263,1.2103,0.0,0.0,1.1143,1.121,1.1453,1.152,1.195,1.2668,1.2727,1.3082,1.3551,1.287,1.2594,1.265,1.1875,1.1525,1.1527,1.217,1.2491,1.2517,1.3141,1.3437,1.351,1.3792,1.3983,1.4038,1.4435,1.4727,1.4793,1.4012,1.3244,1.2534,1.2037,1.1459,1.0765,1.1014,1.0837,1.0204,1.0758,1.0792,1.0212,0.9779,0.9267,0.8623,0.7986,0.7432,0.6979,0.6528,0.5965,0.5288,0.5073,0.4796,0.4344,0.411,0.4462,0.5606,0.6412,0.7399,0.8669,0.9865,1.0846,1.1454,1.2188,1.2702,1.2958,1.2947,1.2978,1.3168,1.3244,1.3041,1.3021,1.2899,1.2923,1.2746,1.2916,1.3125,1.3303,1.3438,1.358,1.3632,1.3154,1.2068,1.0266,0.9428,0.8841,0.795,0.7255,0.6856,0.6505,0.5804,0.5392,0.5471,0.4969,0.4396,0.4133,0.2938,0.1478,-0.0065,-0.1615,-0.3375,-0.4962,-0.5712,-0.6028,-0.5603,-0.5694,-0.6286,0.9862,0.995,0.9928,1.0801,1.2194,1.2186,1.2465,1.2889,1.2368,1.2105,1.2037,1.179,1.1833,1.2079,1.23,1.261,1.2952,1.3312,1.3514,1.3593,1.3458,1.3439,1.3428,1.3189,1.3074,1.3091,1.3193,1.3252,1.3277,1.3449,1.3656,1.3827,1.4047,1.4236,1.4408,1.4499,1.4545,1.4539,1.3943,1.3509,1.3308,1.1781,1.0831,1.0527,0.9873,0.9637,1.0025,1.0144,1.0416,1.0884,1.0192,0.9621,0.9328,0.8329,0.7584,0.718,0.6766,0.6294,0.5747,0.5929,0.6046,0.601,0.6377,0.6673,0.6669,0.6513,0.6924,0.8213,0.992,1.1111,1.1578,1.2196,1.2801,1.321,1.3131,1.3086,1.3346,1.3388,1.3362,1.3312,1.332,1.3303,1.3252,1.3303,1.3337,1.3379,1.3379,1.3362,1.3109,1.2653,1.146,0.9746,0.9034,0.8512,0.7804,0.7162,0.6696,0.6046,0.5895,0.5598,0.5237,0.5103,0.4909,0.4578,0.3529,0.2251,0.0943,0.0098,-0.0937,-0.2047,-0.1907,-0.1465,-0.173,-0.1245,-0.1907,1.0597,1.0603,1.0607,1.1257,1.2331,1.2711,1.3017,1.3174,1.2805,1.2541,1.2416,1.2296,1.2296,1.2416,1.2553,1.2732,1.3005,1.3184,1.3354,1.3486,1.3493,1.3486,1.3486,1.3429,1.3396,1.3396,1.3396,1.3396,1.3404,1.3479,1.3526,1.3636,1.3885,1.4197,1.4476,1.4497,1.4497,1.4499,1.4232,1.4078,1.4027,1.302,1.2077,1.1198,1.1278,1.1144,1.0632,1.1395,1.1815,1.1756,1.0895,1.0127,0.9511,0.8532,0.7803,0.7447,0.7239,0.6921,0.6431,0.6266,0.6682,0.7715,0.8026,0.8149,0.8098,0.782,0.811,0.919,1.043,1.1412,1.2065,1.2535,1.2972,1.3311,1.333,1.3361,1.3449,1.361,1.3636,1.3517,1.3509,1.3478,1.3396,1.3396,1.3396,1.3405,1.3294,1.3049,1.2646,1.2375,1.1745,1.0504,0.99,0.9211,0.8227,0.7606,0.7052,0.6453,0.6107,0.5905,0.5656,0.5701,0.5387,0.5028,0.4423,0.3618,0.2429,0.2012,0.1573,0.1259,0.1073,0.1549,0.252,0.3135,0.1601,1.1385,1.1371,1.1374,1.1823,1.2576,1.3159,1.3396,1.3379,1.3182,1.297,1.2781,1.2668,1.263,1.2687,1.2695,1.2834,1.3051,1.3085,1.3208,1.3379,1.3396,1.3396,1.3396,1.3396,1.3396,1.3388,1.3413,1.3454,1.3462,1.3527,1.3615,1.366,1.3894,1.4188,1.4497,1.4497,1.4497,1.4497,1.4497,1.4467,1.442,1.3917,1.3081,1.204,1.2493,1.2415,1.15,1.2526,1.2957,1.2534,1.1701,1.0793,0.9849,0.8936,0.8203,0.7768,0.7766,0.7755,0.761,0.7294,0.7795,0.9357,0.9577,0.9646,0.9592,0.9528,0.9654,1.0199,1.0809,1.158,1.2391,1.2694,1.2965,1.3288,1.3388,1.3443,1.3486,1.3659,1.3732,1.357,1.3547,1.3509,1.3421,1.3413,1.3446,1.3412,1.3148,1.2749,1.2372,1.2202,1.1854,1.1303,1.0705,0.9786,0.8677,0.8065,0.7492,0.6874,0.6362,0.6157,0.6211,0.6095,0.5945,0.5609,0.5549,0.5082,0.4148,0.4124,0.4215,0.4149,0.4238,0.4706,0.6073,0.6063,0.4998,1.2204,1.2197,1.218,1.261,1.3252,1.3371,1.3396,1.3396,1.3363,1.3354,1.326,1.2826,1.2767,1.2942,1.2961,1.3095,1.3346,1.3363,1.3363,1.3405,1.3396,1.3396,1.3404,1.3396,1.3396,1.3413,1.3508,1.3563,1.3595,1.3934,1.4202,1.4375,1.4432,1.4468,1.4506,1.4506,1.4497,1.4497,1.4497,1.4417,1.419,1.3359,1.2736,1.2442,1.171,1.1605,1.2099,1.2336,1.2677,1.3185,1.2552,1.1741,1.0818,0.988,0.897,0.8149,0.8307,0.8766,0.9592,0.9953,1.0186,1.0689,1.1166,1.1329,1.1092,1.1329,1.1101,1.0633,1.0913,1.1689,1.2451,1.2437,1.2665,1.3248,1.3206,1.3139,1.3346,1.3429,1.3438,1.3421,1.3429,1.3396,1.3404,1.3486,1.3556,1.3492,1.311,1.2766,1.2609,1.232,1.1933,1.1358,1.064,0.9689,0.8668,0.8136,0.7603,0.6792,0.6478,0.6326,0.6209,0.6283,0.6407,0.6166,0.6275,0.606,0.6106,0.6331,0.6757,0.7016,0.7438,0.8188,0.806,0.7727,0.6903,1.2956,1.2973,1.2956,1.3117,1.3379,1.3396,1.3396,1.3396,1.3396,1.3396,1.3379,1.3157,1.3122,1.3226,1.3234,1.3311,1.3405,1.3396,1.3396,1.3396,1.3396,1.3404,1.3408,1.35,1.3539,1.358,1.3574,1.361,1.3704,1.4125,1.4698,1.5208,1.4911,1.477,1.4909,1.4543,1.4387,1.4497,1.4497,1.4341,1.4025,1.3654,1.3138,1.2575,1.2462,1.237,1.2348,1.269,1.31,1.3337,1.271,1.2075,1.1559,1.0627,0.9874,0.939,0.9344,0.9677,1.0407,1.0509,1.077,1.1386,1.1652,1.1792,1.1833,1.1959,1.1888,1.1729,1.1754,1.2062,1.2536,1.2648,1.2799,1.3101,1.3202,1.3208,1.3156,1.3311,1.3396,1.3396,1.3396,1.3396,1.3404,1.3446,1.3412,1.3328,1.3138,1.3127,1.2992,1.2955,1.275,1.217,1.1351,1.0309,0.9143,0.8476,0.781,0.7084,0.6631,0.6397,0.6327,0.6126,0.6213,0.6457,0.6536,0.6743,0.6999,0.7577,0.8162,0.9061,1.0146,1.0702,1.0003,0.9596,0.9222,1.3396,1.3396,1.3396,1.3396,1.3396,1.3396,1.3523,1.3659,1.3498,1.3506,1.3693,1.3506,1.3396,1.3396,1.3396,1.3396,1.3396,1.3396,1.3396,1.3396,1.3396,1.3396,1.341,1.3714,1.4043,1.4293,1.4136,1.4051,1.4232,1.4759,1.5401,1.5897,1.5462,1.5349,1.5558,1.5053,1.4935,1.5154,1.5166,1.4861,1.4339,1.4229,1.3751,1.2887,1.3175,1.3143,1.2657,1.3126,1.3396,1.3379,1.2872,1.2427,1.2072,1.1262,1.066,1.0401,1.0224,1.0413,1.1022,1.0931,1.1123,1.1731,1.2015,1.229,1.2495,1.2753,1.2978,1.3151,1.3087,1.3055,1.2717,1.2994,1.3146,1.3143,1.3295,1.3295,1.3156,1.3286,1.3396,1.3396,1.3396,1.3421,1.3437,1.3438,1.3413,1.3588,1.3578,1.3683,1.3564,1.3606,1.3343,1.2775,1.1918,1.0858,0.9625,0.8751,0.801,0.7207,0.6635,0.646,0.6383,0.6048,0.6156,0.6609,0.6665,0.728,0.8256,0.8877,1.0,1.1393,1.2238,1.2407,1.1762,1.1391,1.1155,1.3396,1.3396,1.3396,1.3396,1.3396,1.3396,1.3794,1.4344,1.376,1.3811,1.4327,1.3692,1.3405,1.343,1.343,1.3396,1.3396,1.3396,1.343,1.3464,1.3464,1.3404,1.3453,1.4118,1.5046,1.5929,1.5282,1.5172,1.5582,1.6102,1.6429,1.6469,1.6226,1.6232,1.6362,1.6261,1.6483,1.6547,1.6566,1.6177,1.5199,1.5032,1.4506,1.3573,1.3379,1.3371,1.3329,1.3379,1.3396,1.3396,1.3328,1.3024,1.2351,1.1843,1.1309,1.0882,1.0772,1.1036,1.161,1.1679,1.1746,1.1931,1.264,1.3229,1.3326,1.4001,1.4479,1.4675,1.4792,1.4427,1.3337,1.3402,1.3495,1.3387,1.3379,1.3354,1.3346,1.3346,1.3396,1.3388,1.3447,1.3557,1.3616,1.3478,1.3931,1.4296,1.4101,1.3863,1.4286,1.3858,1.3304,1.2802,1.2062,1.1067,0.9838,0.8885,0.7891,0.7163,0.6819,0.6416,0.6114,0.5971,0.6399,0.6881,0.7363,0.8199,0.9498,1.0899,1.2397,1.3366,1.3486,1.346,1.3291,1.302,1.2688,1.3396,1.3396,1.3396,1.3396,1.3396,1.3396,1.3828,1.4504,1.4723,1.4935,1.4942,1.3947,1.3654,1.409,1.3591,1.3396,1.3396,1.3396,1.3659,1.4048,1.4098,1.3852,1.3582,1.4917,1.639,1.7395,1.6574,1.6226,1.6576,1.68,1.7051,1.7184,1.6794,1.6611,1.6701,1.6343,1.6225,1.6431,1.6447,1.6167,1.5687,1.561,1.5332,1.4812,1.3887,1.3396,1.3396,1.3478,1.3486,1.3413,1.3478,1.3366,1.3008,1.2523,1.2083,1.1726,1.1529,1.1543,1.1767,1.1819,1.1992,1.2441,1.2945,1.3589,1.4153,1.472,1.513,1.5342,1.5649,1.5329,1.459,1.4131,1.3823,1.3557,1.3278,1.3069,1.3007,1.3191,1.3346,1.3284,1.3646,1.4134,1.4228,1.4533,1.4931,1.5195,1.5089,1.4947,1.4825,1.4569,1.413,1.3496,1.2706,1.1777,1.0755,0.9291,0.8181,0.7597,0.7132,0.672,0.6349,0.6413,0.6759,0.726,0.7854,0.8937,1.0175,1.1945,1.3613,1.459,1.4738,1.4703,1.4844,1.4428,1.4012,1.3396,1.3396,1.3396,1.3396,1.3396,1.3396,1.3954,1.4853,1.5385,1.5735,1.5742,1.5119,1.4758,1.4462,1.3997,1.3616,1.3413,1.3405,1.3794,1.4444,1.4486,1.4351,1.4404,1.5713,1.7205,1.8272,1.7606,1.717,1.7208,1.7374,1.7616,1.7855,1.7335,1.7181,1.7271,1.6887,1.6742,1.6941,1.6985,1.679,1.6369,1.6282,1.605,1.5541,1.4633,1.4108,1.4116,1.4187,1.4067,1.382,1.3837,1.3709,1.3294,1.2836,1.2475,1.2218,1.194,1.1819,1.1819,1.1819,1.2021,1.2591,1.3363,1.412,1.4812,1.5578,1.6082,1.6345,1.652,1.6417,1.5687,1.4867,1.4151,1.365,1.3157,1.2805,1.2665,1.3121,1.3495,1.3795,1.4147,1.4535,1.4876,1.5282,1.5637,1.5883,1.5851,1.5605,1.5593,1.5124,1.4756,1.4129,1.3298,1.2471,1.1553,1.0322,0.8713,0.7974,0.7443,0.6993,0.672,0.6815,0.7135,0.7654,0.8514,0.9648,1.1107,1.2852,1.4179,1.5329,1.569,1.5633,1.5697,1.5756,1.4988,1.3396,1.3379,1.3388,1.3379,1.3363,1.3405,1.4235,1.5301,1.5557,1.5966,1.6537,1.7256,1.6302,1.4881,1.4462,1.4073,1.3599,1.3532,1.3921,1.4553,1.4606,1.4994,1.5645,1.6414,1.741,1.8551,1.83,1.7897,1.7486,1.7875,1.8115,1.8116,1.7854,1.7777,1.8132,1.7976,1.8161,1.8268,1.8266,1.7944,1.7228,1.7058,1.6652,1.5872,1.5637,1.5604,1.5595,1.5539,1.516,1.4606,1.4531,1.4032,1.3322,1.2915,1.255,1.2319,1.2008,1.1856,1.1812,1.1871,1.2041,1.2634,1.386,1.4915,1.5515,1.6681,1.7524,1.7468,1.7535,1.7381,1.6603,1.5507,1.4449,1.3701,1.3027,1.2608,1.2736,1.3207,1.3959,1.4656,1.4805,1.4864,1.5384,1.5798,1.612,1.6429,1.6199,1.5887,1.6067,1.5338,1.4665,1.4312,1.3815,1.3116,1.2279,1.1344,0.9707,0.8295,0.778,0.7315,0.7,0.7006,0.7413,0.7961,0.8959,1.0104,1.1828,1.349,1.4435,1.5425,1.5843,1.6223,1.6156,1.5947,1.5359,1.3358,1.3137,1.3129,1.3104,1.3164,1.332,1.3971,1.4878,1.536,1.6017,1.6748,1.7466,1.6859,1.5433,1.4766,1.4376,1.4166,1.4183,1.4555,1.5155,1.5248,1.5925,1.6968,1.7495,1.8043,1.8493,1.8538,1.8305,1.8023,1.8116,1.8133,1.7927,1.7856,1.7856,1.7919,1.7927,1.7971,1.8039,1.8044,1.7873,1.7594,1.7565,1.7407,1.716,1.7117,1.7117,1.7067,1.6285,1.5665,1.5257,1.54,1.5143,1.4504,1.3961,1.3463,1.2926,1.2629,1.2246,1.1917,1.2261,1.2826,1.3635,1.4772,1.581,1.6538,1.7308,1.7681,1.7519,1.746,1.7191,1.6487,1.5702,1.4776,1.382,1.2892,1.2519,1.2867,1.3503,1.4177,1.4726,1.5286,1.5739,1.609,1.646,1.6936,1.6992,1.6673,1.6362,1.5652,1.5323,1.4654,1.4166,1.392,1.3716,1.2911,1.2206,1.1064,0.9556,0.8675,0.7923,0.7544,0.7429,0.7808,0.8498,0.9459,1.0677,1.2476,1.3603,1.4367,1.5235,1.5728,1.5991,1.6196,1.5817,1.5121,1.3856,1.3388,1.3518,1.3389,1.3223,1.3598,1.4234,1.4805,1.4779,1.5491,1.6643,1.747,1.6998,1.5795,1.5375,1.5164,1.4936,1.4919,1.5308,1.5917,1.6021,1.6693,1.7702,1.795,1.8133,1.827,1.831,1.8217,1.807,1.8057,1.7962,1.7833,1.7789,1.7789,1.7789,1.7789,1.7789,1.7789,1.7811,1.7789,1.7766,1.7689,1.762,1.7614,1.7612,1.7595,1.7543,1.6948,1.6405,1.6041,1.579,1.5385,1.4916,1.4428,1.3899,1.3305,1.2916,1.2501,1.1991,1.2546,1.3282,1.4121,1.5236,1.6249,1.7005,1.7468,1.7681,1.7527,1.7379,1.7097,1.6508,1.5731,1.4992,1.4248,1.3381,1.3058,1.347,1.3916,1.4558,1.5129,1.5695,1.6133,1.6678,1.691,1.7424,1.7238,1.6904,1.6483,1.5608,1.5279,1.4772,1.436,1.4161,1.3861,1.347,1.2895,1.2301,1.1029,0.9757,0.8897,0.827,0.825,0.8496,0.9226,1.0146,1.0756,1.2289,1.2809,1.3499,1.4443,1.5257,1.5286,1.5228,1.522,1.4567,1.4594,1.403,1.4253,1.3925,1.3539,1.4139,1.4834,1.528,1.4304,1.4858,1.6484,1.7177,1.683,1.595,1.6162,1.6174,1.5756,1.5663,1.606,1.6597,1.68,1.7181,1.7732,1.7839,1.7869,1.7878,1.7869,1.7833,1.7847,1.7856,1.7803,1.7789,1.7789,1.7789,1.7789,1.7789,1.7758,1.7726,1.7735,1.7735,1.7666,1.744,1.7272,1.7273,1.7297,1.7272,1.7263,1.7405,1.7316,1.6703,1.5869,1.5279,1.4796,1.4451,1.4089,1.3482,1.3067,1.2711,1.2349,1.3045,1.3692,1.4167,1.5487,1.6462,1.6913,1.7401,1.7666,1.7574,1.732,1.7022,1.6567,1.5929,1.523,1.4811,1.4082,1.4001,1.4607,1.4476,1.485,1.5755,1.5977,1.6072,1.6955,1.6919,1.7002,1.6986,1.6642,1.6273,1.5844,1.5352,1.5143,1.4805,1.441,1.4232,1.3907,1.3422,1.2822,1.1902,1.0734,0.9906,0.9071,0.898,0.9063,0.9869,1.0425,1.1083,1.1667,1.217,1.2732,1.3493,1.396,1.4113,1.4076,1.3945,1.3246,1.386,1.3398,1.3194,1.3314,1.3674,1.4253,1.4936,1.5508,1.5226,1.5394,1.5956,1.6076,1.6055,1.5714,1.6373,1.658,1.6432,1.6407,1.6805,1.743,1.7498,1.7583,1.7755,1.7789,1.7789,1.7789,1.7789,1.7789,1.7789,1.7789,1.7789,1.7789,1.7789,1.7789,1.7789,1.778,1.7658,1.7471,1.7447,1.7304,1.7093,1.7018,1.6917,1.6949,1.6925,1.6934,1.6968,1.7248,1.7365,1.7166,1.6678,1.6213,1.5785,1.5461,1.4989,1.4422,1.4245,1.3956,1.3594,1.4157,1.4845,1.5285,1.6196,1.7171,1.7462,1.7447,1.7328,1.7093,1.6755,1.6449,1.6123,1.5796,1.5448,1.505,1.4393,1.4206,1.4681,1.4872,1.5182,1.5772,1.6011,1.6283,1.652,1.6693,1.672,1.6602,1.6391,1.603,1.5606,1.5573,1.5432,1.4984,1.463,1.4561,1.436,1.3881,1.3272,1.2549,1.167,1.0913,1.0099,0.9549,0.9734,1.0142,1.0273,1.0802,1.1159,1.1608,1.2135,1.2476,1.2554,1.2617,1.2433,1.2234,1.1311,1.4276,1.4,1.364,1.3719,1.4157,1.4895,1.547,1.5888,1.6349,1.6323,1.607,1.5695,1.577,1.6116,1.6698,1.6951,1.6942,1.6959,1.7185,1.7503,1.7701,1.7772,1.7789,1.7789,1.7789,1.7789,1.7789,1.7789,1.7789,1.7789,1.7789,1.7789,1.7789,1.7735,1.7581,1.7572,1.7424,1.7159,1.7101,1.6976,1.6817,1.6657,1.6606,1.6595,1.6591,1.6625,1.6815,1.7066,1.7191,1.7068,1.6884,1.6581,1.6136,1.5898,1.5491,1.4884,1.4809,1.4476,1.413,1.473,1.5349,1.5716,1.6515,1.715,1.7378,1.724,1.6935,1.6652,1.6423,1.6119,1.5753,1.5454,1.5163,1.4808,1.4349,1.4287,1.4854,1.5206,1.5477,1.577,1.5962,1.6163,1.6274,1.6375,1.6355,1.6293,1.6208,1.5785,1.5389,1.5602,1.5624,1.5145,1.4722,1.4561,1.4271,1.3828,1.3365,1.2673,1.2168,1.1494,1.0608,0.9928,1.0108,1.0239,1.0283,1.0351,1.0634,1.0799,1.0881,1.1079,1.1094,1.0987,1.0817,1.0427,0.9484,1.5193,1.5139,1.4782,1.466,1.4804,1.5704,1.6102,1.6433,1.7229,1.7238,1.6592,1.6047,1.6201,1.6678,1.6997,1.7255,1.7223,1.7205,1.7317,1.7447,1.7557,1.762,1.7673,1.7758,1.7789,1.7789,1.7789,1.7789,1.7789,1.7789,1.7789,1.7766,1.7758,1.7581,1.74,1.7296,1.706,1.6799,1.6755,1.6699,1.6576,1.6367,1.6268,1.6241,1.624,1.6409,1.6657,1.6877,1.6935,1.6738,1.6746,1.6429,1.5913,1.5799,1.5551,1.5132,1.4997,1.4722,1.4333,1.5033,1.5456,1.5676,1.6358,1.6863,1.7022,1.6881,1.6622,1.6305,1.6233,1.5856,1.5414,1.4839,1.4532,1.439,1.4099,1.4305,1.4845,1.5381,1.5704,1.5814,1.5799,1.5955,1.606,1.6032,1.5934,1.6123,1.5981,1.5701,1.5484,1.5608,1.5558,1.5308,1.4887,1.4487,1.4117,1.3702,1.3269,1.2726,1.2318,1.1641,1.0517,1.0036,1.0254,1.0312,0.9922,0.9765,0.9913,0.9933,0.9831,0.9559,0.952,0.9339,0.9099,0.8606,0.7849,1.489,1.4856,1.4461,1.4638,1.518,1.5639,1.6152,1.6717,1.7451,1.719,1.6611,1.6973,1.6853,1.6367,1.6951,1.7167,1.696,1.7159,1.7424,1.7635,1.7167,1.7216,1.7415,1.7641,1.7758,1.7766,1.7789,1.7789,1.7789,1.7789,1.7789,1.7766,1.7581,1.7368,1.7272,1.7002,1.673,1.6474,1.6386,1.6289,1.6113,1.6013,1.5943,1.5902,1.5879,1.6067,1.6336,1.6483,1.6518,1.6452,1.6417,1.6234,1.5892,1.5814,1.5672,1.5524,1.5508,1.5448,1.5431,1.5626,1.6062,1.5964,1.6257,1.6805,1.6813,1.6509,1.6169,1.5814,1.5534,1.5223,1.4739,1.431,1.4007,1.3911,1.3929,1.3952,1.4196,1.4571,1.5127,1.5588,1.5806,1.5827,1.5913,1.5913,1.5863,1.5913,1.5782,1.5615,1.555,1.5528,1.5345,1.5098,1.4748,1.431,1.4026,1.3597,1.3121,1.2698,1.2305,1.161,1.0489,0.992,1.0021,0.975,0.9252,0.9248,0.9399,0.8981,0.884,0.8419,0.8034,0.7892,0.7676,0.703,0.6681,1.5217,1.5422,1.4947,1.5037,1.5545,1.5863,1.6208,1.6586,1.695,1.6914,1.6621,1.701,1.6889,1.6508,1.6716,1.6696,1.6693,1.6909,1.7256,1.7455,1.7304,1.7304,1.7272,1.7447,1.7557,1.7581,1.7735,1.7789,1.7789,1.7814,1.7789,1.7766,1.7489,1.7232,1.7052,1.6746,1.6402,1.6136,1.606,1.5991,1.5835,1.5814,1.5646,1.5507,1.541,1.544,1.5441,1.5925,1.5931,1.5885,1.5983,1.6034,1.5856,1.5777,1.5704,1.5514,1.5485,1.5352,1.5314,1.5327,1.5417,1.5463,1.5636,1.5767,1.5803,1.5617,1.5301,1.4992,1.4783,1.459,1.3913,1.3193,1.3048,1.3267,1.3469,1.368,1.3921,1.4406,1.4907,1.5426,1.5639,1.577,1.5814,1.5748,1.558,1.5536,1.5441,1.5271,1.4975,1.4943,1.489,1.4693,1.4406,1.4104,1.3861,1.35,1.3004,1.2557,1.2157,1.1317,1.0239,0.9876,0.9704,0.9301,0.8934,0.885,0.8873,0.8419,0.796,0.7615,0.7266,0.6825,0.6584,0.654,0.6218,1.5774,1.6254,1.5673,1.5595,1.5803,1.6093,1.6188,1.6215,1.6336,1.6559,1.6664,1.6519,1.6653,1.6612,1.6459,1.6328,1.6382,1.6509,1.6807,1.732,1.7304,1.7256,1.7199,1.7207,1.7183,1.7224,1.7702,1.787,1.7848,1.7983,1.8264,1.8031,1.765,1.7552,1.717,1.6589,1.6317,1.6104,1.5939,1.5863,1.577,1.5712,1.5418,1.5095,1.4808,1.4735,1.4801,1.517,1.5419,1.5088,1.5514,1.5705,1.5704,1.5668,1.5544,1.5142,1.5102,1.4842,1.4557,1.4452,1.444,1.4322,1.441,1.4529,1.4679,1.4718,1.453,1.428,1.4078,1.3755,1.2984,1.2419,1.2224,1.2476,1.2935,1.3332,1.3773,1.4451,1.4773,1.5165,1.5514,1.5748,1.5675,1.5544,1.5322,1.5127,1.5029,1.4885,1.4561,1.4422,1.4431,1.439,1.4169,1.4112,1.3945,1.3456,1.2968,1.2642,1.2213,1.1288,1.034,1.0219,0.9944,0.9077,0.8728,0.8713,0.8471,0.8017,0.7554,0.7004,0.6709,0.6489,0.6304,0.6171,0.5935,1.62,1.6293,1.6185,1.6016,1.5812,1.5848,1.5913,1.5926,1.618,1.6324,1.6402,1.6594,1.6549,1.6413,1.6348,1.6301,1.6219,1.6246,1.6493,1.7019,1.6952,1.673,1.6884,1.7004,1.6835,1.6879,1.7619,1.8156,1.8095,1.8631,1.8828,1.8903,1.8335,1.8069,1.7953,1.7367,1.6578,1.6361,1.6032,1.5821,1.5748,1.5396,1.5036,1.4596,1.42,1.4096,1.4383,1.4557,1.4674,1.47,1.5352,1.5482,1.532,1.5232,1.5127,1.502,1.4697,1.4293,1.392,1.3854,1.3642,1.3471,1.3585,1.3854,1.4018,1.4154,1.3965,1.3697,1.3146,1.262,1.2089,1.1735,1.1937,1.2262,1.2524,1.2754,1.3196,1.3854,1.4464,1.4955,1.539,1.5617,1.5381,1.5113,1.4786,1.4491,1.4288,1.4205,1.3985,1.3978,1.409,1.4058,1.3973,1.402,1.4033,1.3507,1.3023,1.2808,1.2355,1.166,1.0942,1.0752,1.0292,0.9471,0.8931,0.8768,0.8369,0.7861,0.7402,0.7063,0.6647,0.6276,0.6511,0.6771,0.653,1.6301,1.6301,1.6301,1.6123,1.5827,1.5814,1.5814,1.5835,1.5983,1.6039,1.6088,1.6191,1.6199,1.606,1.6032,1.6039,1.6011,1.6116,1.6348,1.6678,1.6625,1.6509,1.668,1.6881,1.6817,1.7065,1.8037,1.8479,1.7944,1.8619,1.9099,1.8928,1.8451,1.8322,1.8266,1.7471,1.69,1.6652,1.6151,1.5792,1.5734,1.5193,1.4648,1.4136,1.3477,1.3181,1.3408,1.3749,1.3788,1.3848,1.4206,1.4516,1.4686,1.4634,1.4589,1.4634,1.4169,1.3608,1.3144,1.2955,1.2597,1.246,1.2665,1.2891,1.3042,1.3076,1.311,1.2747,1.2246,1.161,1.1287,1.1044,1.1017,1.1342,1.1795,1.2279,1.277,1.3785,1.4386,1.4781,1.4999,1.5022,1.4838,1.453,1.4224,1.392,1.3617,1.3469,1.3378,1.3321,1.3389,1.3444,1.3367,1.3623,1.3694,1.3418,1.2839,1.2637,1.2541,1.184,1.1478,1.1259,1.0727,0.9973,0.9518,0.9542,0.879,0.845,0.7801,0.7307,0.7311,0.731,0.7341,0.7303,0.7348,1.6301,1.6301,1.6301,1.6116,1.5835,1.5814,1.5814,1.5814,1.5814,1.5835,1.5814,1.5835,1.5835,1.5806,1.5835,1.5835,1.5827,1.6095,1.6303,1.6655,1.6819,1.6784,1.6923,1.7103,1.7318,1.7264,1.828,1.8812,1.8396,1.89,1.9096,1.9146,1.8741,1.8546,1.8546,1.7971,1.7329,1.678,1.6137,1.5794,1.5541,1.518,1.4517,1.3991,1.3032,1.2722,1.292,1.2525,1.2875,1.3063,1.3349,1.3596,1.4178,1.4084,1.4058,1.4181,1.3577,1.2979,1.2437,1.2134,1.1875,1.152,1.1606,1.187,1.2119,1.2186,1.2064,1.1776,1.1648,1.1123,1.073,1.0279,1.0246,1.0415,1.1151,1.1873,1.2445,1.322,1.4003,1.4337,1.4513,1.4789,1.4977,1.4484,1.4284,1.3697,1.3404,1.2878,1.2727,1.2377,1.2401,1.2561,1.2718,1.3097,1.3231,1.3229,1.2671,1.2184,1.2338,1.2165,1.193,1.1748,1.1305,1.1176,1.124,1.1094,1.0127,0.9247,0.8917,0.8633,0.8445,0.8434,0.8481,0.8789,0.8984,1.6301,1.6301,1.6301,1.6116,1.5835,1.5814,1.5814,1.5814,1.5814,1.5814,1.5814,1.5814,1.5814,1.5814,1.5814,1.5814,1.5842,1.5998,1.639,1.692,1.7161,1.7403,1.7799,1.8014,1.7741,1.7592,1.8339,1.8673,1.872,1.9492,1.9991,1.9878,1.9569,1.9599,1.9551,1.875,1.8037,1.7448,1.643,1.572,1.5595,1.5806,1.5253,1.4435,1.3864,1.3534,1.295,1.209,1.1675,1.3031,1.3073,1.3385,1.3855,1.3941,1.3927,1.3835,1.3433,1.282,1.2085,1.1707,1.1377,1.095,1.0951,1.1091,1.1589,1.2139,1.228,1.1827,1.1981,1.1469,1.0552,1.0376,1.0366,1.0422,1.0681,1.1323,1.1881,1.3312,1.4027,1.4593,1.4996,1.5392,1.5641,1.4965,1.4341,1.3745,1.3164,1.2607,1.2108,1.1761,1.14,1.1551,1.1869,1.2246,1.2414,1.2468,1.2131,1.1624,1.2038,1.2253,1.203,1.2021,1.3078,1.2973,1.2954,1.2388,1.1195,1.0476,1.0205,1.0075,0.9984,0.9868,0.9753,1.011,1.0463,1.6011,1.6004,1.6019,1.5934,1.5806,1.5814,1.5814,1.5814,1.5814,1.5814,1.5814,1.5814,1.5814,1.5814,1.5814,1.5814,1.5881,1.6121,1.6488,1.7023,1.7318,1.7511,1.7485,1.78,1.781,1.7754,1.8267,1.8797,1.9081,1.9478,1.998,1.9929,1.9811,1.9671,1.9984,1.944,1.8586,1.773,1.6855,1.6364,1.6298,1.6243,1.5908,1.5028,1.4477,1.4055,1.3356,1.1959,1.1533,1.2574,1.2435,1.2418,1.291,1.312,1.3188,1.3452,1.3069,1.2502,1.1872,1.1308,1.0884,1.0805,1.0905,1.1241,1.1749,1.2389,1.2536,1.185,1.2194,1.1716,1.0783,1.071,1.0725,1.0698,1.0717,1.1113,1.1934,1.3315,1.4388,1.4941,1.5541,1.6062,1.6322,1.5684,1.496,1.4162,1.3299,1.235,1.1726,1.1133,1.0797,1.0525,1.0884,1.1301,1.1422,1.1512,1.1129,1.0923,1.1661,1.1862,1.1781,1.217,1.3312,1.4007,1.3854,1.3099,1.2183,1.188,1.1697,1.1616,1.1576,1.1378,1.1188,1.1226,1.1449,1.5814,1.5814,1.5814,1.5814,1.5814,1.5814,1.5814,1.5814,1.5814,1.5814,1.5814,1.5814,1.5814,1.5814,1.58,1.5809,1.5884,1.6328,1.6615,1.6928,1.7235,1.7414,1.7555,1.7753,1.7761,1.7346,1.8165,1.8589,1.8805,1.9214,1.9551,1.9682,1.9726,1.9718,1.9717,1.9562,1.8985,1.7763,1.7439,1.7265,1.7215,1.6971,1.65,1.5849,1.5188,1.458,1.4101,1.3197,1.2788,1.2747,1.2643,1.2631,1.283,1.3046,1.301,1.2993,1.2551,1.2056,1.1522,1.1035,1.0735,1.0822,1.1143,1.156,1.2496,1.2998,1.3168,1.2569,1.2991,1.2488,1.1645,1.1521,1.1377,1.1314,1.1226,1.1504,1.201,1.3345,1.4407,1.5042,1.5856,1.7036,1.7031,1.6419,1.5614,1.4704,1.3593,1.2332,1.1549,1.094,1.068,1.0461,1.0655,1.0854,1.0467,1.0434,1.0101,1.0265,1.1061,1.1444,1.1405,1.2329,1.3632,1.4122,1.44,1.4163,1.3371,1.3291,1.313,1.2691,1.2398,1.2674,1.2654,1.2498,1.2121,1.5814,1.5814,1.5814,1.5814,1.5814,1.5814,1.5814,1.5814,1.5814,1.5814,1.5814,1.5777,1.5741,1.5807,1.5846,1.5898,1.5945,1.6024,1.6552,1.6942,1.7167,1.7515,1.7682,1.7823,1.7947,1.7843,1.808,1.8133,1.8295,1.8696,1.9207,1.9639,1.961,1.969,1.9673,1.9544,1.9099,1.8241,1.813,1.8177,1.8021,1.781,1.7459,1.6691,1.6299,1.5903,1.4957,1.4484,1.4144,1.3912,1.3528,1.332,1.3209,1.348,1.3424,1.3027,1.2446,1.1987,1.1522,1.1171,1.0965,1.1038,1.1394,1.2101,1.3165,1.3203,1.3349,1.3838,1.4244,1.3915,1.3227,1.2757,1.2577,1.2097,1.1953,1.1895,1.2395,1.3223,1.431,1.506,1.6175,1.7482,1.8079,1.7467,1.6751,1.5873,1.4199,1.2949,1.1879,1.1248,1.0936,1.0789,1.083,1.0578,0.9712,0.9548,0.9706,1.0016,1.061,1.091,1.0998,1.2283,1.3899,1.4231,1.4463,1.456,1.4509,1.3909,1.3429,1.3212,1.3112,1.3088,1.2866,1.2454,1.2075,1.5814,1.5814,1.5814,1.5814,1.5814,1.5814,1.5814,1.5814,1.5814,1.5814,1.5792,1.5522,1.5396,1.5514,1.6107,1.6021,1.5818,1.6827,1.7013,1.7262,1.749,1.7636,1.776,1.7545,1.743,1.7284,1.7389,1.7589,1.7673,1.8092,1.8419,1.8817,1.9288,1.9654,1.963,1.9398,1.9021,1.8979,1.8798,1.8706,1.9022,1.8639,1.8243,1.7589,1.7081,1.6658,1.5925,1.5294,1.4925,1.4558,1.4097,1.3833,1.3731,1.4024,1.3982,1.3668,1.3025,1.2489,1.2042,1.1548,1.1163,1.1733,1.2191,1.2863,1.3938,1.4121,1.4516,1.5006,1.548,1.5208,1.441,1.4277,1.4182,1.3326,1.2817,1.2627,1.2919,1.3747,1.4694,1.566,1.6896,1.8145,1.8513,1.8645,1.7866,1.6954,1.5173,1.3561,1.2597,1.1669,1.145,1.0998,1.0992,1.0539,0.9699,0.9533,0.9465,0.9762,1.0159,1.0517,1.0922,1.2536,1.3862,1.419,1.4381,1.4329,1.419,1.3962,1.3632,1.3203,1.316,1.3258,1.2861,1.2323,1.1864,1.5814,1.5814,1.5814,1.5814,1.5814,1.5814,1.5814,1.5807,1.5847,1.5772,1.5622,1.5158,1.4914,1.5177,1.5761,1.5971,1.5833,1.6585,1.6992,1.7147,1.7203,1.7368,1.7168,1.6989,1.6815,1.6454,1.6523,1.6756,1.675,1.7313,1.7693,1.8099,1.8741,1.9132,1.9346,1.9222,1.9241,1.9428,1.9361,1.9047,1.9376,1.8893,1.8349,1.7735,1.7192,1.6841,1.6333,1.5873,1.5476,1.5179,1.4802,1.4423,1.4387,1.4444,1.4568,1.4374,1.3976,1.3362,1.273,1.2165,1.165,1.2318,1.2891,1.3751,1.4606,1.4966,1.5256,1.613,1.6466,1.6417,1.5667,1.5896,1.5621,1.4811,1.4274,1.4063,1.3931,1.4444,1.5422,1.6384,1.7525,1.8391,1.8698,1.8783,1.7812,1.7005,1.5794,1.4391,1.3557,1.2706,1.2076,1.159,1.1068,1.0482,0.986,0.9692,0.9562,0.9256,0.971,1.0383,1.1133,1.2652,1.3636,1.3942,1.4063,1.403,1.3758,1.3421,1.3226,1.3077,1.2943,1.2764,1.2218,1.1651,1.1314,1.5814,1.5814,1.5814,1.5814,1.5814,1.5814,1.5814,1.5808,1.5839,1.5752,1.5436,1.4909,1.4703,1.4863,1.5594,1.5687,1.5717,1.6237,1.6551,1.6706,1.676,1.6631,1.6595,1.6546,1.6429,1.5808,1.5869,1.5925,1.5802,1.6342,1.6773,1.7292,1.7854,1.8511,1.893,1.9391,1.9624,1.9624,1.9477,1.9251,1.8905,1.8454,1.8004,1.7478,1.704,1.6746,1.6459,1.6348,1.5995,1.5693,1.5909,1.5556,1.5067,1.5355,1.5209,1.4528,1.4241,1.3579,1.2643,1.2338,1.2539,1.301,1.3538,1.437,1.5231,1.5638,1.5999,1.6903,1.735,1.7601,1.7526,1.7503,1.6928,1.6207,1.5688,1.5228,1.5023,1.5242,1.6249,1.6892,1.7632,1.8373,1.8765,1.8719,1.7659,1.6782,1.604,1.5176,1.4377,1.3573,1.2825,1.2263,1.1674,1.1042,1.0485,0.9946,0.9658,0.9253,0.9514,1.0336,1.1002,1.2044,1.29,1.355,1.3479,1.3241,1.3024,1.2778,1.2487,1.2199,1.2164,1.1927,1.1425,1.1086,1.0909,1.5814,1.5814,1.5814,1.5814,1.5814,1.5814,1.5814,1.5749,1.5562,1.5713,1.5984,1.5405,1.5331,1.5724,1.6036,1.6102,1.582,1.6625,1.6915,1.6527,1.6528,1.6528,1.6528,1.6485,1.6337,1.6126,1.5869,1.5579,1.567,1.579,1.5915,1.6305,1.7175,1.7969,1.8439,1.8728,1.8538,1.8369,1.845,1.8518,1.839,1.812,1.7818,1.7297,1.7014,1.6782,1.6515,1.6528,1.639,1.6208,1.6441,1.6213,1.5868,1.6132,1.5966,1.5443,1.5119,1.396,1.3221,1.2966,1.331,1.375,1.4334,1.5023,1.5567,1.5971,1.6703,1.7643,1.8323,1.8584,1.8544,1.8795,1.8341,1.717,1.6512,1.6021,1.5836,1.6335,1.7001,1.7336,1.7939,1.8242,1.8574,1.8574,1.772,1.6825,1.605,1.5727,1.5025,1.4193,1.3403,1.3012,1.244,1.1774,1.1157,1.061,1.0261,1.006,1.0222,1.0787,1.1401,1.1859,1.248,1.3237,1.2818,1.24,1.2195,1.1998,1.1507,1.1271,1.1575,1.1724,1.1471,1.1141,1.0879,1.5814,1.5814,1.5814,1.5814,1.5814,1.5814,1.5845,1.5802,1.5572,1.5881,1.6275,1.5758,1.5603,1.6091,1.6373,1.6408,1.5831,1.6562,1.6951,1.6528,1.6528,1.6528,1.6528,1.6485,1.6287,1.6169,1.5869,1.5597,1.5588,1.5365,1.5448,1.5884,1.6557,1.7186,1.7706,1.7888,1.7846,1.7705,1.7712,1.7929,1.772,1.7564,1.7558,1.7132,1.6902,1.6831,1.6601,1.6485,1.6485,1.6485,1.6485,1.6485,1.6485,1.6479,1.6485,1.6157,1.5377,1.4272,1.3606,1.3177,1.3497,1.4152,1.5097,1.5798,1.6207,1.6773,1.7448,1.8337,1.9155,1.9411,1.9425,1.9737,1.9484,1.8329,1.7867,1.7388,1.7089,1.7577,1.7679,1.7972,1.8175,1.8398,1.8373,1.8138,1.7773,1.6944,1.612,1.5835,1.5514,1.4653,1.3815,1.3353,1.2894,1.2213,1.1616,1.1162,1.0914,1.0813,1.0973,1.1187,1.1506,1.1918,1.2421,1.2769,1.2384,1.2007,1.1516,1.117,1.1065,1.122,1.1579,1.1625,1.1516,1.1292,1.1078,1.5814,1.5814,1.5814,1.5814,1.5814,1.5814,1.5883,1.6013,1.6062,1.6158,1.6354,1.6056,1.5928,1.586,1.5924,1.5932,1.5939,1.6448,1.6544,1.6528,1.6528,1.6528,1.6528,1.6485,1.6287,1.5902,1.5638,1.5567,1.5543,1.5276,1.5276,1.5682,1.6318,1.6631,1.6909,1.7127,1.7116,1.6883,1.6895,1.6924,1.6647,1.6865,1.6896,1.6701,1.6625,1.6515,1.6392,1.6337,1.6287,1.6287,1.6306,1.6392,1.6429,1.646,1.6472,1.6113,1.5158,1.4335,1.3679,1.3187,1.3606,1.4348,1.552,1.644,1.7098,1.7483,1.8038,1.8711,1.9471,1.9834,2.0134,2.043,2.0655,2.0069,1.9667,1.9155,1.8666,1.8626,1.8541,1.8681,1.8795,1.8848,1.8574,1.8256,1.778,1.6941,1.6157,1.5634,1.5276,1.4789,1.3978,1.3406,1.2948,1.2477,1.1927,1.1416,1.1525,1.1429,1.117,1.1283,1.1651,1.2022,1.2471,1.2613,1.2133,1.1566,1.0669,1.0614,1.091,1.1116,1.1275,1.1787,1.1729,1.1679,1.1451,1.5814,1.5814,1.5814,1.5814,1.5814,1.5814,1.6047,1.6422,1.6106,1.6338,1.7257,1.6766,1.6581,1.6719,1.718,1.6874,1.6715,1.6693,1.6721,1.668,1.6522,1.6528,1.6528,1.6485,1.6374,1.6139,1.5858,1.5676,1.5632,1.5326,1.5599,1.6238,1.6201,1.6145,1.6077,1.6176,1.5996,1.5909,1.5941,1.5748,1.5709,1.5919,1.6089,1.6256,1.6331,1.6169,1.5943,1.5844,1.5738,1.5377,1.5293,1.5383,1.587,1.582,1.5732,1.5197,1.4468,1.3779,1.3324,1.3363,1.3664,1.41,1.5038,1.6237,1.705,1.7693,1.8198,1.8932,1.9732,2.0217,2.0521,2.0834,2.1036,2.0836,2.0424,1.9971,1.9499,1.9307,1.9244,1.9006,1.9162,1.9006,1.8727,1.8295,1.7773,1.6925,1.612,1.5493,1.4909,1.4368,1.381,1.3188,1.2594,1.2026,1.1823,1.1312,1.1783,1.1994,1.1787,1.1737,1.221,1.2578,1.2676,1.2407,1.1877,1.0767,0.9514,0.981,1.0661,1.0513,1.0669,1.1384,1.195,1.1742,1.1642,1.5814,1.5814,1.5814,1.5933,1.6091,1.5918,1.6256,1.6861,1.6405,1.6637,1.7245,1.7282,1.7334,1.7446,1.7806,1.7713,1.7238,1.7162,1.7111,1.6909,1.6595,1.6522,1.6528,1.6528,1.6485,1.6337,1.6188,1.6045,1.5864,1.5682,1.5776,1.5605,1.5794,1.5605,1.532,1.5084,1.4903,1.4863,1.4778,1.4571,1.4646,1.4915,1.538,1.5592,1.5716,1.5564,1.5313,1.5244,1.5017,1.4744,1.4703,1.4835,1.5236,1.5236,1.4954,1.4463,1.4091,1.3557,1.3099,1.2817,1.3135,1.3501,1.4114,1.4897,1.6071,1.6918,1.7892,1.8835,1.9836,2.0655,2.0888,2.1085,2.1192,2.1251,2.0861,2.0469,2.0216,1.9981,1.9702,1.9391,1.9207,1.9088,1.881,1.8334,1.7679,1.6689,1.5652,1.475,1.4147,1.3601,1.3092,1.2497,1.1958,1.1471,1.1316,1.1366,1.1783,1.2201,1.2407,1.2461,1.2881,1.2725,1.2515,1.2093,1.162,1.0466,0.9409,0.9913,1.0462,1.0316,1.0222,1.0846,1.1301,1.1342,1.1246,1.5814,1.5814,1.5814,1.6076,1.6495,1.6009,1.6413,1.7413,1.6756,1.6667,1.6864,1.7529,1.7705,1.7505,1.7904,1.7911,1.7615,1.7471,1.735,1.7259,1.6873,1.6637,1.6522,1.6528,1.6528,1.6528,1.6429,1.6232,1.6194,1.5876,1.5371,1.4749,1.4841,1.4789,1.4601,1.4277,1.4091,1.3915,1.4045,1.4034,1.3622,1.3891,1.4471,1.4338,1.4535,1.4748,1.4666,1.4638,1.4612,1.4566,1.4525,1.4474,1.4606,1.4606,1.4277,1.4003,1.3732,1.3367,1.291,1.2642,1.2565,1.2745,1.2875,1.3731,1.4924,1.6118,1.7196,1.818,1.9117,1.9931,2.0301,2.0534,2.0682,2.0695,2.0475,2.0192,2.0016,1.9821,1.9645,1.9361,1.9207,1.9006,1.8373,1.79,1.7538,1.6519,1.5478,1.4396,1.359,1.3067,1.2239,1.1711,1.1212,1.0868,1.1061,1.1216,1.1783,1.2201,1.2456,1.2403,1.2152,1.2152,1.2201,1.1534,1.0868,1.0517,0.9965,1.0064,1.0016,1.0068,1.0127,1.0403,1.0604,1.0643,1.0671,1.5814,1.5814,1.5814,1.5896,1.5979,1.5873,1.5971,1.6226,1.6091,1.6308,1.6763,1.7322,1.7312,1.6905,1.8054,1.8064,1.7158,1.7702,1.7538,1.7123,1.6775,1.6642,1.6515,1.6442,1.6442,1.6528,1.6436,1.6145,1.582,1.5549,1.5281,1.4744,1.4566,1.4381,1.4003,1.3726,1.36,1.3281,1.3329,1.3357,1.3077,1.3453,1.3977,1.4141,1.4378,1.431,1.4192,1.403,1.3742,1.343,1.3344,1.3563,1.3956,1.4003,1.3956,1.3726,1.3377,1.3104,1.2905,1.2603,1.2579,1.2642,1.2885,1.3336,1.4139,1.5251,1.6264,1.725,1.8172,1.897,1.957,1.9782,1.997,1.9936,1.9961,1.9797,1.967,1.9564,1.9435,1.9288,1.9125,1.865,1.798,1.7538,1.714,1.6366,1.5375,1.4381,1.3522,1.2783,1.1362,1.0724,1.0368,1.0167,1.0513,1.0813,1.1275,1.1579,1.1778,1.1629,1.1479,1.1484,1.1434,1.0673,1.0012,0.9862,0.961,0.9208,0.9263,0.9514,0.9618,0.9736,0.9584,0.9573,0.9728,1.6011,1.6011,1.5848,1.5957,1.6121,1.5933,1.5963,1.6174,1.6204,1.6234,1.6376,1.6921,1.7033,1.6786,1.8153,1.8295,1.7263,1.7764,1.7526,1.7013,1.6575,1.6503,1.641,1.6231,1.58,1.58,1.5706,1.5466,1.518,1.4812,1.4503,1.4288,1.4107,1.3784,1.3415,1.3372,1.3286,1.2925,1.2881,1.2774,1.2662,1.303,1.343,1.3684,1.3673,1.3652,1.3605,1.3415,1.3238,1.2856,1.2652,1.2856,1.3117,1.3054,1.3102,1.3175,1.3109,1.2886,1.2818,1.2691,1.2521,1.254,1.2452,1.2691,1.2652,1.3719,1.4721,1.5703,1.6753,1.7551,1.7985,1.8273,1.8316,1.8294,1.8432,1.8471,1.8612,1.8774,1.8696,1.8657,1.8458,1.8256,1.774,1.7504,1.6967,1.6071,1.512,1.4268,1.3449,1.2487,1.1065,0.998,0.9773,0.9718,1.0016,1.0261,1.0568,1.0813,1.1065,1.1065,1.1019,1.0918,1.0669,1.0064,0.9662,0.951,0.9208,0.8906,0.8808,0.9061,0.9008,0.891,0.8808,0.8808,0.9092,1.6328,1.6238,1.5955,1.6084,1.6458,1.6024,1.6061,1.648,1.6555,1.6271,1.5948,1.6368,1.6928,1.7481,1.8246,1.8321,1.8315,1.807,1.7548,1.6774,1.6213,1.6325,1.6188,1.5828,1.5367,1.5022,1.4932,1.4789,1.4549,1.4226,1.3956,1.3647,1.3286,1.2871,1.2822,1.2871,1.2871,1.2715,1.2662,1.2559,1.2456,1.2398,1.2559,1.2662,1.2715,1.2769,1.2769,1.2871,1.2871,1.2456,1.2089,1.2241,1.2388,1.2374,1.2642,1.2759,1.2973,1.2886,1.2818,1.2492,1.2244,1.2052,1.1864,1.1819,1.1873,1.2288,1.3302,1.4017,1.5037,1.5925,1.6358,1.6632,1.6642,1.6785,1.6958,1.7138,1.7449,1.778,1.7786,1.7793,1.7592,1.743,1.7197,1.7002,1.647,1.5628,1.4846,1.4025,1.314,1.2104,1.0897,1.0016,0.9569,0.9566,0.9618,0.9865,1.0115,1.0064,1.0316,1.0462,1.0509,1.0167,0.9917,0.9758,0.9406,0.926,0.911,0.8857,0.8808,0.8808,0.8808,0.8808,0.8808,0.8808,0.8808,1.6528,1.6274,1.5962,1.5881,1.5971,1.5836,1.5881,1.5949,1.6008,1.5896,1.5866,1.5873,1.6106,1.6241,1.7423,1.7685,1.7278,1.7596,1.7332,1.6501,1.6097,1.6262,1.5965,1.5119,1.4846,1.4606,1.4427,1.4376,1.4055,1.3826,1.3552,1.3104,1.3065,1.2671,1.2192,1.2403,1.272,1.2559,1.2662,1.2715,1.251,1.2246,1.1629,1.1629,1.1729,1.1877,1.2133,1.2618,1.2456,1.2039,1.1475,1.1525,1.1625,1.1823,1.1985,1.2344,1.2564,1.2613,1.2428,1.233,1.2147,1.225,1.2053,1.1657,1.1512,1.1212,1.1868,1.1971,1.2959,1.4187,1.4697,1.4852,1.4943,1.5337,1.5618,1.576,1.5979,1.6285,1.6448,1.6346,1.6163,1.5922,1.5652,1.5531,1.5531,1.4807,1.4461,1.3731,1.3318,1.2059,1.0691,1.0052,0.9413,0.9113,0.9008,0.9514,0.971,0.9614,0.9566,0.9762,0.9662,0.9211,0.9061,0.9208,0.9106,0.8956,0.8804,0.8808,0.8808,0.8808,0.8808,0.8808,0.8808,0.8808,0.8808]},{"header":{"parameterUnit":"m.s-1","parameterCategory":1,"la1":31.0,"la2":29.5877,"lo1":-88.7671,"lo2":-86.6584,"dy":0.0162,"dx":0.0185,"nx":115,"ny":88,"refTime":"2024-09-18T06:00:00:Z","depth":0,"parameterNumber":3,"parameterNumberName":"V-component_of_WINDS"},"data":[0.0,0.0,0.0,0.0,0.0,0.0,0.0,0.0,0.0,0.0,0.0,0.0,0.0,0.0,0.0,0.0,0.0,0.0,0.0,0.0,0.0,0.0,0.0,0.0,0.0,0.0,0.0,0.0,0.0,0.0,0.0,0.0,0.0,0.0,0.0,0.0,0.0,0.0,0.0,0.0,0.0,0.0,0.0,0.0,0.0,0.0,0.0,0.0,0.0,0.0,0.0,0.0,0.0,0.0,0.0,0.0,0.0,0.0,0.0,0.0,0.0,0.0,0.0,0.0,0.0,0.0,0.0,0.0,0.0,0.0,0.0,0.0,0.0,0.0,0.0,0.0,0.0,0.0,0.0,0.0,0.0,0.0,0.0,0.0,0.0,0.0,0.0,0.0,0.0,0.0,0.0,0.0,0.0,0.0,0.0,0.0,0.0,0.0,0.0,0.0,0.0,0.0,0.0,0.0,0.0,0.0,0.0,0.0,0.0,0.0,0.0,0.0,0.0,0.0,0.0,0.0,0.0,0.0,0.0,0.0,0.0,0.0,0.0,0.0,0.0,0.0,0.0,0.0,0.0,0.0,0.0,0.0,0.0,0.0,0.0,0.0,0.0,0.0,0.0,0.0,0.0,0.0,0.0,0.0,0.0,0.0,0.0,0.0,0.0,0.0,0.0,0.0,0.0,0.0,0.0,0.0,0.0,0.0,0.0,0.0,0.0,0.0,0.0,0.0,0.0,0.0,0.0,0.0,0.0,0.0,0.0,0.0,0.0,0.0,0.0,0.0,0.0,0.0,0.0,0.0,0.0,0.0,0.0,0.0,0.0,0.0,0.0,0.0,0.0,0.0,0.0,0.0,0.0,0.0,0.0,0.0,0.0,0.0,0.0,0.0,0.0,0.0,0.0,0.0,0.0,0.0,0.0,0.0,0.0,0.0,0.0,0.0,0.0,0.0,0.0,0.0,0.0,0.0,0.0,0.0,0.0,0.0,0.0,0.0,0.0,0.0,0.0,0.0,0.0,0.0,0.0,0.0,0.0,0.0,0.0,0.0,0.0,0.0,0.0,0.0,0.0,0.0,0.0,0.0,0.0,0.0,0.0,0.0,0.0,0.0,0.0,0.0,0.0,0.0,0.0,0.0,0.0,0.0,0.0,0.0,0.0,0.0,0.0,0.0,0.0,0.0,0.0,0.0,0.0,0.0,0.0,0.0,0.0,0.0,0.0,0.0,0.0,0.0,0.0,0.0,0.0,0.0,0.0,0.0,0.0,0.0,0.0,0.0,0.0,0.0,0.0,0.0,0.0,0.0,0.0,0.0,0.0,0.0,0.0,0.0,0.0,0.0,0.0,0.0,0.0,0.0,0.0,0.0,0.0,0.0,0.0,0.0,0.0,0.0,0.0,0.0,0.0,0.0,0.0,0.0,0.0,0.0,0.0,0.0,0.0,0.0,0.0,0.0,0.0,0.0,0.0,0.0,0.0,0.0,0.0,0.0,0.0,0.0,0.0,0.0,0.0,0.0,0.0,0.0,0.0,0.0,0.0,0.0,0.0,0.0,0.0,0.0,0.0,0.0,0.0,0.0,0.0,0.0,0.0,0.0,0.0,0.0,0.0,0.0,0.0,0.0,0.0,0.0,0.0,0.0,0.0,0.0,0.0,0.0,0.0,0.0,0.0,0.0,0.0,0.0,0.0,0.0,0.0,0.0,0.0,0.0,0.0,0.0,0.0,0.0,0.0,0.0,0.0,0.0,0.0,0.0,0.0,0.0,0.0,0.0,0.0,0.0,0.0,0.0,0.0,0.0,0.0,0.0,0.0,0.0,0.0,0.0,0.0,0.0,0.0,0.0,0.0,0.0,0.0,0.0,0.0,0.0,0.0,0.0,0.0,0.0,0.0,0.0,0.0,0.0,0.0,0.0,0.0,0.0,0.0,0.0,0.0,0.0,0.0,0.0,0.0,0.0,0.0,0.0,0.0,0.0,0.0,0.0,0.0,0.0,0.0,0.0,0.0,0.0,0.0,0.0,0.0,0.0,0.0,0.0,0.0,0.0,0.0,0.0,0.0,0.0,0.0,0.0,0.0,0.0,0.0,0.0,0.0,0.0,0.0,0.0,0.0,0.0,0.0,0.0,0.0,0.0,0.0,0.0,0.0,0.0,0.0,0.0,0.0,0.0,0.0,0.0,0.0,0.0,0.0,0.0,0.0,0.0,0.0,0.0,0.0,0.0,0.0,0.0,0.0,0.0,0.0,0.0,0.0,0.0,0.0,0.0,0.0,0.0,0.0,0.0,0.0,0.0,0.0,0.0,0.0,0.0,0.0,0.0,0.0,0.0,0.0,0.0,0.0,0.0,0.0,0.0,0.0,0.0,0.0,0.0,0.0,0.0,0.0,0.0,0.0,0.0,0.0,0.0,0.0,0.0,0.0,0.0,0.0,0.0,0.0,0.0,0.0,0.0,0.0,0.0,0.0,0.0,0.0,0.0,0.0,0.0,0.0,0.0,0.0,0.0,0.0,0.0,0.0,0.0,0.0,0.0,0.0,0.0,0.0,0.0,0.0,0.0,0.0,0.0,0.0,0.0,0.0,0.0,0.0,0.0,0.0,0.0,0.0,0.0,0.0,0.0,0.0,0.0,0.0,0.0,0.0,0.0,0.0,0.0,0.0,0.0,0.0,0.0,0.0,0.0,0.0,0.0,0.0,0.0,0.0,0.0,0.0,0.0,0.0,0.0,0.0,0.0,0.0,0.0,0.0,0.0,0.0,0.0,0.0,0.0,0.0,0.0,0.0,0.0,0.0,0.0,0.0,0.0,0.0,0.0,0.0,0.0,0.0,0.0,0.0,0.0,0.0,0.0,0.0,0.0,0.0,0.0,0.0,0.0,0.0,0.0,0.0,0.0,0.0,0.0,0.0,0.0,0.0,0.0,0.0,0.0,0.0,0.0,0.0,0.0,0.0,0.0,0.0,0.0,0.0,0.0,0.0,0.0,0.0,0.0,0.0,0.0,0.0,0.0,0.0,0.0,0.0,0.0,0.0,0.0,0.0,0.0,0.0,0.0,0.0,0.0,0.0,0.0,0.0,0.0,0.0,0.0,0.0,0.0,0.0,0.0,0.0,0.0,0.0,0.0,0.0,0.0,0.0,0.0,0.0,0.0,0.0,0.0,0.0,0.0,0.0,0.0,0.0,0.0,0.0,0.0,0.0,0.0,0.0,0.0,0.0,0.0,0.0,0.0,0.0,0.0,0.0,0.0,0.0,0.0,0.0,0.0,0.0,0.0,0.0,0.0,0.0,0.0,0.0,0.0,0.0,0.0,0.0,0.0,0.0,0.0,0.0,0.0,0.0,0.0,0.0,0.0,0.0,0.0,0.0,0.0,0.0,0.0,0.0,0.0,0.0,0.0,0.0,0.0,0.0,0.0,0.0,0.0,0.0,0.0,0.0,0.0,0.0,0.0,0.0,0.0,0.0,0.0,0.0,0.0,0.0,0.0,0.0,0.0,0.0,0.0,0.0,0.0,0.0,0.0,0.0,0.0,0.0,0.0,0.0,0.0,0.0,0.0,0.0,0.0,0.0,0.0,0.0,0.0,0.0,0.0,0.0,0.0,0.0,0.0,0.0,0.0,0.0,0.0,0.0,0.0,0.0,0.0,0.0,0.0,0.0,0.0,0.0,0.0,0.0,0.0,0.0,0.0,0.0,0.0,0.0,0.0,0.0,0.0,0.0,0.0,0.0,0.0,0.0,0.0,0.0,0.0,0.0,0.0,0.0,0.0,0.0,0.0,0.0,0.0,0.0,0.0,0.0,0.0,0.0,0.0,0.0,0.0,0.0,0.0,0.0,0.0,0.0,0.0,0.0,0.0,0.0,0.0,0.0,0.0,0.0,0.0,0.0,0.0,0.0,0.0,0.0,0.0,0.0,0.0,0.0,0.0,0.0,0.0,0.0,0.0,0.0,0.0,0.0,0.0,0.0,0.0,0.0,0.0,0.0,0.0,0.0,0.0,0.0,0.0,0.0,0.0,0.0,0.0,0.0,0.0,0.0,0.0,0.0,0.0,0.0,0.0,0.0,0.0,0.0,0.0,0.0,0.0,0.0,0.0,0.0,0.0,0.0,0.0,0.0,0.0,0.0,0.0,0.0,0.0,0.0,0.0,0.0,0.0,0.0,0.0,0.0,0.0,0.0,0.0,0.0,0.0,0.0,0.0,0.0,0.0,0.0,0.0,0.0,0.0,0.0,0.0,0.0,0.0,0.0,0.0,0.0,0.0,0.0,0.0,0.1366,0.0,0.0,0.0,0.0,0.0,0.0,0.0,0.0,0.0,0.0,0.0,0.0,0.0,0.0,0.0,0.0,0.0,0.0,0.0,0.0,0.0,0.0,0.0,0.0,0.0,0.0,0.0,0.0,0.0,0.0,0.0,0.0,0.0,0.0,0.0,0.0,0.0,0.0,0.0,0.0,0.0,0.0,0.0,0.0,0.0,0.0,0.0,0.0,0.0,0.0,0.0,0.0,0.0,0.0,0.0,0.0,0.0,0.0,0.0,0.0,0.0,0.0,0.0,0.0,0.0,0.0,0.0,0.0,0.0,0.0,0.0,0.0,0.0,0.0,0.0,0.0,0.0,0.0,0.0,0.0,0.0,0.0,0.0,0.0,0.0,0.0,0.0,0.0,0.0,0.0,0.0,0.0,0.0,0.0,0.0,0.0,0.0,0.0,0.0,0.0,0.0,0.0,0.0,0.0,0.0,0.0,0.0,0.0,0.0,0.0,0.4226,0.4223,0.4052,0.3408,0.2106,0.0,0.0,0.0,0.0,0.0,0.0,0.0,0.0,0.0,0.0,0.0,0.0,0.0,0.0,0.0,0.0,0.0,0.0,0.0,0.0,0.0,0.0,0.0,0.0,0.0,0.0,0.0,0.0,0.0,0.0,0.0,0.0,0.0,0.0,0.0,0.0,0.0,0.0,0.0,0.0,0.0,0.0,0.0,0.0,0.0,0.0,0.0,0.0,0.0,0.0,0.0,0.0,0.0,0.0,0.0,0.0,0.0,0.0,0.0,0.0,0.0,0.0,0.0,0.0,0.0,0.0,0.0,0.0,0.0,0.0,0.0,0.0,0.0,0.0,0.0,0.0,0.0,0.0,0.0,0.0,0.0,0.0,0.0,0.0,0.0,0.0,0.0,0.0,0.0,0.0,0.0,0.0,0.0,0.0,0.0,0.0,0.0,0.0,0.0,0.0,0.0,0.0,0.0,0.0,0.0,0.0,0.0,0.0,0.0,0.0,0.0,0.0,0.3702,0.2972,0.2102,0.0,0.0,0.0,0.0,0.0,0.0,0.0,0.0,0.0,0.0,0.0,0.0,0.0,0.0,0.0,0.0,0.0,0.0,0.0,0.0,0.0,0.0,0.0,0.0,0.0,0.0,0.0,0.0,0.0,0.0,0.0,0.0,0.0,0.0,0.0,0.0,0.0,0.0,0.0,0.0,0.0,0.0,0.0,0.0,0.0,0.0,0.0,0.0,0.0,0.0,0.0,0.0,0.0,0.0,0.0,0.0,0.0,0.0,0.0,0.0,0.0,0.0,0.0,0.0,0.0,0.0,0.0,0.0,0.0,0.0,0.0,0.0,0.0,0.0,0.0,0.0,0.0,0.0,0.0,0.0,0.0,0.0,0.0,0.0,0.0,0.0,0.0,0.0,0.0,0.0,0.0,0.0,0.0,0.0,0.0,0.0,0.0,0.0,0.0,0.0,0.0,0.0,0.0,0.0,0.0,0.0,0.0,0.0,0.0,0.0,0.3296,0.3816,0.2342,0.0,0.03,0.0,0.0,0.0,0.0,0.0,0.0,0.0,0.0,0.0,0.0,0.0,0.0,0.0,0.0,0.0,0.0,0.0,0.0,0.0,0.0,0.0,0.0,0.0,0.0,0.0,0.0,0.0,0.0,0.0,0.0,0.0,0.0,0.0,0.0,0.0,0.0,0.0,0.0,0.0,0.0,0.0,0.0,0.0,0.0,0.0,0.0,0.0,0.0,0.0,0.0,0.0,0.0,0.0,0.0,0.0,0.0,0.0,0.0,0.0,0.0,0.0,0.0,0.0,0.0,0.0,0.0,0.0,0.0,0.0,0.0,0.0,0.0,0.0,0.0,0.0,0.0,0.0,0.0,0.0,0.0,0.0,0.0,0.0,0.0,0.0,0.0,0.0,0.0,0.0,0.0,0.0,0.0,0.0,0.0,0.0,0.0,0.0,0.0,0.0,0.0,0.0,0.0,0.0,0.0,0.0,0.0,0.0,0.0,0.0,0.0,0.3045,0.3615,0.162,0.0365,0.0,0.0,0.0,0.0,0.0,0.0,0.0,0.0,0.0,0.0,0.0,0.0,0.0,0.0,0.0,0.0,0.0,0.0,0.0,0.0,0.0,0.0,0.0,0.0,0.0,0.0,0.0,0.0,0.0,0.0,0.0,0.0,0.0,0.0,0.0,0.0,0.0,0.0,0.0,0.0,0.0,0.0,0.0,0.0,0.0,0.0,0.0,0.0,0.0,0.0,0.0,0.0,0.0,0.0,0.0,0.0,0.0,0.0,0.0,0.0,0.0,0.0,0.0,0.0,0.0,0.0,0.0,0.0,0.0,0.0,0.0,0.0,0.0,0.0,0.0,0.0,0.0,0.0,0.0,0.0,0.0,0.0,0.0,0.0,0.0,0.0,0.0,0.0,0.0,0.0,0.0,0.0,0.0,0.0,0.0,0.0,0.0,0.0,0.0,0.0,0.0,0.0,0.0,0.0,0.0,0.0,0.0,0.0,0.0,0.0,0.26,0.2735,0.2906,0.1081,-0.0167,-0.0495,0.0,0.0,0.0,0.0,0.0,0.0,0.0,0.0,0.0,0.0,0.0,0.0,0.0,0.0,0.0,0.0,0.0,0.0,0.0,0.0,0.0,0.0,0.0,0.0,0.0,0.0,0.0,0.0,0.0,0.0,0.0,0.0,0.0,0.0,0.0,0.0,0.0,0.0,0.0,0.0,0.0,0.0,0.0,0.0,0.0,0.0,0.0,0.0,0.0,0.0,0.0,0.0,0.0,0.0,0.0,0.0,0.0,0.0,0.0,0.0,0.0,0.0,0.0,0.0,0.0,0.0,0.0,0.0,0.0,0.0,0.0,0.0,0.0,0.0,0.0,0.0,0.0,0.0,0.0,0.0,0.0,0.0,0.0,0.0,0.0,0.0,0.0,0.0,0.0,0.0,0.0,0.0,0.0,0.0,0.0,0.0,0.0,0.0,0.0,0.0,0.0,0.0,0.0,0.0,0.0,0.0,0.0,0.0,0.0,0.234,0.2221,0.1851,0.0655,-0.0541,0.0,0.0,0.0,0.0,0.0,0.0,0.0,0.0,0.0,0.0,0.0,0.0,0.0,0.0,0.0,0.0,0.0,0.0,0.0,0.0,0.0,0.0,0.0,0.0,0.0,0.0,0.0,0.0,0.0,0.0,0.0,0.0,0.0,0.0,0.0,0.0,0.0,0.0,0.0,0.0,0.0,0.0,0.0,0.0,0.0,0.0,0.0,0.0,0.0,0.0,0.0,0.0,0.0,0.0,0.0,0.0,0.0,0.0,0.0,0.0,0.0,0.0,0.0,0.0,0.0,0.0,0.0,0.0,0.0,0.0,0.0,0.0,0.0,0.0,0.0,0.0,0.0,0.0,0.0,0.0,0.0,0.0,0.0,0.0,0.0,0.0,0.0,0.0,0.0,0.0,0.0,0.0,0.0,0.0,0.0,0.0,0.0,0.0,0.0,0.0,0.0,0.0,0.0,0.0,0.0,0.0,0.0,0.0,0.0,0.1916,0.1117,0.0672,0.063,0.0217,-0.0566,0.0,0.0,0.0,0.0,0.0,0.0,0.0,0.0,0.0,0.0,0.0,0.0,0.0,0.0,0.0,0.0,0.0,0.0,0.0,0.0,0.0,0.0,0.0,0.0,0.0,0.0,0.0,0.0,0.0,0.0,0.0,0.0,0.0,0.0,0.0,0.0,0.0,0.0,0.0,0.0,0.0,0.0,0.0,0.0,0.0,0.0,0.0,0.0,0.0,0.0,0.0,0.0,0.0,0.0,0.0,0.0,0.0,0.0,0.0,0.0,0.0,0.0,0.0,0.0,0.0,0.0,0.0,0.0,0.0,0.0,0.0,0.0,0.0,0.0,0.0,0.0,0.0,0.0,0.0,0.0,0.0,0.0,0.0,0.0,0.0,0.0,0.0,0.0,0.0,0.0,0.0,0.0,0.0,0.0,0.0,0.0,0.0,0.0,0.0,0.0,0.0,0.0,0.0,0.0,0.0,0.0,0.0,0.0,0.0,0.1405,0.0,-0.0362,0.0,-0.0436,-0.078,0.0,0.0,0.0,0.0,0.0,0.0,0.0,0.0,0.0,0.0,0.0,0.0,0.0,0.0,0.0,0.0,0.0,0.0,0.0,0.0,0.0,0.0,0.0,0.0,0.0,0.0,0.0,0.0,0.0,0.0,0.0,0.0,0.0,0.0,0.0,0.0,0.0,0.0,0.0,0.0,0.0,0.0,0.0,0.0,0.0,0.0,0.0,0.0,0.0,0.0,0.0,0.0,0.0,0.0,0.0,0.0,0.0,0.0,0.0,0.0,0.0,0.0,0.0,0.0,0.0,0.0,0.0,0.0,0.0,0.0,0.0,0.0,0.0,0.0,0.0,0.0,0.0,0.0,0.0,0.0,0.0,0.0,0.0,0.0,0.0,0.0,0.0,0.0,0.0,0.0,0.0,0.0,0.0,0.0,0.0,0.0,0.0,0.0,0.0,0.0,0.0,0.0,0.0,0.0,0.0,0.0,0.0,0.0,0.1424,0.0625,0.0156,-0.0766,-0.2106,-0.1376,-0.121,0.0,0.0,0.0,0.0,0.0,0.0,0.0,0.0,0.0,0.0,0.0,0.0,0.0,0.0,0.0,0.0,0.0,0.0,0.0,0.0,0.0,0.0,0.0,0.0,0.0,0.0,0.0,0.0,0.0,0.0,0.0,0.0,0.0,0.0,0.0,0.0,0.0,0.0,0.0,0.0,0.0,0.0,0.0,0.0,0.0,0.0,0.0,0.0,0.0,0.0,0.0,0.0,0.0,0.0,0.0,0.0,0.0,0.0,0.0,0.0,0.0,0.0,0.0,0.0,0.0,0.0,0.0,0.0,0.0,0.0,0.0,0.0,0.0,0.0,0.0,0.0,0.0,0.0,0.0,0.0,0.0,0.0,0.0,0.0,0.0,0.0,0.0,0.0,0.0,0.0,0.0,0.0,0.0,0.0,0.0,0.0,0.0,0.0,0.0,0.0,0.0,0.0,0.0,0.0,0.0,0.0,0.0,0.0,0.0,-0.019,-0.0973,-0.1745,-0.2479,-0.23,-0.2171,0.0,0.0,0.0,0.0,0.0,0.0,0.0,0.0,0.0,0.0,0.0,0.0,0.0,0.0,0.0,0.0,0.0,0.0,0.0,0.0,0.0,0.0,0.0,0.0,0.0,0.0,0.0,0.0,0.0,0.0,0.0,0.0,0.0,0.0,0.0,0.0,0.0,0.0,0.0,0.0,0.0,0.0,0.0,0.0,0.0,0.0,0.0,0.0,0.0,0.0,0.0,0.0,0.0,0.0,0.0,0.0,0.0,0.0,0.0,0.0,0.0,0.0,0.0,0.0,0.0,0.0,0.0,0.0,0.0,0.0,0.0,0.0,0.0,0.0,0.0,0.0,0.0,0.0,0.0,0.0,0.0,0.0,0.0,0.0,0.0,0.0,0.0,0.0,0.0,0.0,0.0,0.0,0.0,0.0,0.0,0.0,0.0,0.0,0.0,0.0,0.0,0.0,0.0,0.0,0.0,0.0,0.0,0.0,0.0,-0.0046,-0.1259,-0.2239,-0.2946,-0.3047,-0.3004,-0.2767,0.0,0.0,0.0,0.0,0.0,0.0,0.0,0.0,0.0,0.0,0.0,0.0,0.0,0.0,0.0,0.0,0.0,0.0,0.0,0.0,0.0,0.0,0.0,0.0,0.0,0.0,0.0,0.0,0.0,0.0,0.0,0.0,0.0,0.0,0.0,0.0,0.0,0.0,0.0,0.0,0.0,0.0,0.0,0.0,0.0,0.0,0.0,0.0,0.0,0.0,0.0,0.0,0.0,0.0,0.0,0.0,0.0,0.0,0.0,0.0,0.0,0.0,0.0,0.0,0.0,0.0,0.0,0.0,0.0,0.0,0.0,0.0,0.0,0.0,0.0,0.0,0.0,0.0,0.0,0.0,0.0,0.0,0.0,0.0,0.0,0.0,0.0,0.0,0.0,0.0,0.0,0.0,0.0,0.0,0.0,0.0,0.0,0.0,0.0,0.0,0.0,0.0,0.0,0.0,0.0,0.0,0.0,0.0,0.0799,-0.0814,-0.2209,-0.3395,-0.3714,-0.3724,0.0,0.0,0.0,0.0,0.0,0.0,0.0,0.0,0.0,0.0,0.0,0.0,0.0,0.0,0.0,0.0,0.0,0.0,0.0,0.0,0.0,0.0,0.0,0.0,0.0,0.0,0.0,0.0,0.0,0.0,0.0,0.0,0.0,0.0,0.0,0.0,0.0,0.0,0.0,0.0,0.0,0.0,0.0,0.0,0.0,0.0,0.0,0.0,0.0,0.0,0.0,0.0,0.0,0.0,0.0,0.0,0.0,0.0,0.0,0.0,0.0,0.0,0.0,0.0,0.0,0.0,0.0,0.0,0.0,0.0,0.0,0.0,0.0,0.0,0.0,0.0,0.0,0.0,0.0,0.0,0.0,0.0,0.0,0.0,0.0,0.0,0.0,0.0,0.0,0.0,0.0,0.0,0.0,0.0,0.0,0.0,0.0,0.0,0.0,0.0,0.0,0.0,0.0,0.0,0.0,0.0,0.0,0.0,0.0,0.082,-0.0401,-0.1903,-0.371,-0.4407,-0.4549,0.0,0.0,0.0,0.0,0.0,0.0,0.0,0.0,0.0,0.0,0.0,0.0,0.0,0.0,0.0,0.0,0.0,0.0,0.0,0.0,0.0,0.0,0.0,0.0,0.0,0.0,0.0,0.0,0.0,0.0,0.0,0.0,0.0,0.0,0.0,0.0,0.0,0.0,0.0,0.0,0.0,0.0,0.0,0.0,0.0,0.0,0.0,0.0,0.0,0.0,0.0,0.0,0.0,0.0,0.0,0.0,0.0,0.0,0.0,0.0,0.0,0.0,0.0,0.0,0.0,0.0,0.0,0.0,0.0,0.0,0.0,0.0,0.0,0.0,0.0,0.0,0.0,0.0,0.0,0.0,0.0,0.0,0.0,0.0,0.0,0.0,0.0,0.0,0.0,0.0,0.0,0.0,0.0,0.0,0.0,0.0,0.0,0.0,0.0,0.0,0.0,0.0,0.0,0.0,0.0,0.0,0.0,0.0,0.2638,0.1652,-0.0105,-0.1877,-0.3689,-0.4745,-0.5169,0.0,0.0,0.0,0.0,0.0,0.0,0.0,0.0,0.0,0.0,0.0,0.0,0.0,0.0,0.0,0.0,0.0,0.0,0.0,0.0,0.0,0.0,0.0,0.0,0.0,0.0,0.0,0.0,0.0,0.0,0.0,0.0,0.0,0.0,0.0,0.0,0.0,0.0,0.0,0.0,0.0,0.0,0.0,0.0,0.0,0.0,0.0,0.0,0.0,0.0,0.0,0.0,0.0,0.0,0.0,0.0,0.0,0.0,0.0,0.0,0.0,0.0,0.0,0.0,0.0,0.0,0.0,0.0,0.0,0.0,0.0,0.0,0.0,0.0,0.0,0.0,0.0,0.0,0.0,0.0,0.0,0.0,0.0,0.0,0.0,0.0,0.0,0.0,0.0,0.0,0.0,0.0,0.0,0.0,0.0,0.0,0.0,0.0,0.0,0.0,0.0,0.0,0.0,0.0,0.0,0.0,0.0,0.0,0.3078,0.2733,0.0148,-0.1951,-0.3451,-0.4795,-0.5598,0.0,0.0,0.0,0.0,0.0,0.0,0.0,0.0,0.0,0.0,0.0,0.0,0.0,0.0,0.0,0.0,0.0,0.0,0.0,0.0,0.0,0.0,0.0,0.0,0.0,0.0,0.0,0.0,0.0,0.0,0.0,0.0,0.0,0.0,0.0,0.0,0.0,0.0,0.0,0.0,0.0,0.0,0.0,0.0,0.0,0.0,0.0,0.0,0.0,0.0,0.0,0.0,0.0,0.0,0.0,0.0,0.0,0.0,0.0,0.0,0.0,0.0,0.0,0.0,0.0,0.0,0.0,0.0,0.0,0.0,0.0,0.0,0.0,0.0,0.0,0.0,0.0,0.0,0.0,0.0,0.0,0.0,0.0,0.0,0.0,0.0,0.0,0.0,0.0,0.0,0.0,0.0,0.0,0.0,0.0,0.0,0.0,0.0,0.0,0.0,0.0,0.0,0.0,0.0,0.0,0.0,0.0,0.0,0.3526,0.241,0.0446,-0.1525,-0.3461,-0.48,-0.5625,0.0,0.0,0.0,0.0,0.0,0.0,0.0,0.0,0.0,0.0,0.0,0.0,0.0,0.0,0.0,0.0,0.0,0.0,0.0,0.0,0.0,0.0,0.0,0.0,0.0,0.0,0.0,0.0,0.0,0.0,0.0,0.0,0.0,0.0,0.0,0.0,0.0,0.0,0.0,0.0,0.0,0.0,0.0,0.0,0.0,0.0,0.0,0.0,-0.7034,0.0,0.0,0.0,0.0,0.0,0.0,0.0,0.0,0.0,0.0,0.0,0.0,0.0,0.0,0.0,0.0,0.0,0.0,0.0,0.0,0.0,0.0,0.0,0.0,0.0,0.0,0.0,0.0,0.0,0.0,0.0,0.0,0.0,0.0,0.0,0.0,0.0,0.0,0.0,0.0,0.0,0.0,0.0,0.0,0.0,0.0,0.0,0.0,0.0,0.0,0.0,0.0,0.0,0.0,0.0,0.0,0.0,0.0,0.0,0.367,0.2858,0.0557,-0.1564,-0.3446,-0.4563,-0.5411,0.0,0.0,0.0,0.0,0.0,0.0,0.0,0.0,0.0,0.0,0.0,0.0,0.0,0.0,0.0,0.0,0.0,0.0,0.0,0.0,0.0,0.0,0.0,0.0,0.0,0.0,0.0,0.0,0.0,0.0,0.0,0.0,0.0,0.0,0.0,0.0,0.0,0.0,0.0,0.0,0.0,0.0,0.0,0.0,0.0,0.0,0.0,0.0,0.0,0.0,0.0,0.0,0.0,0.0,0.0,0.0,0.0,0.0,0.0,0.0,0.0,0.0,0.0,0.0,0.0,0.0,0.0,0.0,0.0,0.0,0.0,0.0,0.0,0.0,0.0,0.0,0.0,0.0,0.0,0.0,0.0,0.0,0.0,0.0,0.0,0.0,0.0,0.0,0.0,0.0,0.0,0.0,0.0,0.0,0.0,0.0,0.0,0.0,0.0,0.0,0.0,0.0,0.0,0.0,0.0,0.0,0.0,0.3823,0.366,0.3285,0.0582,-0.1718,-0.3444,-0.4277,-0.5131,-0.5987,0.0,0.0,0.0,0.0,0.0,0.0,0.0,0.0,0.0,0.0,0.0,0.0,0.0,0.0,0.0,0.0,0.0,0.0,0.0,0.0,0.0,0.0,0.0,0.0,0.0,0.0,0.0,0.0,0.0,0.0,0.0,0.0,0.0,0.0,0.0,0.0,0.0,0.0,-0.308,-0.4011,0.0,0.0,0.0,0.0,0.0,0.0,0.0,0.0,-0.8161,0.0,0.0,0.0,0.0,0.0,0.0,0.0,0.0,0.0,0.0,0.0,0.0,0.0,0.0,0.0,0.0,0.0,0.0,0.0,0.0,0.0,0.0,0.0,0.0,0.0,0.0,0.0,0.0,0.0,0.0,0.0,0.0,0.0,0.0,0.0,0.0,0.0,0.0,0.0,0.0,0.0,0.0,0.0,0.0,0.0,0.0,0.0,0.0,0.0,0.0,0.0,0.0,0.0,0.0,0.0,0.0,0.3907,0.3831,0.3484,0.2829,0.039,-0.174,-0.3437,-0.4281,-0.488,-0.5269,0.0,0.0,0.0,0.0,0.0,0.0,0.0,0.0,0.0,0.0,0.0,0.0,0.0,0.0,0.0,0.0,0.0,0.0,0.0,0.0,0.0,0.0,0.0,0.0,0.0,0.0,0.0,0.0,0.0,0.0,0.0,0.0,0.0,0.0,0.0,0.0,0.0,0.0,0.0,-0.4167,-0.5116,0.0,0.0,0.0,0.0,0.0,0.0,0.0,0.0,-0.9106,0.0,0.0,0.0,0.0,0.0,0.0,0.0,0.0,0.0,0.0,0.0,0.0,0.0,0.0,0.0,0.0,0.0,0.0,0.0,0.0,0.0,0.0,0.0,0.0,0.0,0.0,0.0,0.0,0.0,0.0,0.0,0.0,0.0,0.0,0.0,0.0,0.0,0.0,0.0,0.0,0.0,0.0,0.0,0.0,0.0,0.0,0.0,0.0,0.0,0.0,0.0,0.0,0.0,0.0,0.0,0.4133,0.394,0.3475,0.266,0.0523,-0.1553,-0.343,-0.401,-0.4472,0.0,0.0,0.0,0.0,0.0,0.0,0.0,0.0,0.0,0.0,0.0,0.0,0.0,0.0,0.0,0.0,0.0,0.0,0.0,0.0,0.0,0.0,0.0,0.0,0.0,0.0,0.0,0.0,0.0,0.0,0.0,0.0,0.0,0.0,0.0,0.0,0.0,0.0,0.0,0.0,-0.3498,-0.4351,-0.4873,0.0,0.0,0.0,0.0,0.0,0.0,-0.9005,-0.9576,0.0,0.0,0.0,0.0,0.0,0.0,0.0,0.0,0.0,0.0,0.0,0.0,0.0,0.0,0.0,0.0,0.0,0.0,0.0,0.0,0.0,0.0,0.0,0.0,0.0,0.0,0.0,0.0,0.0,0.0,0.0,0.0,0.0,0.0,0.0,0.0,0.0,0.0,0.0,0.0,0.0,0.0,0.0,0.0,0.0,0.0,0.0,0.0,0.0,0.0,0.0,0.0,0.0,0.0,0.0,0.4313,0.3922,0.3407,0.2662,0.0678,-0.134,-0.325,-0.3717,-0.4139,0.0,0.0,0.0,0.0,0.0,0.0,0.0,0.0,0.0,0.0,0.0,0.0,0.0,0.0,0.0,0.0,0.0,0.0,0.0,0.0,0.0,0.0,0.0,0.0,0.0,0.0,0.0,0.0,0.0,0.0,0.0,0.0,0.0,0.0,0.0,0.0,0.0,0.0,0.0,0.0,0.0,-0.3395,-0.414,-0.5921,0.0,0.0,0.0,0.0,-0.8716,-0.9382,0.0,0.0,0.0,0.0,0.0,0.0,0.0,0.0,0.0,0.0,0.0,0.0,0.0,0.0,0.0,0.0,0.0,0.0,0.0,0.0,0.0,0.0,0.0,0.0,0.0,0.0,0.0,0.0,0.0,0.0,0.0,0.0,0.0,0.0,0.0,0.0,0.0,0.0,0.0,0.0,0.0,0.0,0.0,0.0,0.0,0.0,0.0,0.0,0.0,0.0,0.0,0.0,0.0,0.0,0.0,0.0,0.4273,0.3556,0.3021,0.2609,0.0656,-0.1163,-0.275,-0.35,-0.4045,0.0,0.0,0.0,0.0,0.0,0.0,0.0,0.0,0.0,0.0,0.0,0.0,0.0,0.0,0.0,0.0,0.0,0.0,0.0,0.0,0.0,0.0,0.0,0.0,0.0,0.0,0.0,0.0,0.0,0.0,0.0,0.0,0.0,0.0,0.0,0.0,0.0,0.0,0.0,0.0,0.0,-0.2713,-0.3273,-0.5711,-0.7531,0.0,0.0,-0.8926,-0.9011,-0.9533,0.0,0.0,0.0,0.0,0.0,0.0,0.0,0.0,0.0,0.0,0.0,0.0,0.0,0.0,0.0,0.0,0.0,0.0,0.0,0.0,0.0,0.0,0.0,0.0,0.0,0.0,0.0,0.0,0.0,0.0,0.0,0.0,0.0,0.0,0.0,0.0,0.0,0.0,0.0,0.0,0.0,0.0,0.0,0.0,0.0,0.0,0.0,0.0,0.0,0.0,0.0,0.0,0.0,0.0,0.0,0.4223,0.4068,0.3431,0.2964,0.2662,0.0813,-0.0967,-0.266,-0.3322,-0.3944,0.0,0.0,0.0,0.0,0.0,0.0,0.0,0.0,0.0,0.0,0.0,0.0,0.0,0.0,0.0,0.0,0.0,0.0,0.0,0.0,0.0,0.0,0.0,0.0,0.0,0.0,0.0,0.0,0.0,0.0,0.0,0.0,0.0,0.0,0.0,0.0,0.0,0.0,0.0,0.0,0.0,0.0,-0.185,-0.4659,0.0,0.0,0.0,-0.9001,-0.9336,0.0,0.0,0.0,0.0,0.0,0.0,0.0,0.0,0.0,0.0,0.0,0.0,0.0,0.0,0.0,0.0,0.0,0.0,0.0,0.0,0.0,0.0,0.0,0.0,0.0,0.0,0.0,0.0,0.0,0.0,0.0,0.0,0.0,0.0,0.0,0.0,0.0,0.0,0.0,0.0,0.0,0.0,0.0,0.0,0.0,0.0,0.0,0.0,0.0,0.0,0.0,0.0,0.0,0.0,0.0,0.0,0.0,0.3896,0.3308,0.2897,0.2665,0.0926,-0.0881,-0.2633,-0.3208,0.0,0.0,0.0,0.0,0.0,0.0,0.0,0.0,0.0,0.0,0.0,0.0,0.0,0.0,0.0,0.0,0.0,0.0,0.0,0.0,0.0,0.0,0.0,0.0,0.0,0.0,0.0,-0.602,0.0,0.0,0.0,0.0,0.0,0.0,0.0,0.0,0.0,0.0,0.0,0.0,0.0,0.0,0.0555,-0.0149,-0.3575,-0.6348,0.0,0.0,-0.8965,-0.934,-0.9823,-1.0159,0.0,0.0,0.0,0.0,0.0,0.0,0.0,0.0,0.0,0.0,0.0,0.0,0.0,0.0,0.0,0.0,0.0,0.0,0.0,0.0,0.0,0.0,0.0,0.0,0.0,0.0,0.0,0.0,0.0,0.0,0.0,0.0,0.0,0.0,0.0,0.0,0.0,0.0,0.0,0.0,0.0,0.0,0.0,0.0,0.0,0.0,0.0,0.0,0.0,0.0,0.0,0.0,0.0,0.0,0.0,0.3869,0.312,0.2728,0.2636,0.0926,-0.0859,-0.2631,-0.3217,-0.3868,0.0,0.0,0.0,0.0,0.0,0.0,0.0,0.0,0.0,0.0,0.0,0.0,0.0,0.0,0.0,0.0,0.0,0.0,0.0,0.0,0.0,0.0,0.0,0.0,0.0,0.0,0.0,0.0,0.0,0.0,0.0,0.0,0.0,0.0,0.0,0.0,0.0,0.0,0.0,0.0,0.0,0.3713,0.181,-0.2729,-0.5956,0.0,-0.7546,-0.8671,-0.8822,-0.9508,-1.0006,-1.0008,0.0,0.0,0.0,0.0,0.0,0.0,0.0,0.0,0.0,0.0,0.0,0.0,0.0,0.0,0.0,0.0,0.0,0.0,0.0,0.0,0.0,0.0,0.0,0.0,0.0,0.0,0.0,0.0,0.0,0.0,0.0,0.0,0.0,0.0,0.0,0.0,0.0,0.0,0.0,0.0,0.0,0.0,0.0,0.0,0.0,0.0,0.0,0.0,0.0,0.0,0.0,0.0,0.0,0.3544,0.3647,0.3025,0.2683,0.2633,0.0926,-0.0859,-0.2657,-0.3211,-0.3953,0.0,0.0,0.0,0.0,0.0,0.0,0.0,0.0,0.0,0.0,0.0,0.0,0.0,0.0,0.0,0.0,0.0,0.0,0.0,0.0,0.0,0.0,0.0,0.0,0.0,0.0,0.0,0.0,-0.6295,-0.6147,-0.6341,0.0,0.0,0.0,0.0,0.0,0.0,0.0,0.0,0.0,0.0,0.3114,0.3532,-0.0404,0.0,0.0,-0.6675,-0.7595,-0.8275,-0.893,-0.9646,-1.044,-1.0695,0.0,0.0,0.0,0.0,0.0,0.0,0.0,0.0,0.0,0.0,0.0,0.0,0.0,0.0,0.0,0.0,0.0,0.0,0.0,0.0,0.0,0.0,0.0,0.0,0.0,0.0,0.0,0.0,0.0,0.0,0.0,0.0,0.0,0.0,0.0,0.0,0.0,0.0,0.0,0.0,0.0,0.0,0.0,0.0,0.0,0.0,0.0,0.0,0.0,0.0,0.0,0.0,0.3356,0.3375,0.2934,0.2688,0.2689,0.0926,-0.0859,-0.2633,-0.3217,-0.4006,0.0,0.0,0.0,0.0,0.0,0.0,0.0,0.0,0.0,0.0,0.0,0.0,0.0,0.0,0.0,0.0,0.0,0.0,0.0,0.0,0.0,0.0,0.0,0.0,0.0,0.0,0.0,0.0,-0.6491,-0.6347,-0.623,0.0,0.0,0.0,0.0,0.0,0.0,0.0,0.0,0.0,0.0,0.4407,0.5024,0.1601,-0.1956,-0.4689,-0.5942,-0.7077,-0.8427,-0.9251,-1.0095,-1.1106,0.0,0.0,0.0,0.0,0.0,0.0,0.0,0.0,0.0,0.0,0.0,0.0,0.0,0.0,0.0,0.0,0.0,0.0,0.0,0.0,0.0,0.0,0.0,0.0,0.0,0.0,0.0,-0.471,0.0,0.0,-0.3948,0.0,0.0,0.0,0.0,0.0,0.0,0.0,0.0,0.0,0.0,0.0,0.0,0.0,0.0,0.0,0.0,0.0,0.0,0.0,0.0,0.0,0.0,0.2994,0.3114,0.2851,0.2691,0.2655,0.0928,-0.0881,-0.2633,-0.3217,-0.4006,-0.5069,0.0,0.0,0.0,0.0,0.0,0.0,0.0,0.0,0.0,0.0,0.0,0.0,0.0,0.0,0.0,0.0,0.0,0.0,0.0,0.0,0.0,0.0,0.0,0.0,0.0,0.0,-0.6694,-0.6759,-0.6681,0.0,0.0,0.0,0.0,0.0,0.0,0.0,0.0,0.0,0.0,0.5827,0.8659,0.6141,0.2923,-0.0595,-0.3577,-0.5494,-0.7374,-0.9464,-1.0707,-1.1594,0.0,0.0,0.0,0.0,0.0,0.0,0.0,0.0,0.0,0.0,0.0,0.0,0.0,0.0,0.0,0.0,0.0,0.0,0.0,0.0,0.0,0.0,0.0,0.0,0.0,0.0,0.0,-0.6237,-0.6022,0.0,0.0,0.0,0.0,0.0,0.0,0.0,0.0,0.0,0.0,0.0,-0.5365,-0.5576,0.0,0.0,0.0,0.0,0.0,0.0,0.0,0.0,0.0,0.0,0.0,0.0,0.3138,0.357,0.3019,0.2688,0.2665,0.0948,-0.0859,-0.2657,-0.3211,-0.4163,-0.5601,0.0,0.0,0.0,0.0,0.0,0.0,0.0,0.0,0.0,0.0,0.0,0.0,0.0,0.0,0.0,0.0,0.0,0.0,0.0,0.0,0.0,0.0,0.0,0.0,0.0,-0.6908,0.0,0.0,0.0,0.0,0.0,0.0,0.0,0.0,0.0,0.0,0.0,-0.4316,0.0792,0.5473,0.7399,0.4613,-0.0978,-0.493,0.0,0.0,0.0,0.0,0.0,0.0,0.0,0.0,0.0,0.0,0.0,0.0,0.0,0.0,-1.2554,-1.1262,-1.0551,-0.9847,-0.8883,0.0,0.0,0.0,0.0,0.0,0.0,0.0,0.0,0.0,0.0,0.0,0.0,0.0,0.0,-0.7246,-0.7087,-0.6851,0.0,0.0,0.0,0.0,0.0,0.0,0.0,0.0,-0.4597,-0.4841,-0.5385,-0.5845,-0.6207,0.0,-0.6642,-0.6557,0.0,0.0,0.0,0.0,0.0,0.0,0.0,0.0,0.3202,0.3775,0.3125,0.2647,0.2344,0.0817,-0.0773,-0.2337,-0.3282,-0.4407,-0.5704,-0.629,-0.6723,0.0,0.0,0.0,0.0,0.0,0.0,0.0,0.0,0.0,0.0,0.0,0.0,0.0,0.0,0.0,0.0,0.0,0.0,0.0,0.0,0.0,0.0,0.0,-0.7091,0.0,0.0,0.0,0.0,0.0,0.0,0.0,0.0,0.0,-1.0663,-0.9455,-0.6443,-0.0245,0.4551,0.6256,0.2948,0.0,0.0,0.0,0.0,0.0,0.0,0.0,-1.1825,-1.2989,-1.3633,-1.4187,-1.4786,-1.466,-1.4391,-1.4174,0.0,0.0,-1.174,-1.0956,-1.0106,-0.8902,-0.8034,-0.7271,-0.651,-0.5725,-0.509,0.0,0.0,0.0,0.0,0.0,0.0,0.0,0.0,-0.8396,-0.8014,0.0,-0.7718,0.0,0.0,0.0,0.0,-0.5138,-0.5042,0.0,0.0,-0.486,-0.5099,-0.5156,-0.6094,-0.6442,-0.6241,-0.6857,-0.7557,-0.8183,-0.7269,0.0,0.0,0.0,0.0,0.0,0.0,0.3125,0.366,0.3143,0.2541,0.182,0.0624,-0.0599,-0.1847,-0.3423,-0.4639,-0.5464,-0.6183,-0.6748,-0.7164,-0.7227,0.0,0.0,0.0,0.0,0.0,0.0,0.0,0.0,0.0,0.0,0.0,0.0,0.0,0.0,0.0,0.0,0.0,0.0,0.0,0.0,-0.7809,0.0,0.0,0.0,0.0,0.0,0.0,0.0,0.0,0.0,0.0,-1.2912,-1.1415,-0.839,-0.2679,0.0,0.0,0.0,0.0,-0.1762,-0.7483,-0.7805,-0.8298,-1.0806,-1.2229,-1.3146,-1.3546,0.0,0.0,-1.4739,-1.4661,-1.4592,-1.4464,-1.406,-1.3392,-1.2415,-1.1826,-1.1008,-0.951,-0.8561,-0.7699,-0.6435,-0.5564,-0.4809,-1.094,0.0,0.0,0.0,0.0,-1.1261,-1.1084,-1.1066,-1.0061,-0.9741,-0.9928,-0.9344,0.0,0.0,0.0,0.0,0.0,0.0,-0.5303,-0.5094,-0.4775,-0.4759,-0.5132,-0.5539,-0.6001,-0.6491,-0.6825,-0.7555,-0.862,-0.8509,-0.7842,-0.6673,0.0,0.0,0.0,0.0,0.222,0.3311,0.2848,0.2302,0.1809,0.0622,-0.0861,-0.2677,-0.3369,-0.4188,-0.5189,-0.5743,-0.6329,-0.6969,-0.7525,0.0,0.0,0.0,0.0,0.0,0.0,0.0,0.0,0.0,0.0,0.0,0.0,0.0,0.0,0.0,0.0,0.0,0.0,0.0,-0.7641,-0.7679,-0.8472,0.0,0.0,0.0,0.0,0.0,0.0,0.0,0.0,0.0,-1.4301,-1.2159,-0.8869,0.0,0.0,0.2565,-0.023,-0.2663,-0.4966,-0.7157,-0.7465,0.0,-0.9871,-1.0494,-1.1165,-1.2296,-1.3353,-1.4266,-1.4944,-1.4969,-1.4916,-1.502,-1.461,-1.3962,-1.3025,-1.1924,-1.0755,-0.9465,-0.8217,-0.7132,-0.6253,-0.5172,-0.4202,-1.1066,-1.1419,-1.2249,-1.2851,-1.3209,-1.2375,-1.2073,-1.2048,-1.0889,-1.0542,-1.0808,-1.044,-1.0274,-1.0171,-0.9774,0.0,0.0,0.0,-0.5756,-0.4999,-0.4705,-0.4647,-0.4802,-0.5116,-0.5595,-0.6171,-0.6581,-0.7472,-0.8788,-0.8853,-0.8697,-0.8248,0.0,0.0,-0.1059,0.0185,0.1484,0.2827,0.2856,0.2494,0.1809,0.0155,-0.1435,-0.288,-0.3196,-0.3846,-0.49,-0.5327,-0.5909,-0.6739,-0.7315,-0.7623,0.0,0.0,0.0,0.0,0.0,0.0,0.0,0.0,0.0,0.0,0.0,-0.6493,-0.6758,0.0,0.0,0.0,-0.6828,-0.7139,-0.8101,-0.8327,0.0,0.0,0.0,0.0,0.0,0.0,0.0,-1.5514,-1.6389,-1.6357,-1.4825,-1.2712,-0.9599,-0.4998,-0.2147,-0.0723,-0.1281,0.0,-0.527,-0.6832,-0.7323,-0.7934,-0.9213,-0.9643,-1.0287,-1.1726,-1.2763,-1.3861,-1.5044,-1.5142,-1.5086,-1.5205,-1.497,-1.4381,-1.3436,-1.2181,-1.0843,-0.9473,-0.8173,-0.7023,-0.601,-0.4941,-0.4178,-1.0395,-1.15,-1.3037,-1.3786,-1.3952,-1.2924,-1.2477,-1.235,-1.1068,-1.0725,-1.1021,-1.1161,-1.1205,-1.1146,-1.0552,0.0,-0.7663,-0.7232,-0.6135,-0.4557,-0.471,-0.4615,-0.4334,-0.4835,-0.5208,-0.5478,-0.6171,-0.7271,-0.8645,-0.851,-0.8816,-0.9528,-0.7311,-0.4821,-0.2189,-0.0654,0.0785,0.2127,0.2878,0.2739,0.1591,-0.0624,-0.208,-0.2702,-0.2944,-0.3574,-0.4611,-0.4937,-0.5526,-0.6485,-0.6778,-0.709,-0.7538,0.0,0.0,0.0,0.0,0.0,0.0,0.0,0.0,0.0,0.0,0.0,0.0,0.0,0.0,0.0,-0.6912,0.0,-0.8694,-0.9409,0.0,0.0,0.0,-1.3226,-1.4132,-1.6019,-1.6989,-1.6283,0.0,0.0,-1.4724,-1.301,-1.0469,-0.6264,-0.514,-0.4072,-0.2192,-0.2559,-0.3801,-0.6533,-0.7091,-0.7611,-0.8519,-0.9214,-1.006,-1.1373,-1.234,-1.3376,-1.4907,-1.5056,-1.4997,-1.5262,-1.5143,-1.4703,-1.3705,-1.2601,-1.1346,-0.9721,-0.8481,-0.7227,-0.5864,-0.5118,-0.4706,-0.9266,-0.9671,-1.1131,-1.2122,-1.2678,-1.2619,-1.2376,-1.1959,-1.1113,-1.1267,-1.2147,-1.1647,-1.1613,-1.1914,-1.1293,-1.0385,-0.9203,-0.8009,-0.679,-0.5604,-0.5054,-0.4631,-0.433,-0.4642,-0.4923,-0.5203,-0.5569,-0.6554,-0.7949,-0.774,-0.805,-0.8832,-0.7476,-0.5662,-0.3475,-0.2133,-0.0648,0.0991,0.135,0.0959,-0.0222,-0.1274,-0.208,-0.2676,-0.2762,-0.3301,-0.4337,-0.4671,-0.5156,-0.5946,-0.6524,-0.6983,-0.7294,-0.7738,0.0,0.0,0.0,0.0,0.0,0.0,0.0,0.0,0.0,-0.6834,-0.6831,0.0,-0.6464,0.0,-0.7557,-0.8205,-0.8735,-0.944,0.0,0.0,-1.2713,-1.3368,-1.5122,-1.5788,-1.6311,-1.6885,-1.6996,-1.6334,-1.4552,-1.2715,-1.0978,-0.9298,-0.7276,-0.5683,-0.4969,-0.4707,-0.5026,-0.6018,-0.5861,-0.5859,-0.7028,-0.8057,-0.9086,-1.0143,-1.0922,-1.2224,-1.4673,-1.4566,-1.4401,-1.5103,-1.5185,-1.4765,-1.4014,-1.2965,-1.1912,-1.0831,-0.9112,-0.7486,-0.6677,-0.5995,-0.5532,-0.8239,-0.8741,-0.9853,-1.0661,-1.1209,-1.1622,-1.1663,-1.1363,-1.0744,-1.1005,-1.19,-1.1953,-1.1988,-1.1957,-1.1505,-1.0573,-0.9279,-0.8309,-0.7105,-0.5747,-0.5279,-0.4877,-0.4534,-0.4649,-0.4844,-0.5112,-0.5587,-0.6376,-0.7412,-0.7385,-0.7735,-0.8469,-0.7332,-0.61,-0.4744,-0.3378,-0.2032,-0.0748,-0.0177,-0.0347,-0.1275,-0.1615,-0.2078,-0.2676,-0.2695,-0.3199,-0.4268,-0.4451,-0.4893,-0.5646,-0.6218,-0.6661,-0.6937,-0.7517,-0.7896,0.0,0.0,0.0,0.0,0.0,0.0,0.0,0.0,0.0,0.0,0.0,-0.631,-0.6336,-0.7534,-0.8385,-0.8609,-0.9495,-1.0712,-1.2279,-1.2739,-1.3456,-1.4669,-1.5179,-1.5523,-1.5711,-1.5509,-1.4804,-1.332,-1.163,-1.0354,-0.9756,-0.7685,-0.6136,-0.5937,-0.5318,-0.5043,-0.5631,-0.5225,-0.5156,-0.6265,-0.7227,-0.8147,-0.8998,-0.9888,-1.1159,-1.2997,-1.3616,-1.4057,-1.4954,-1.5145,-1.4914,-1.4204,-1.3295,-1.2354,-1.1387,-1.0034,-0.8672,-0.7843,-0.6944,-0.6336,-0.7239,-0.8047,-0.8764,-0.9307,-0.9726,-1.0234,-1.0537,-1.0655,-1.0257,-1.0424,-1.1041,-1.1975,-1.2079,-1.1592,-1.1261,-1.0239,-0.878,-0.8275,-0.7144,-0.5568,-0.5497,-0.5262,-0.4894,-0.4897,-0.5022,-0.5247,-0.5907,-0.6486,-0.7005,-0.7246,-0.7635,-0.8078,-0.705,-0.6293,-0.5761,-0.4373,-0.3212,-0.2396,-0.1488,-0.1292,-0.1898,-0.1877,-0.2188,-0.2762,-0.2805,-0.3283,-0.4309,-0.4349,-0.4683,-0.542,-0.5906,-0.6273,-0.6536,-0.7191,-0.7739,0.0,-0.8423,0.0,0.0,0.0,0.0,0.0,0.0,0.0,0.0,-0.6735,-0.6049,-0.5611,-0.7091,-0.8148,-0.8356,-0.9507,-1.0584,-1.127,-1.2387,-1.3143,-1.3345,-1.4084,-1.4328,-1.3631,-1.3465,-1.2915,-1.1655,-1.0264,-0.9311,-0.8894,-0.7305,-0.6125,-0.6025,-0.515,-0.4681,-0.526,-0.5068,-0.5199,-0.6074,-0.6802,-0.7533,-0.8274,-0.9376,-1.037,-1.1416,-1.2697,-1.3908,-1.4777,-1.5129,-1.4994,-1.4367,-1.3658,-1.2851,-1.1991,-1.1169,-1.0277,-0.9109,-0.7972,-0.7449,-0.6193,-0.6401,-0.6962,-0.773,-0.8518,-0.8646,-0.9224,-1.0067,-0.9974,-1.0299,-1.0908,-1.1143,-1.115,-1.0996,-1.0368,-0.9754,-0.9109,-0.7816,-0.6889,-0.627,-0.5959,-0.5632,-0.5312,-0.5842,-0.597,-0.5857,-0.6203,-0.6622,-0.7083,-0.7131,-0.7202,-0.7282,-0.6785,-0.6275,-0.5836,0.0,0.0,0.0,-0.1892,-0.1928,-0.2507,-0.2366,-0.2628,-0.3308,-0.335,0.0,-0.4571,-0.4628,-0.4779,-0.5161,-0.5681,0.0,0.0,0.0,0.0,0.0,0.0,0.0,0.0,0.0,0.0,0.0,-0.9269,-0.9273,-0.9077,-0.6821,-0.5523,-0.5942,-0.647,-0.7139,-0.8063,-0.94,-1.0265,-1.044,-1.0957,-1.1301,-1.1367,-1.1656,-1.1783,-1.1664,-1.1462,-1.1121,-1.042,-0.9651,-0.9033,-0.8613,-0.7299,-0.6471,-0.6397,-0.5598,-0.4998,-0.4936,-0.5044,-0.5347,-0.6094,-0.6851,-0.7613,-0.8407,-0.9563,-1.0774,-1.1911,-1.2887,-1.3901,-1.4818,-1.5165,-1.5117,-1.4612,-1.4224,-1.3724,-1.3092,-1.2648,-1.192,-1.0268,-0.9268,-0.8942,-0.5628,-0.5565,-0.6362,-0.7281,0.0,-0.8206,-0.8641,-0.9373,-0.9567,-1.0033,-1.0659,-1.0832,-1.0787,-1.0636,-1.0253,-0.9696,-0.9027,-0.8219,-0.7496,-0.6786,-0.6578,-0.6304,-0.5961,-0.6257,-0.6304,-0.6216,-0.6586,-0.6865,-0.7104,-0.7305,-0.7396,-0.7378,-0.6794,-0.6388,-0.6187,-0.514,-0.4092,-0.3095,-0.2878,-0.2869,-0.3082,-0.3184,-0.3318,-0.3497,-0.4067,0.0,0.0,0.0,0.0,0.0,0.0,0.0,0.0,0.0,0.0,-0.7781,-0.8148,-0.853,-0.8917,-0.9074,-0.9231,-0.9393,-0.9963,-0.9859,-0.8849,-0.696,-0.5886,-0.5994,-0.6731,-0.7248,-0.7278,-0.8605,-0.9339,-0.901,-0.9284,-0.9448,-0.9267,-0.9311,-0.944,-0.9612,-0.9596,-0.9448,-0.9419,-0.9009,-0.8673,-0.8466,-0.7534,-0.6781,-0.6627,-0.5888,-0.5268,-0.5278,-0.5641,-0.5996,-0.6347,-0.6973,-0.7798,-0.8714,-0.9684,-1.0866,-1.2295,-1.3086,-1.3869,-1.473,-1.5095,-1.5087,-1.4843,-1.4532,-1.4174,-1.3822,-1.3486,-1.3084,-1.2148,-1.1427,-1.0944,-0.5432,-0.5355,-0.6175,-0.7108,-0.8004,-0.8004,-0.8269,-0.8761,-0.9204,0.0,0.0,-1.0574,-1.0545,-1.0222,-1.0147,-0.9591,-0.8706,-0.8584,-0.7977,-0.713,-0.7097,-0.691,-0.662,-0.6616,-0.662,-0.6655,-0.7026,-0.7212,-0.7227,-0.7473,-0.7564,-0.7412,-0.6764,-0.6336,-0.6213,-0.5254,-0.4503,-0.4103,-0.3886,-0.3767,-0.3624,-0.3911,-0.3946,-0.368,-0.4619,-0.5315,-0.5744,-0.5871,-0.5951,-0.5926,-0.626,-0.631,-0.6038,-0.6525,-0.7022,-0.7419,-0.778,-0.8172,-0.8671,-0.8967,-0.9262,-0.9643,-1.0367,-1.0082,-0.8351,-0.7813,-0.7114,-0.6127,-0.7468,-0.7916,-0.6781,-0.7877,-0.8447,-0.7709,-0.7973,-0.8071,-0.7718,-0.7608,-0.7875,-0.8058,-0.8178,-0.8233,-0.8557,-0.8388,-0.8241,-0.8232,-0.7681,-0.7221,-0.7059,-0.638,-0.5821,-0.5987,-0.6419,-0.6814,-0.7034,-0.748,-0.8244,-0.9465,-1.0259,-1.118,-1.2434,-1.3291,-1.3942,-1.4653,-1.4938,-1.5005,-1.4971,-1.4746,-1.4475,-1.431,-1.4049,-1.3863,-1.3956,-1.3496,-1.296,-0.5809,-0.589,-0.5907,-0.6426,-0.7255,-0.725,-0.7676,-0.841,-0.911,-0.9457,-0.9575,-0.9893,-0.9841,-0.9522,-0.9185,-0.8789,-0.8331,-0.7647,-0.7262,-0.7114,-0.7118,-0.7071,-0.7028,-0.7348,-0.7511,-0.752,-0.7579,-0.7613,-0.7589,-0.734,-0.7034,-0.6669,-0.6217,-0.5824,-0.5495,-0.5277,-0.5151,-0.5077,-0.423,-0.3906,-0.4101,-0.3999,-0.4103,-0.4441,-0.4683,-0.5397,-0.6635,-0.6155,-0.5983,-0.6284,-0.6245,-0.6307,-0.6411,-0.6566,-0.6829,-0.7211,-0.7614,-0.7984,-0.8362,-0.9086,-0.9867,-1.0569,-1.0306,-0.9893,-0.9613,-1.0577,-0.9935,-0.7015,-0.8324,-0.8997,-0.7773,-0.8149,-0.8313,-0.7859,-0.8047,-0.8138,-0.7705,-0.7652,-0.7676,-0.7763,-0.7768,-0.7797,-0.7884,-0.7836,-0.7817,-0.7803,-0.7725,-0.7715,-0.7876,-0.7342,-0.6886,-0.692,-0.7122,-0.7564,-0.8117,-0.865,-0.9474,-1.0851,-1.1759,-1.2355,-1.2882,-1.3648,-1.4257,-1.452,-1.4699,-1.484,-1.4892,-1.499,-1.4785,-1.4564,-1.4484,-1.4546,-1.4349,-1.4233,-1.4248,-0.6273,-0.6434,-0.6217,-0.6499,-0.7119,-0.7339,-0.7629,-0.7994,-0.8556,-0.8904,-0.9062,-0.9224,-0.9224,-0.9062,-0.8871,-0.8629,-0.8285,-0.7922,-0.7632,-0.7437,-0.7403,-0.7437,-0.7437,-0.7598,-0.7695,-0.7695,-0.7695,-0.7695,-0.7661,-0.751,-0.7344,-0.7136,-0.6548,-0.5917,-0.534,-0.5312,-0.5312,-0.5277,-0.4831,-0.4676,-0.4796,-0.5129,-0.5189,-0.4957,-0.5808,-0.6401,-0.6611,-0.6746,-0.6821,-0.6787,-0.6611,-0.6514,-0.6506,-0.643,-0.6577,-0.7006,-0.7207,-0.7487,-0.7836,-0.8785,-0.9722,-1.057,-1.0273,-1.0063,-1.018,-1.0284,-0.9882,-0.8759,-0.8869,-0.8916,-0.8847,-0.8415,-0.8264,-0.8852,-0.8208,-0.7559,-0.734,-0.7123,-0.7136,-0.7339,-0.7373,-0.7471,-0.7695,-0.7695,-0.7695,-0.77,-0.787,-0.8233,-0.8773,-0.8545,-0.8186,-0.7951,-0.8271,-0.8665,-0.9018,-0.9435,-1.0309,-1.1642,-1.2385,-1.2956,-1.3406,-1.4022,-1.4219,-1.4298,-1.4466,-1.4648,-1.4713,-1.4786,-1.4662,-1.4388,-1.4433,-1.4439,-1.4291,-1.4439,-1.462,-0.6706,-0.69,-0.6666,-0.6826,-0.7261,-0.7559,-0.7695,-0.7725,-0.8038,-0.8303,-0.854,-0.8706,-0.8761,-0.8679,-0.8684,-0.8495,-0.8195,-0.8176,-0.8015,-0.7725,-0.7695,-0.7695,-0.7695,-0.7695,-0.7695,-0.7691,-0.7627,-0.7573,-0.7539,-0.7383,-0.7239,-0.7111,-0.6553,-0.5913,-0.5312,-0.5312,-0.5312,-0.5312,-0.5312,-0.5337,-0.5463,-0.6051,-0.61,-0.5743,-0.6748,-0.7168,-0.674,-0.7269,-0.748,-0.7236,-0.6996,-0.6777,-0.6581,-0.6374,-0.6409,-0.6723,-0.6962,-0.7391,-0.8019,-0.8731,-0.9583,-1.0484,-1.027,-1.0165,-1.0377,-0.9696,-0.9445,-0.9935,-0.9313,-0.9129,-0.9551,-0.8806,-0.842,-0.9218,-0.8244,-0.7413,-0.717,-0.6922,-0.6884,-0.7178,-0.7241,-0.7373,-0.7593,-0.7627,-0.7569,-0.7588,-0.8057,-0.864,-0.9155,-0.9363,-0.9303,-0.9194,-0.9388,-0.9701,-0.9808,-1.0231,-1.1108,-1.2402,-1.2901,-1.3356,-1.3868,-1.4101,-1.409,-1.4059,-1.4177,-1.4351,-1.4466,-1.4503,-1.4345,-1.4008,-1.3971,-1.3965,-1.3801,-1.4284,-1.4618,-0.7046,-0.7077,-0.7068,-0.728,-0.7613,-0.7681,-0.7695,-0.7695,-0.7754,-0.7749,-0.7889,-0.8489,-0.8612,-0.8365,-0.8336,-0.8143,-0.7783,-0.7754,-0.7754,-0.77,-0.7695,-0.7695,-0.7661,-0.7695,-0.7695,-0.7627,-0.7334,-0.7212,-0.7152,-0.6535,-0.5955,-0.5554,-0.5432,-0.5445,-0.5316,-0.5316,-0.5312,-0.5312,-0.5312,-0.5498,-0.5805,-0.5913,-0.6212,-0.672,-0.6591,-0.687,-0.7487,-0.7303,-0.7319,-0.7574,-0.7283,-0.6985,-0.6792,-0.657,-0.6428,-0.6367,-0.719,-0.8283,-0.9467,-0.9487,-0.9794,-1.0689,-1.0277,-1.0068,-1.0343,-1.0023,-0.9692,-0.9659,-1.0177,-1.0251,-0.9948,-0.9329,-0.8623,-0.8118,-0.8093,-0.8052,-0.7705,-0.7598,-0.7603,-0.7632,-0.7598,-0.7656,-0.7661,-0.7437,-0.7246,-0.7364,-0.8192,-0.8856,-0.9078,-0.9626,-1.0102,-1.0138,-1.0097,-1.03,-1.0849,-1.1302,-1.205,-1.333,-1.3735,-1.388,-1.4029,-1.4028,-1.3897,-1.3931,-1.385,-1.402,-1.4127,-1.4221,-1.4088,-1.3622,-1.3418,-1.3296,-1.3283,-1.3939,-1.4473,-0.7442,-0.7452,-0.7442,-0.7535,-0.7686,-0.7695,-0.7695,-0.7695,-0.7695,-0.7695,-0.7725,-0.8023,-0.808,-0.7947,-0.7952,-0.7841,-0.77,-0.7695,-0.7695,-0.7695,-0.7695,-0.7583,-0.7356,-0.733,-0.7237,-0.7032,-0.7066,-0.7123,-0.7134,-0.7275,-0.7288,-0.7132,-0.6913,-0.6538,-0.6061,-0.5765,-0.5522,-0.5312,-0.5312,-0.5613,-0.6171,-0.6258,-0.6479,-0.6863,-0.7087,-0.7323,-0.7641,-0.755,-0.7525,-0.7661,-0.7301,-0.7112,-0.7153,-0.7034,-0.701,-0.7108,-0.7702,-0.8486,-0.937,-0.9462,-0.974,-1.0297,-1.0263,-1.0116,-0.9841,-0.9858,-0.9713,-0.9413,-0.9646,-0.9855,-0.9794,-0.8939,-0.8154,-0.7794,-0.7854,-0.7976,-0.8062,-0.7841,-0.7695,-0.7695,-0.7695,-0.7695,-0.7661,-0.7569,-0.7588,-0.7851,-0.8655,-0.9277,-0.9614,-1.0351,-1.1084,-1.1549,-1.145,-1.1349,-1.1755,-1.2162,-1.2807,-1.3465,-1.3824,-1.3955,-1.4212,-1.4172,-1.4038,-1.3927,-1.3858,-1.3748,-1.3663,-1.3955,-1.3995,-1.3371,-1.3103,-1.3098,-1.3457,-1.3833,-1.4132,-0.7695,-0.7695,-0.7695,-0.7695,-0.7695,-0.7695,-0.7768,-0.7846,-0.7754,-0.7759,-0.7866,-0.7759,-0.7695,-0.7695,-0.7695,-0.7695,-0.7695,-0.7695,-0.7695,-0.7695,-0.7695,-0.7618,-0.7472,-0.7446,-0.7349,-0.7204,-0.7125,-0.6967,-0.6865,-0.7601,-0.8017,-0.797,-0.7878,-0.7403,-0.6684,-0.6351,-0.5996,-0.5591,-0.5558,-0.5891,-0.6497,-0.6597,-0.6781,-0.7107,-0.7492,-0.7703,-0.768,-0.7693,-0.7695,-0.7686,-0.7432,-0.7284,-0.7326,-0.7419,-0.7674,-0.8053,-0.8354,-0.8738,-0.9289,-0.9544,-0.9755,-0.9887,-1.0171,-1.0086,-0.9719,-0.9785,-0.9779,-0.9511,-0.9249,-0.9226,-0.9113,-0.8642,-0.8135,-0.7781,-0.7676,-0.7831,-0.8062,-0.7865,-0.7695,-0.7695,-0.7695,-0.7632,-0.7564,-0.7603,-0.7783,-0.8084,-0.8945,-0.976,-1.0267,-1.1067,-1.1962,-1.2609,-1.2559,-1.2546,-1.2543,-1.2673,-1.3199,-1.3555,-1.3833,-1.4012,-1.4337,-1.4248,-1.4074,-1.3856,-1.3818,-1.3693,-1.3472,-1.3669,-1.3701,-1.2934,-1.2673,-1.2848,-1.3063,-1.3516,-1.4149,-0.7695,-0.7695,-0.7695,-0.7695,-0.7695,-0.7695,-0.7964,-0.8281,-0.7905,-0.7974,-0.8271,-0.7905,-0.77,-0.7715,-0.7715,-0.7695,-0.7695,-0.7695,-0.7715,-0.7734,-0.7734,-0.7935,-0.8325,-0.8358,-0.8469,-0.8336,-0.7495,-0.6715,-0.6059,-0.6752,-0.7058,-0.7161,-0.7696,-0.7569,-0.7114,-0.7028,-0.6701,-0.6269,-0.6194,-0.6413,-0.6847,-0.693,-0.7193,-0.764,-0.7686,-0.7681,-0.7695,-0.7686,-0.7695,-0.7695,-0.7656,-0.7481,-0.7239,-0.7654,-0.8292,-0.8891,-0.9039,-0.9302,-0.9742,-0.9843,-0.99,-0.9923,-1.0009,-1.0014,-0.9951,-0.9986,-0.9951,-0.9992,-0.9333,-0.8754,-0.8253,-0.8787,-0.8805,-0.7925,-0.7725,-0.7749,-0.7783,-0.7783,-0.7695,-0.7729,-0.7764,-0.767,-0.7278,-0.7471,-0.7762,-0.8088,-0.8854,-0.9843,-1.0475,-1.1423,-1.2352,-1.2858,-1.3279,-1.3606,-1.3542,-1.336,-1.3396,-1.3908,-1.4297,-1.4161,-1.4145,-1.4153,-1.404,-1.3876,-1.3848,-1.3712,-1.3377,-1.3163,-1.3007,-1.2629,-1.2357,-1.2442,-1.2835,-1.3601,-1.4279,-0.7695,-0.7695,-0.7695,-0.7695,-0.7695,-0.7695,-0.7943,-0.8374,-0.8245,-0.8407,-0.867,-0.8339,-0.8164,-0.8135,-0.7847,-0.7695,-0.7695,-0.7695,-0.7846,-0.811,-0.814,-0.8078,-0.7881,-0.789,-0.7599,-0.7205,-0.6992,-0.7182,-0.7686,-0.8013,-0.8501,-0.8993,-0.8977,-0.8739,-0.8327,-0.8015,-0.7652,-0.7273,-0.7237,-0.7453,-0.7779,-0.7868,-0.8066,-0.8466,-0.7978,-0.7695,-0.7695,-0.7471,-0.7437,-0.7666,-0.7471,-0.7371,-0.7548,-0.8132,-0.8739,-0.9244,-0.9504,-0.9686,-0.9874,-0.9873,-1.0062,-1.0347,-1.0159,-1.0055,-1.0142,-1.0117,-0.9873,-0.954,-0.9731,-0.9394,-0.8767,-0.8787,-0.8764,-0.8471,-0.8217,-0.8166,-0.8246,-0.8004,-0.7783,-0.8021,-0.8119,-0.8078,-0.805,-0.8264,-0.8534,-0.8641,-0.9429,-1.0321,-1.1222,-1.2443,-1.3526,-1.4037,-1.4236,-1.4414,-1.494,-1.4239,-1.4029,-1.475,-1.5208,-1.5362,-1.5424,-1.5482,-1.5452,-1.5136,-1.477,-1.4233,-1.4069,-1.3502,-1.3204,-1.2852,-1.2532,-1.2392,-1.2678,-1.3337,-1.4134,-0.7695,-0.7695,-0.7695,-0.7695,-0.7695,-0.7695,-0.8057,-0.8532,-0.8441,-0.8677,-0.9043,-0.8773,-0.852,-0.835,-0.8041,-0.7822,-0.7705,-0.77,-0.7964,-0.8381,-0.8406,-0.8327,-0.8274,-0.8223,-0.7977,-0.7615,-0.7609,-0.8052,-0.858,-0.89,-0.9366,-0.9948,-0.9857,-0.9573,-0.9183,-0.8885,-0.8485,-0.8035,-0.8011,-0.828,-0.8612,-0.8567,-0.8669,-0.8882,-0.8406,-0.8104,-0.8109,-0.7864,-0.7758,-0.7859,-0.767,-0.7638,-0.7909,-0.8456,-0.8981,-0.9375,-0.9712,-0.9873,-0.9873,-0.9873,-0.9997,-1.0242,-1.0161,-1.0072,-1.0085,-1.0116,-0.9903,-0.9676,-0.9877,-1.0011,-0.9707,-0.9794,-0.9772,-0.9294,-0.875,-0.8556,-0.8745,-0.8521,-0.8515,-0.8662,-0.85,-0.8477,-0.8589,-0.8823,-0.9028,-0.917,-0.9905,-1.0725,-1.1697,-1.3205,-1.4438,-1.4824,-1.4899,-1.5196,-1.5542,-1.5159,-1.494,-1.5567,-1.5871,-1.618,-1.6528,-1.6658,-1.6608,-1.6322,-1.5846,-1.5217,-1.4606,-1.4026,-1.3574,-1.3208,-1.2762,-1.249,-1.2768,-1.2989,-1.3854,-0.7734,-0.7725,-0.7729,-0.7725,-0.7754,-0.77,-0.8177,-0.879,-0.8535,-0.8804,-0.9404,-0.9127,-0.8759,-0.8462,-0.835,-0.8125,-0.7812,-0.7773,-0.8037,-0.8445,-0.8433,-0.8832,-0.94,-0.9382,-0.9502,-0.9708,-0.9577,-0.8972,-0.8434,-0.9059,-0.9531,-0.9632,-1.005,-1.0007,-0.954,-0.9458,-0.9055,-0.8518,-0.8615,-0.8898,-0.916,-0.9022,-0.8994,-0.9071,-0.9028,-0.9009,-0.9004,-0.8926,-0.8664,-0.8433,-0.8347,-0.8348,-0.8405,-0.8794,-0.9076,-0.9452,-0.9767,-0.9905,-0.9912,-0.9917,-0.9881,-0.9827,-0.9932,-1.0108,-0.9979,-1.0122,-1.0271,-1.029,-1.0329,-1.0341,-1.0526,-1.1632,-1.1858,-1.0231,-0.9249,-0.8911,-0.9001,-0.9333,-0.9638,-0.9563,-0.9072,-0.8668,-0.8882,-0.9121,-0.9307,-0.9726,-1.0122,-1.0868,-1.1943,-1.351,-1.4475,-1.4756,-1.4945,-1.5357,-1.5787,-1.6126,-1.6156,-1.628,-1.6403,-1.6626,-1.711,-1.7339,-1.7254,-1.6976,-1.6415,-1.5783,-1.4937,-1.434,-1.3758,-1.335,-1.2944,-1.2561,-1.2679,-1.2972,-1.3648,-0.8675,-0.813,-0.8124,-0.8109,-0.8067,-0.7807,-0.8066,-0.8547,-0.8427,-0.8833,-0.9427,-0.9189,-0.8917,-0.8776,-0.8525,-0.8342,-0.8179,-0.8188,-0.8403,-0.875,-0.8804,-0.9056,-0.9454,-0.9549,-0.9393,-0.922,-0.9041,-0.9027,-0.9134,-0.938,-0.9642,-1.004,-1.0205,-1.0205,-1.0035,-1.004,-0.9859,-0.9693,-0.9746,-0.9856,-0.9954,-0.9887,-0.9848,-0.9907,-0.9883,-0.9883,-0.9853,-0.9074,-0.8683,-0.8809,-0.8536,-0.8655,-0.924,-0.9958,-1.0191,-1.0008,-1.0272,-1.0276,-1.0,-1.0243,-1.0386,-1.0368,-1.0537,-1.0614,-1.0536,-1.0349,-1.0467,-1.0736,-1.107,-1.1111,-1.0707,-1.1566,-1.1701,-1.0087,-0.9715,-0.9737,-1.0053,-1.0315,-1.0442,-1.0263,-0.9974,-0.9882,-0.9908,-0.9939,-1.0076,-1.0362,-1.0469,-1.0984,-1.2731,-1.3438,-1.4151,-1.4734,-1.4993,-1.5233,-1.5593,-1.5979,-1.6249,-1.6551,-1.6843,-1.7187,-1.7666,-1.7936,-1.785,-1.752,-1.6976,-1.6285,-1.5406,-1.4781,-1.4304,-1.3538,-1.3023,-1.2777,-1.2597,-1.3038,-1.3795,-0.9215,-0.8611,-0.8406,-0.8205,-0.8103,-0.797,-0.8218,-0.8634,-0.8793,-0.9125,-0.9512,-0.9535,-0.9277,-0.9028,-0.8877,-0.8755,-0.8623,-0.8613,-0.8838,-0.9189,-0.9203,-0.9445,-0.9762,-0.9797,-0.9642,-0.9359,-0.9279,-0.9483,-0.976,-0.9804,-0.9957,-1.0244,-1.0322,-1.0322,-1.0322,-1.0322,-1.0322,-1.0322,-1.0283,-1.0322,-1.0361,-1.0472,-1.0587,-1.0636,-1.0582,-1.0572,-1.0489,-0.9589,-0.914,-0.9168,-0.8979,-0.9245,-0.9967,-1.0579,-1.0762,-1.0348,-1.0274,-1.0213,-0.9972,-1.0205,-1.0377,-1.0354,-1.0521,-1.0552,-1.0472,-1.029,-1.0467,-1.0741,-1.1448,-1.1641,-1.1187,-1.1854,-1.1978,-1.1282,-1.0787,-1.0812,-1.1203,-1.1119,-1.1171,-1.1093,-1.0888,-1.0729,-1.0625,-1.0825,-1.0835,-1.0982,-1.0925,-1.1223,-1.2923,-1.3518,-1.4141,-1.4613,-1.4793,-1.5061,-1.536,-1.5783,-1.625,-1.6742,-1.7246,-1.7748,-1.8253,-1.8422,-1.8429,-1.8009,-1.7484,-1.6884,-1.6088,-1.5677,-1.5191,-1.4255,-1.3439,-1.3406,-1.3472,-1.3466,-1.4128,-0.9568,-0.9111,-0.8607,-0.8243,-0.7975,-0.8245,-0.8564,-0.9001,-0.9334,-0.9466,-0.9613,-0.9917,-0.9717,-0.9209,-0.9331,-0.9291,-0.9097,-0.9043,-0.9272,-0.9534,-0.9651,-0.987,-1.0186,-1.0196,-1.0162,-1.0166,-1.0162,-1.0244,-1.0201,-1.0205,-1.0278,-1.0322,-1.0322,-1.0322,-1.0322,-1.0322,-1.0356,-1.039,-1.0395,-1.0395,-1.051,-1.0845,-1.111,-1.1271,-1.1126,-1.1057,-1.0998,-1.051,-1.0048,-0.9741,-0.982,-1.0161,-1.0603,-1.0939,-1.1057,-1.0581,-1.0209,-1.0202,-1.009,-1.0284,-1.0178,-0.992,-1.0202,-1.0088,-0.9962,-1.025,-1.051,-1.0664,-1.1573,-1.2141,-1.2037,-1.2557,-1.3008,-1.3104,-1.2187,-1.1906,-1.2202,-1.167,-1.1812,-1.2144,-1.1769,-1.1149,-1.1169,-1.152,-1.1468,-1.1403,-1.1545,-1.2042,-1.2773,-1.3582,-1.406,-1.436,-1.4537,-1.4738,-1.4979,-1.5441,-1.5905,-1.6533,-1.7095,-1.7688,-1.8294,-1.8513,-1.8581,-1.8177,-1.7876,-1.7313,-1.6818,-1.6372,-1.5864,-1.5118,-1.4647,-1.4487,-1.4386,-1.4377,-1.4906,-1.0635,-0.9869,-0.9026,-0.8813,-0.8923,-0.8607,-0.8623,-0.8999,-0.9149,-0.925,-0.9258,-0.9612,-0.9552,-0.9072,-0.9453,-0.9524,-0.9487,-0.9473,-0.9702,-1.0063,-1.0103,-1.0151,-1.0302,-1.0322,-1.0322,-1.0322,-1.0322,-1.0322,-1.0322,-1.0322,-1.0322,-1.0322,-1.0322,-1.0322,-1.0322,-1.0317,-1.0505,-1.0759,-1.0797,-1.1024,-1.1367,-1.1479,-1.1627,-1.1649,-1.1632,-1.1584,-1.1553,-1.1094,-1.0799,-1.0675,-1.1039,-1.1458,-1.1895,-1.2298,-1.2246,-1.1783,-1.169,-1.1504,-1.1206,-1.1161,-1.0984,-1.0604,-1.0669,-1.0574,-1.0184,-1.0535,-1.0986,-1.1367,-1.2062,-1.2508,-1.2768,-1.3079,-1.3369,-1.3671,-1.3131,-1.2623,-1.2539,-1.2871,-1.3139,-1.3001,-1.2453,-1.2159,-1.2003,-1.1962,-1.1926,-1.2006,-1.2129,-1.2412,-1.3153,-1.3359,-1.3713,-1.3973,-1.419,-1.4372,-1.4613,-1.5082,-1.5608,-1.6208,-1.6744,-1.7213,-1.7759,-1.8149,-1.8117,-1.7926,-1.7884,-1.7455,-1.7183,-1.6811,-1.6325,-1.5968,-1.5782,-1.5581,-1.5353,-1.5312,-1.6078,-1.1356,-1.0791,-0.9819,-0.9606,-0.9867,-0.9444,-0.9388,-0.9546,-0.9534,-0.9424,-0.9372,-0.9712,-0.9664,-0.9352,-0.9885,-1.0185,-1.018,-1.019,-1.0326,-1.0517,-1.0375,-1.0312,-1.0322,-1.0322,-1.0322,-1.0322,-1.0322,-1.0322,-1.0322,-1.0322,-1.0322,-1.0322,-1.0322,-1.0395,-1.0616,-1.0611,-1.0835,-1.125,-1.1319,-1.1558,-1.194,-1.2047,-1.2232,-1.228,-1.222,-1.2024,-1.1774,-1.1511,-1.1325,-1.1404,-1.1658,-1.2102,-1.272,-1.3047,-1.2941,-1.2434,-1.2371,-1.2146,-1.1752,-1.1664,-1.1566,-1.1314,-1.1298,-1.1191,-1.1018,-1.1196,-1.1531,-1.1768,-1.2152,-1.2424,-1.27,-1.3257,-1.3894,-1.43,-1.41,-1.3617,-1.3084,-1.3335,-1.3454,-1.3232,-1.2984,-1.2685,-1.2544,-1.2395,-1.2437,-1.2502,-1.2549,-1.2954,-1.3437,-1.3325,-1.3344,-1.3697,-1.4094,-1.4372,-1.4714,-1.5157,-1.558,-1.6148,-1.652,-1.696,-1.7482,-1.7911,-1.7866,-1.7825,-1.7811,-1.7749,-1.7524,-1.7365,-1.7245,-1.6979,-1.684,-1.6758,-1.6578,-1.6526,-1.7286,-1.1817,-1.1775,-1.0789,-1.0457,-1.0609,-1.0493,-1.0457,-1.0519,-1.0404,-1.0103,-0.9871,-1.0125,-1.0026,-0.9726,-1.0467,-1.0993,-1.1025,-1.0908,-1.0821,-1.0797,-1.0654,-1.0587,-1.0462,-1.0356,-1.0322,-1.0322,-1.0322,-1.0322,-1.0322,-1.0322,-1.0322,-1.0361,-1.0356,-1.0616,-1.0873,-1.1019,-1.1399,-1.1763,-1.1842,-1.2022,-1.2322,-1.2502,-1.271,-1.2918,-1.2745,-1.2365,-1.2047,-1.1872,-1.1858,-1.1884,-1.1889,-1.2324,-1.306,-1.3198,-1.2991,-1.2641,-1.2528,-1.2354,-1.1921,-1.1958,-1.186,-1.1813,-1.1776,-1.1808,-1.1699,-1.1765,-1.1911,-1.2065,-1.2177,-1.2333,-1.2482,-1.3598,-1.4595,-1.4966,-1.5053,-1.4749,-1.4149,-1.3608,-1.3295,-1.321,-1.3198,-1.2978,-1.2832,-1.2867,-1.3019,-1.2768,-1.2883,-1.3117,-1.3342,-1.3272,-1.3346,-1.3544,-1.4005,-1.4487,-1.4876,-1.5285,-1.5675,-1.6143,-1.6421,-1.686,-1.7503,-1.7828,-1.776,-1.7772,-1.7992,-1.8078,-1.7975,-1.7919,-1.792,-1.7978,-1.7811,-1.7939,-1.8051,-1.8043,-1.8491,-1.2274,-1.2192,-1.1248,-1.1081,-1.1335,-1.1104,-1.1153,-1.1435,-1.1011,-1.0637,-1.0329,-1.0299,-1.0327,-1.0277,-1.0851,-1.1201,-1.1547,-1.125,-1.0835,-1.0544,-1.1255,-1.118,-1.0829,-1.0495,-1.0356,-1.0361,-1.0322,-1.0322,-1.0322,-1.0322,-1.0322,-1.0361,-1.0616,-1.0905,-1.1057,-1.1468,-1.1878,-1.2246,-1.2348,-1.2556,-1.2875,-1.2967,-1.3084,-1.3226,-1.3148,-1.2838,-1.2478,-1.2365,-1.2335,-1.2341,-1.2371,-1.2627,-1.31,-1.321,-1.3151,-1.3084,-1.3013,-1.2962,-1.2891,-1.2824,-1.2719,-1.2417,-1.2195,-1.1822,-1.1827,-1.2216,-1.2519,-1.2749,-1.292,-1.3002,-1.3155,-1.4498,-1.5286,-1.5517,-1.5606,-1.5428,-1.4894,-1.4445,-1.3861,-1.3431,-1.3204,-1.3163,-1.306,-1.306,-1.3135,-1.306,-1.3126,-1.3219,-1.3281,-1.3321,-1.3576,-1.3835,-1.418,-1.469,-1.5041,-1.5573,-1.6203,-1.6549,-1.6783,-1.6893,-1.7543,-1.8082,-1.8172,-1.8241,-1.8357,-1.8348,-1.8249,-1.8415,-1.8429,-1.8582,-1.8699,-1.8706,-1.8764,-1.9057,-1.9265,-1.2213,-1.2378,-1.1625,-1.1748,-1.2255,-1.1954,-1.1884,-1.1995,-1.1595,-1.1248,-1.1106,-1.0994,-1.102,-1.1082,-1.1489,-1.1909,-1.1962,-1.1621,-1.1099,-1.0802,-1.1024,-1.1024,-1.1057,-1.0797,-1.0654,-1.0616,-1.0395,-1.0322,-1.0322,-1.0337,-1.0322,-1.0361,-1.0822,-1.1137,-1.1394,-1.1889,-1.236,-1.272,-1.2832,-1.2949,-1.317,-1.321,-1.3363,-1.3539,-1.3694,-1.366,-1.3482,-1.3245,-1.3191,-1.3094,-1.2943,-1.2926,-1.3129,-1.3239,-1.3295,-1.3486,-1.352,-1.3642,-1.3728,-1.3801,-1.37,-1.3441,-1.3179,-1.3113,-1.3085,-1.3338,-1.3419,-1.3618,-1.3845,-1.409,-1.4408,-1.5044,-1.5758,-1.5881,-1.6195,-1.6017,-1.5258,-1.4596,-1.4084,-1.3588,-1.3357,-1.3232,-1.321,-1.3273,-1.3425,-1.3446,-1.3541,-1.363,-1.3782,-1.3874,-1.413,-1.4376,-1.4596,-1.4928,-1.526,-1.5876,-1.6794,-1.7204,-1.7524,-1.7511,-1.7735,-1.8284,-1.874,-1.8758,-1.873,-1.8554,-1.85,-1.8689,-1.8868,-1.8968,-1.9052,-1.9142,-1.9257,-1.9406,-1.9573,-1.2104,-1.2472,-1.2027,-1.2349,-1.3085,-1.2743,-1.2591,-1.2555,-1.2088,-1.1866,-1.1886,-1.1837,-1.1715,-1.1959,-1.2234,-1.2473,-1.2401,-1.2216,-1.1768,-1.0981,-1.1024,-1.1099,-1.1169,-1.1175,-1.1212,-1.1132,-1.0848,-1.0684,-1.0777,-1.0646,-1.092,-1.0834,-1.1299,-1.1839,-1.2135,-1.2501,-1.2979,-1.3334,-1.3197,-1.3135,-1.3232,-1.3301,-1.3581,-1.3954,-1.43,-1.4417,-1.4293,-1.4146,-1.4005,-1.3947,-1.3546,-1.3354,-1.3295,-1.3323,-1.3452,-1.3875,-1.396,-1.4208,-1.4431,-1.4578,-1.4631,-1.4638,-1.4537,-1.4529,-1.4488,-1.4337,-1.4278,-1.4405,-1.4642,-1.5277,-1.5962,-1.6258,-1.6369,-1.6632,-1.7166,-1.6685,-1.5705,-1.477,-1.4518,-1.3835,-1.3486,-1.3273,-1.3329,-1.3452,-1.3675,-1.3861,-1.3954,-1.4064,-1.4247,-1.4359,-1.4557,-1.4707,-1.4866,-1.5401,-1.5762,-1.6396,-1.7288,-1.7971,-1.8278,-1.8153,-1.8184,-1.8821,-1.9308,-1.9138,-1.9042,-1.8899,-1.8805,-1.8886,-1.9055,-1.9243,-1.9348,-1.9392,-1.9546,-1.9721,-2.0038,-1.2431,-1.2502,-1.2419,-1.2683,-1.3151,-1.3123,-1.306,-1.3012,-1.2585,-1.2413,-1.236,-1.2001,-1.2079,-1.2312,-1.2431,-1.2508,-1.2615,-1.2579,-1.2204,-1.1425,-1.1542,-1.1878,-1.1658,-1.1741,-1.1898,-1.2039,-1.1828,-1.1847,-1.1977,-1.2157,-1.1995,-1.2276,-1.2958,-1.3309,-1.3104,-1.3508,-1.3727,-1.3728,-1.3452,-1.3217,-1.3273,-1.3621,-1.396,-1.4406,-1.4769,-1.4855,-1.47,-1.4749,-1.4674,-1.4383,-1.4006,-1.3818,-1.3794,-1.3775,-1.3861,-1.4006,-1.4443,-1.4801,-1.4993,-1.5253,-1.5352,-1.5294,-1.5154,-1.4988,-1.4902,-1.4786,-1.4845,-1.5013,-1.546,-1.6153,-1.7345,-1.7316,-1.8121,-1.8702,-1.8833,-1.8299,-1.7275,-1.651,-1.5647,-1.4696,-1.3979,-1.3397,-1.3608,-1.3848,-1.4154,-1.4428,-1.4603,-1.471,-1.4866,-1.4859,-1.4847,-1.4944,-1.505,-1.5708,-1.6358,-1.7057,-1.7843,-1.8724,-1.9026,-1.875,-1.8953,-1.9598,-1.9876,-1.9967,-1.9712,-1.9464,-1.9362,-1.9216,-1.9157,-1.9274,-1.9442,-1.9606,-1.9745,-1.9947,-2.1031,-1.2508,-1.2508,-1.2508,-1.2768,-1.3163,-1.321,-1.321,-1.317,-1.2943,-1.2873,-1.2797,-1.265,-1.2656,-1.2832,-1.2867,-1.2873,-1.2908,-1.2762,-1.2431,-1.1951,-1.2024,-1.2216,-1.223,-1.2435,-1.2846,-1.3213,-1.3286,-1.2939,-1.2681,-1.2857,-1.3004,-1.3131,-1.3778,-1.3932,-1.3764,-1.3897,-1.4118,-1.3973,-1.3552,-1.3251,-1.332,-1.3861,-1.4395,-1.4831,-1.5367,-1.557,-1.5492,-1.5269,-1.5246,-1.498,-1.4519,-1.4265,-1.4244,-1.4381,-1.4399,-1.4381,-1.4866,-1.5381,-1.5665,-1.5998,-1.6196,-1.6165,-1.5993,-1.5849,-1.5751,-1.5722,-1.5694,-1.5953,-1.6474,-1.7294,-1.8418,-1.82,-1.8796,-2.0253,-2.0637,-1.994,-1.8844,-1.8128,-1.6994,-1.5713,-1.4804,-1.4317,-1.4142,-1.4403,-1.4665,-1.4927,-1.5256,-1.5426,-1.5595,-1.5528,-1.547,-1.5603,-1.586,-1.66,-1.737,-1.8134,-1.8857,-1.9646,-1.9973,-1.9705,-1.9681,-2.0311,-2.0828,-2.1145,-2.0764,-2.0117,-1.9743,-1.9551,-1.943,-1.9287,-1.9296,-1.9422,-1.9765,-2.034,-2.1339,-1.2508,-1.2508,-1.2508,-1.2762,-1.317,-1.321,-1.321,-1.321,-1.321,-1.317,-1.321,-1.317,-1.317,-1.3204,-1.317,-1.317,-1.3163,-1.2803,-1.268,-1.2607,-1.2388,-1.2419,-1.2868,-1.3243,-1.3713,-1.4168,-1.4606,-1.4369,-1.3737,-1.3794,-1.3874,-1.4103,-1.4381,-1.449,-1.449,-1.4553,-1.4412,-1.408,-1.3721,-1.343,-1.381,-1.4406,-1.5033,-1.5471,-1.6237,-1.658,-1.6026,-1.6177,-1.59,-1.5568,-1.5089,-1.4708,-1.4682,-1.4907,-1.4944,-1.4814,-1.5279,-1.5815,-1.6282,-1.6473,-1.6648,-1.6919,-1.6967,-1.6795,-1.6604,-1.6543,-1.6681,-1.6897,-1.7351,-1.8152,-1.9062,-1.9332,-2.0109,-2.1236,-2.2124,-2.1867,-2.0308,-1.9235,-1.8415,-1.7163,-1.5908,-1.5381,-1.5308,-1.5669,-1.6074,-1.6323,-1.6627,-1.6558,-1.6662,-1.6425,-1.6382,-1.6519,-1.6877,-1.7619,-1.8464,-1.943,-2.018,-2.0998,-2.1157,-2.0964,-2.0874,-2.0977,-2.1374,-2.1585,-2.1364,-2.0756,-2.0311,-1.9943,-1.9911,-1.9737,-1.9308,-1.9281,-1.974,-2.0457,-2.1425,-1.2508,-1.2508,-1.2508,-1.2762,-1.317,-1.321,-1.321,-1.321,-1.321,-1.321,-1.321,-1.321,-1.321,-1.321,-1.321,-1.321,-1.3176,-1.3187,-1.3154,-1.316,-1.3168,-1.3414,-1.3844,-1.3948,-1.4495,-1.5025,-1.5457,-1.553,-1.5227,-1.5229,-1.5271,-1.5322,-1.5636,-1.5942,-1.5344,-1.5252,-1.527,-1.4771,-1.4219,-1.4342,-1.506,-1.5668,-1.6073,-1.6605,-1.7197,-1.7322,-1.6502,-1.6794,-1.6908,-1.5949,-1.5649,-1.533,-1.512,-1.5081,-1.5066,-1.5165,-1.5521,-1.6045,-1.6557,-1.6719,-1.7027,-1.7524,-1.7696,-1.7493,-1.7344,-1.694,-1.6825,-1.6813,-1.7432,-1.8444,-1.995,-2.1754,-2.2878,-2.3003,-2.2905,-2.2343,-2.1216,-2.0208,-1.9395,-1.8428,-1.71,-1.6797,-1.67,-1.714,-1.7552,-1.7752,-1.7872,-1.7757,-1.7535,-1.7192,-1.7305,-1.7451,-1.7932,-1.8678,-1.958,-2.0546,-2.1333,-2.2211,-2.2056,-2.1993,-2.1815,-2.1574,-2.1341,-2.1485,-2.1348,-2.1242,-2.0835,-2.0561,-2.0468,-2.0097,-1.9595,-1.9577,-1.9777,-2.0613,-2.1452,-1.2908,-1.2902,-1.2914,-1.3019,-1.3204,-1.321,-1.321,-1.321,-1.321,-1.321,-1.321,-1.321,-1.321,-1.321,-1.321,-1.321,-1.3267,-1.3527,-1.3713,-1.3908,-1.4087,-1.4499,-1.5,-1.5337,-1.5757,-1.6126,-1.6447,-1.663,-1.6514,-1.6272,-1.6107,-1.6139,-1.6331,-1.6361,-1.6039,-1.5812,-1.539,-1.4877,-1.4459,-1.4605,-1.5399,-1.6032,-1.6473,-1.6837,-1.7719,-1.767,-1.7484,-1.74,-1.7591,-1.6839,-1.6577,-1.6111,-1.5871,-1.5775,-1.5717,-1.5544,-1.5854,-1.6293,-1.6722,-1.7003,-1.7588,-1.8162,-1.842,-1.8435,-1.8266,-1.7612,-1.7255,-1.7651,-1.8078,-1.8934,-1.9859,-2.1133,-2.2236,-2.2811,-2.3115,-2.2786,-2.1979,-2.1205,-2.0265,-1.9296,-1.8358,-1.7838,-1.7427,-1.7495,-1.7749,-1.8046,-1.8137,-1.8138,-1.7885,-1.7559,-1.7882,-1.8415,-1.9043,-1.9772,-2.0712,-2.1651,-2.2321,-2.29,-2.2521,-2.2427,-2.2393,-2.2184,-2.1724,-2.1364,-2.1231,-2.1167,-2.1101,-2.0892,-2.0569,-2.0221,-1.985,-2.0009,-2.0183,-2.0463,-2.1308,-1.321,-1.321,-1.321,-1.321,-1.321,-1.321,-1.321,-1.321,-1.321,-1.321,-1.321,-1.321,-1.321,-1.321,-1.3257,-1.3383,-1.3686,-1.4069,-1.4571,-1.4911,-1.5315,-1.5818,-1.6299,-1.6774,-1.7077,-1.7498,-1.7389,-1.741,-1.7307,-1.6999,-1.6625,-1.6515,-1.6479,-1.6472,-1.6398,-1.6126,-1.572,-1.5171,-1.4828,-1.5074,-1.5775,-1.6461,-1.6864,-1.7372,-1.794,-1.8412,-1.813,-1.8247,-1.8179,-1.7306,-1.7322,-1.6992,-1.6645,-1.6774,-1.6727,-1.663,-1.6808,-1.6902,-1.7083,-1.7321,-1.8044,-1.865,-1.9107,-1.9144,-1.8969,-1.8138,-1.7553,-1.8034,-1.8467,-1.923,-2.0069,-2.0467,-2.1623,-2.2447,-2.2763,-2.2701,-2.247,-2.1566,-2.0575,-1.9427,-1.8565,-1.811,-1.7791,-1.7684,-1.7883,-1.8239,-1.8369,-1.8456,-1.8393,-1.8206,-1.8687,-1.9367,-2.0039,-2.074,-2.158,-2.2503,-2.3231,-2.3468,-2.3061,-2.2829,-2.275,-2.2241,-2.1606,-2.1336,-2.1149,-2.1097,-2.1089,-2.0862,-2.071,-2.0811,-2.0839,-2.0581,-2.065,-2.0904,-2.1316,-1.321,-1.321,-1.321,-1.321,-1.321,-1.321,-1.321,-1.321,-1.321,-1.321,-1.321,-1.3239,-1.3267,-1.3264,-1.3415,-1.3819,-1.4675,-1.4748,-1.557,-1.6504,-1.7167,-1.7287,-1.7605,-1.7823,-1.7947,-1.8078,-1.8159,-1.8133,-1.79,-1.751,-1.6993,-1.6552,-1.6601,-1.6522,-1.6435,-1.6254,-1.6026,-1.5648,-1.5417,-1.5662,-1.6441,-1.7124,-1.7689,-1.7977,-1.875,-1.9036,-1.7905,-1.8538,-1.8517,-1.7334,-1.771,-1.7757,-1.7449,-1.7647,-1.7653,-1.7525,-1.7775,-1.7771,-1.7657,-1.7535,-1.7894,-1.8739,-1.9537,-1.9844,-1.9426,-1.9211,-1.8715,-1.8198,-1.8563,-1.9065,-1.9984,-2.0919,-2.1459,-2.2279,-2.26,-2.2609,-2.2361,-2.179,-2.0725,-1.9538,-1.8689,-1.8103,-1.7689,-1.7543,-1.8042,-1.8421,-1.8757,-1.8841,-1.9384,-1.9385,-1.9831,-2.0399,-2.1027,-2.1689,-2.2335,-2.3052,-2.3578,-2.3597,-2.3282,-2.3132,-2.3058,-2.2389,-2.1505,-2.1298,-2.1142,-2.1086,-2.111,-2.1114,-2.1284,-2.1773,-2.1823,-2.1358,-2.1412,-2.179,-2.2124,-1.321,-1.321,-1.321,-1.321,-1.321,-1.321,-1.321,-1.321,-1.321,-1.321,-1.3251,-1.3493,-1.3621,-1.3665,-1.3756,-1.43,-1.5209,-1.5691,-1.6501,-1.7112,-1.7644,-1.8103,-1.8391,-1.8569,-1.861,-1.8945,-1.906,-1.8862,-1.8542,-1.8092,-1.7787,-1.7394,-1.6915,-1.6565,-1.6471,-1.6277,-1.6103,-1.6138,-1.5913,-1.5976,-1.6536,-1.7155,-1.7617,-1.7821,-1.8641,-1.9163,-1.8979,-1.9055,-1.8763,-1.8467,-1.8455,-1.8274,-1.8058,-1.8277,-1.8222,-1.8056,-1.843,-1.8516,-1.8367,-1.8302,-1.8857,-2.012,-2.0904,-2.0991,-2.0092,-2.0167,-1.9618,-1.9121,-1.8613,-1.8949,-1.921,-1.9924,-2.0635,-2.1853,-2.2426,-2.2432,-2.2153,-2.1579,-2.0695,-1.9425,-1.8519,-1.7831,-1.7491,-1.7235,-1.7945,-1.8664,-1.8989,-1.9367,-1.9869,-2.0416,-2.0763,-2.1127,-2.169,-2.2346,-2.2989,-2.3449,-2.3876,-2.3714,-2.3504,-2.3346,-2.3159,-2.2271,-2.1552,-2.1337,-2.1221,-2.1244,-2.1337,-2.1499,-2.171,-2.1973,-2.201,-2.1849,-2.2164,-2.2579,-2.279,-1.321,-1.321,-1.321,-1.321,-1.321,-1.321,-1.321,-1.3264,-1.3594,-1.3771,-1.3882,-1.4073,-1.4091,-1.4153,-1.4442,-1.509,-1.5972,-1.6657,-1.7367,-1.7991,-1.8528,-1.8788,-1.8984,-1.9118,-1.9259,-1.9784,-1.9867,-1.9619,-1.9354,-1.8812,-1.8482,-1.8099,-1.7476,-1.7076,-1.667,-1.6273,-1.6145,-1.6302,-1.6245,-1.6268,-1.6844,-1.7312,-1.7719,-1.8047,-1.8844,-1.9288,-1.9465,-1.9428,-1.9197,-1.8997,-1.8946,-1.8881,-1.8749,-1.8655,-1.8646,-1.8648,-1.8802,-1.9172,-1.9142,-1.9563,-1.9976,-2.0705,-2.1454,-2.1379,-2.1055,-2.0789,-2.0063,-1.9394,-1.8941,-1.8556,-1.8507,-1.9029,-1.9905,-2.1054,-2.1668,-2.1759,-2.1658,-2.1214,-2.0281,-1.9269,-1.8467,-1.776,-1.7436,-1.7287,-1.8204,-1.9052,-1.9768,-2.0083,-2.0386,-2.0939,-2.1454,-2.1798,-2.2199,-2.2868,-2.3514,-2.369,-2.3816,-2.3958,-2.3735,-2.3459,-2.308,-2.225,-2.1822,-2.1779,-2.1655,-2.1501,-2.1595,-2.1795,-2.1903,-2.198,-2.2082,-2.222,-2.2502,-2.2867,-2.3068,-1.321,-1.321,-1.321,-1.321,-1.321,-1.321,-1.321,-1.3323,-1.4137,-1.4753,-1.4972,-1.4715,-1.4575,-1.4733,-1.5257,-1.6103,-1.7003,-1.7719,-1.8462,-1.9133,-1.928,-1.9559,-1.9603,-1.9631,-1.9666,-2.0143,-2.022,-2.02,-2.0135,-1.9649,-1.9295,-1.8871,-1.8327,-1.772,-1.7271,-1.6782,-1.6539,-1.6539,-1.6562,-1.6957,-1.7399,-1.7821,-1.8083,-1.8418,-1.9008,-1.9435,-1.9615,-1.9656,-1.9404,-1.9121,-1.9386,-1.9383,-1.9285,-1.9654,-1.9731,-1.9633,-1.9782,-1.9758,-1.9561,-2.0533,-2.0868,-2.082,-2.1457,-2.1205,-2.0583,-2.0288,-2.0204,-1.9531,-1.9017,-1.8068,-1.7991,-1.8204,-1.9133,-1.9748,-2.0261,-2.096,-2.0868,-2.0599,-1.9624,-1.9009,-1.8419,-1.782,-1.7422,-1.7456,-1.8447,-1.9391,-2.0346,-2.0793,-2.0821,-2.1203,-2.1664,-2.201,-2.2306,-2.2766,-2.3275,-2.3574,-2.3756,-2.3948,-2.3846,-2.3491,-2.3197,-2.2651,-2.2344,-2.222,-2.2103,-2.1928,-2.2,-2.2133,-2.2298,-2.2468,-2.252,-2.2669,-2.2915,-2.3113,-2.3262,-1.321,-1.321,-1.321,-1.321,-1.321,-1.321,-1.321,-1.3333,-1.389,-1.4335,-1.4647,-1.4877,-1.5398,-1.5792,-1.639,-1.7192,-1.804,-1.8383,-1.9119,-1.9609,-1.9697,-1.9697,-1.9697,-1.9733,-1.9818,-2.0003,-2.022,-2.0395,-2.0238,-2.012,-2.0008,-1.9692,-1.8991,-1.8365,-1.7963,-1.7618,-1.7592,-1.7585,-1.7585,-1.7727,-1.7915,-1.812,-1.8211,-1.8387,-1.8979,-1.9391,-1.9682,-1.9697,-1.9533,-1.9316,-1.9681,-1.9667,-1.9596,-1.9922,-1.9893,-1.9945,-2.0155,-2.0892,-2.1056,-2.158,-2.1404,-2.1275,-2.1052,-2.0868,-2.0379,-1.9989,-1.9818,-1.9423,-1.8564,-1.7558,-1.7142,-1.7072,-1.7558,-1.778,-1.8419,-1.9609,-1.9909,-1.9553,-1.8964,-1.8672,-1.8175,-1.7927,-1.7626,-1.7626,-1.843,-1.9185,-2.0088,-2.0404,-2.0492,-2.1042,-2.1553,-2.1871,-2.2213,-2.2617,-2.3003,-2.3282,-2.3459,-2.3557,-2.3509,-2.3265,-2.2993,-2.2782,-2.2515,-2.2249,-2.2313,-2.2369,-2.246,-2.2565,-2.283,-2.2981,-2.284,-2.2764,-2.2881,-2.3098,-2.333,-1.321,-1.321,-1.321,-1.321,-1.321,-1.321,-1.3355,-1.3736,-1.4083,-1.4426,-1.4979,-1.5689,-1.6157,-1.6663,-1.7405,-1.7985,-1.8701,-1.9052,-1.9244,-1.9697,-1.9697,-1.9697,-1.9697,-1.9733,-1.9846,-1.9967,-2.022,-2.0418,-2.0314,-2.0483,-2.0408,-2.0058,-1.9558,-1.9087,-1.8659,-1.8362,-1.8239,-1.8254,-1.8342,-1.8404,-1.8673,-1.8753,-1.8503,-1.8779,-1.9104,-1.9361,-1.961,-1.9733,-1.9733,-1.9733,-1.9733,-1.9733,-1.9733,-1.9726,-1.9733,-1.9952,-2.0499,-2.1259,-2.1668,-2.1715,-2.1495,-2.128,-2.0875,-2.0312,-1.9836,-1.9295,-1.9125,-1.866,-1.7862,-1.6579,-1.566,-1.5629,-1.599,-1.6216,-1.6881,-1.8085,-1.8567,-1.8201,-1.8387,-1.8129,-1.7939,-1.7767,-1.782,-1.8059,-1.8405,-1.9067,-1.973,-1.9997,-2.0309,-2.0927,-2.1478,-2.1791,-2.211,-2.2494,-2.2797,-2.3012,-2.3141,-2.3189,-2.3135,-2.3065,-2.2951,-2.2773,-2.2525,-2.2341,-2.2456,-2.2582,-2.2848,-2.303,-2.3069,-2.3005,-2.2849,-2.2815,-2.2848,-2.3025,-2.3226,-1.321,-1.321,-1.321,-1.321,-1.321,-1.321,-1.3746,-1.4673,-1.459,-1.5134,-1.6142,-1.6411,-1.6711,-1.7083,-1.8078,-1.8654,-1.8827,-1.9343,-1.9543,-1.9697,-1.9697,-1.9697,-1.9697,-1.9733,-1.9846,-2.0081,-2.0288,-2.0379,-2.0348,-2.055,-2.055,-2.0254,-1.9795,-1.9559,-1.9281,-1.9021,-1.8926,-1.9082,-1.9097,-1.9384,-1.9839,-1.9487,-1.9266,-1.9383,-1.9551,-1.9682,-1.9797,-1.9818,-1.9846,-1.9846,-1.9869,-1.9797,-1.9754,-1.9703,-1.9718,-1.9987,-2.0673,-2.1252,-2.168,-2.1732,-2.146,-2.1172,-2.0317,-1.9592,-1.9073,-1.8748,-1.8597,-1.799,-1.7076,-1.5219,-1.3773,-1.4239,-1.4733,-1.5054,-1.5434,-1.6216,-1.6807,-1.7068,-1.7518,-1.7497,-1.7374,-1.7347,-1.7626,-1.794,-1.8412,-1.9148,-1.9776,-2.0192,-2.055,-2.1023,-2.1524,-2.177,-2.2091,-2.2393,-2.2669,-2.2898,-2.2865,-2.2924,-2.303,-2.3007,-2.2867,-2.2729,-2.2497,-2.2407,-2.2581,-2.2822,-2.3277,-2.3291,-2.3132,-2.3045,-2.2989,-2.2764,-2.2772,-2.2798,-2.2968,-1.321,-1.321,-1.321,-1.321,-1.321,-1.321,-1.3645,-1.4213,-1.3877,-1.4265,-1.5335,-1.5841,-1.6509,-1.7238,-1.7946,-1.8658,-1.906,-1.9287,-1.9405,-1.953,-1.969,-1.9697,-1.9697,-1.9733,-1.9775,-1.9929,-2.0116,-2.0246,-2.028,-2.0524,-2.033,-1.9874,-1.9917,-1.9937,-1.9942,-1.9798,-1.9931,-2.0001,-1.9951,-2.0339,-2.0565,-2.0193,-1.9957,-1.9808,-1.9811,-1.9967,-2.0223,-2.0189,-2.0235,-2.0499,-2.0573,-2.0506,-2.0131,-2.0158,-2.0227,-2.0632,-2.115,-2.1628,-2.1957,-2.1807,-2.1551,-2.1303,-2.0603,-1.9697,-1.9103,-1.8644,-1.8358,-1.75,-1.6411,-1.4689,-1.3583,-1.3659,-1.399,-1.4321,-1.4771,-1.5393,-1.6002,-1.649,-1.6876,-1.7188,-1.7028,-1.7188,-1.7463,-1.79,-1.8405,-1.9214,-1.9907,-2.0374,-2.0805,-2.1301,-2.1678,-2.1948,-2.226,-2.2617,-2.2712,-2.2939,-2.2755,-2.2678,-2.2764,-2.279,-2.2606,-2.246,-2.2405,-2.2499,-2.2695,-2.3221,-2.3846,-2.3683,-2.3259,-2.3337,-2.3277,-2.2958,-2.2712,-2.2798,-2.2849,-1.321,-1.321,-1.321,-1.3311,-1.3502,-1.3298,-1.364,-1.4211,-1.3827,-1.4022,-1.4664,-1.5629,-1.6378,-1.6995,-1.7729,-1.8423,-1.8894,-1.8977,-1.9088,-1.9281,-1.9603,-1.969,-1.9697,-1.9697,-1.9733,-1.9818,-1.9902,-1.9992,-2.0124,-2.0254,-2.0193,-2.0337,-2.0216,-2.0337,-2.0516,-2.0667,-2.0797,-2.0838,-2.091,-2.1103,-2.1015,-2.0813,-2.041,-2.0138,-2.0116,-2.0467,-2.0789,-2.0695,-2.0764,-2.0959,-2.0999,-2.0894,-2.0591,-2.0591,-2.0773,-2.1142,-2.1391,-2.1802,-2.2126,-2.22,-2.1968,-2.1711,-2.1224,-2.0598,-1.967,-1.9038,-1.8207,-1.7259,-1.5849,-1.453,-1.3825,-1.3304,-1.3501,-1.3734,-1.4337,-1.494,-1.5442,-1.5965,-1.6386,-1.6782,-1.6993,-1.7111,-1.7388,-1.786,-1.8468,-1.9368,-2.0215,-2.0871,-2.1272,-2.166,-2.2005,-2.2315,-2.2609,-2.2881,-2.2947,-2.2923,-2.2755,-2.2589,-2.2499,-2.248,-2.231,-2.2377,-2.2462,-2.2625,-2.2806,-2.3369,-2.3887,-2.364,-2.336,-2.3446,-2.3509,-2.3259,-2.3042,-2.3,-2.3058,-1.321,-1.321,-1.321,-1.349,-1.3902,-1.3433,-1.3772,-1.4676,-1.4123,-1.4047,-1.4403,-1.5646,-1.6223,-1.6395,-1.7139,-1.7678,-1.8082,-1.833,-1.8605,-1.8835,-1.9325,-1.9566,-1.969,-1.9697,-1.9697,-1.9697,-1.9754,-1.9866,-1.9909,-2.0139,-2.0491,-2.0967,-2.0902,-2.0926,-2.1047,-2.1267,-2.1391,-2.1529,-2.1422,-2.1405,-2.1485,-2.1289,-2.0958,-2.0765,-2.0854,-2.1063,-2.1239,-2.1199,-2.1063,-2.1095,-2.1134,-2.1158,-2.1055,-2.1055,-2.1267,-2.146,-2.1658,-2.192,-2.2248,-2.2345,-2.2322,-2.2186,-2.2077,-2.145,-2.0541,-1.9466,-1.8521,-1.771,-1.6472,-1.4815,-1.3823,-1.3915,-1.4148,-1.4694,-1.5359,-1.5634,-1.578,-1.6195,-1.6484,-1.6831,-1.6993,-1.7188,-1.782,-1.8295,-1.8643,-1.9513,-2.0263,-2.1045,-2.1644,-2.1963,-2.2424,-2.2738,-2.2988,-2.3174,-2.3061,-2.2996,-2.2755,-2.2589,-2.2472,-2.249,-2.2616,-2.2616,-2.2589,-2.2883,-2.3174,-2.3346,-2.3619,-2.3566,-2.3597,-2.3575,-2.3571,-2.3504,-2.3403,-2.3353,-2.3415,-1.321,-1.321,-1.321,-1.3279,-1.3408,-1.3261,-1.3342,-1.3615,-1.3502,-1.3684,-1.4191,-1.486,-1.5317,-1.5491,-1.6114,-1.6626,-1.7009,-1.7625,-1.7925,-1.8362,-1.8877,-1.9485,-1.9682,-1.9769,-1.9769,-1.9697,-1.9762,-1.9937,-2.0158,-2.0356,-2.0558,-2.0959,-2.1095,-2.1221,-2.146,-2.165,-2.1764,-2.1995,-2.1966,-2.1903,-2.198,-2.174,-2.1419,-2.1264,-2.1317,-2.1316,-2.1442,-2.1501,-2.1675,-2.1915,-2.1991,-2.1811,-2.1491,-2.146,-2.1491,-2.165,-2.1936,-2.2135,-2.224,-2.239,-2.2347,-2.2345,-2.2206,-2.187,-2.116,-2.0055,-1.9127,-1.8337,-1.7169,-1.543,-1.435,-1.4705,-1.5186,-1.5929,-1.6455,-1.6392,-1.6287,-1.6489,-1.6746,-1.6915,-1.707,-1.7544,-1.8217,-1.8643,-1.9036,-1.9591,-2.0219,-2.0925,-2.164,-2.2141,-2.2914,-2.3262,-2.3423,-2.3522,-2.3337,-2.3189,-2.2989,-2.2849,-2.2747,-2.2823,-2.2899,-2.2908,-2.2933,-2.3286,-2.3588,-2.3662,-2.3786,-2.3987,-2.3976,-2.3846,-2.3804,-2.3798,-2.3871,-2.3843,-2.3928,-1.2908,-1.2908,-1.3123,-1.3389,-1.3527,-1.3311,-1.3336,-1.3571,-1.3596,-1.3622,-1.3802,-1.4261,-1.4612,-1.4851,-1.5436,-1.5764,-1.624,-1.6932,-1.7373,-1.7849,-1.8571,-1.9322,-1.9643,-1.9955,-2.0224,-2.0224,-2.0285,-2.0431,-2.0608,-2.0862,-2.1102,-2.1283,-2.1415,-2.1637,-2.189,-2.1928,-2.2003,-2.2274,-2.231,-2.2349,-2.2379,-2.2121,-2.1915,-2.1792,-2.1776,-2.1743,-2.1773,-2.189,-2.2032,-2.2268,-2.2362,-2.2268,-2.2047,-2.2051,-2.2022,-2.2036,-2.2143,-2.2319,-2.2313,-2.2318,-2.2358,-2.2392,-2.2463,-2.2205,-2.225,-2.1226,-2.0543,-1.9741,-1.8688,-1.7097,-1.6336,-1.6381,-1.7457,-1.8374,-1.8193,-1.7916,-1.7585,-1.7354,-1.751,-1.7551,-1.7747,-1.794,-1.8451,-1.8688,-1.9177,-1.9846,-2.0434,-2.0955,-2.1628,-2.2298,-2.3069,-2.3655,-2.3741,-2.3753,-2.3597,-2.3459,-2.3323,-2.3189,-2.3069,-2.3069,-2.3102,-2.315,-2.3277,-2.3566,-2.3765,-2.3837,-2.3987,-2.4142,-2.4199,-2.4074,-2.4094,-2.4151,-2.4199,-2.4199,-2.4156,-1.2473,-1.2573,-1.2978,-1.3496,-1.3871,-1.3446,-1.3477,-1.389,-1.3953,-1.3653,-1.3323,-1.3795,-1.4267,-1.4733,-1.531,-1.5509,-1.5921,-1.6777,-1.717,-1.7753,-1.8488,-1.937,-1.999,-2.035,-2.0579,-2.0772,-2.0837,-2.0926,-2.107,-2.129,-2.1491,-2.1735,-2.2003,-2.2293,-2.2321,-2.2293,-2.2293,-2.236,-2.2379,-2.2426,-2.2472,-2.2482,-2.2426,-2.2379,-2.236,-2.2341,-2.2341,-2.2293,-2.2293,-2.2472,-2.2616,-2.2545,-2.2465,-2.2439,-2.2345,-2.2324,-2.2245,-2.2319,-2.2313,-2.2307,-2.2433,-2.2548,-2.2669,-2.2704,-2.2686,-2.2398,-2.1707,-2.1077,-2.0045,-1.9233,-1.849,-1.831,-1.9485,-2.0182,-1.9768,-1.9286,-1.8793,-1.8331,-1.8338,-1.8345,-1.8538,-1.8691,-1.8932,-1.9133,-1.9542,-2.0184,-2.0622,-2.1189,-2.176,-2.2409,-2.3106,-2.3597,-2.3834,-2.3825,-2.3804,-2.3671,-2.3544,-2.3566,-2.3446,-2.336,-2.3328,-2.3522,-2.3649,-2.3705,-2.3878,-2.3967,-2.4045,-2.417,-2.4199,-2.4199,-2.4199,-2.4199,-2.4199,-2.4199,-2.4199,-1.2174,-1.2544,-1.2984,-1.3267,-1.3342,-1.3229,-1.3267,-1.3383,-1.3373,-1.3279,-1.3254,-1.3261,-1.3455,-1.3628,-1.462,-1.5171,-1.5763,-1.6698,-1.7484,-1.8086,-1.8847,-1.9639,-2.0343,-2.081,-2.091,-2.1055,-2.1189,-2.1213,-2.1438,-2.1598,-2.1794,-2.2135,-2.218,-2.2396,-2.2572,-2.249,-2.2369,-2.2426,-2.2379,-2.236,-2.2453,-2.2554,-2.2823,-2.2823,-2.2772,-2.2695,-2.2581,-2.2415,-2.2472,-2.2643,-2.289,-2.2865,-2.2815,-2.2712,-2.266,-2.25,-2.2434,-2.2407,-2.2421,-2.2475,-2.2607,-2.2563,-2.2669,-2.2754,-2.2839,-2.2988,-2.2557,-2.2513,-2.1675,-2.1034,-2.0416,-2.0256,-2.0949,-2.111,-2.0915,-2.0354,-1.982,-1.9493,-1.9343,-1.948,-1.9695,-1.9928,-2.0215,-2.0333,-2.0333,-2.0662,-2.0273,-2.0845,-2.1732,-2.2444,-2.3191,-2.3539,-2.3896,-2.4054,-2.4094,-2.3846,-2.3735,-2.3795,-2.3825,-2.3714,-2.3765,-2.3996,-2.4074,-2.3987,-2.4036,-2.4113,-2.419,-2.4199,-2.4199,-2.4199,-2.4199,-2.4199,-2.4199,-2.4199,-2.4199]}]]